<?xml version="1.0" encoding="UTF-8" standalone="no" ?>
<gpx xmlns="http://www.topografix.com/GPX/1/1" xmlns:xsi="http://www.w3.org/2001/XMLSchema-instance" xsi:schemaLocation="http://www.topografix.com/GPX/1/1 http://www.topografix.com/GPX/1/1/gpx.xsd" version="1.1" creator="VisuGPX - https://www.visugpx.com">
  <metadata>
    <name>Vichy en touriste</name>
    <desc><![CDATA[Découverte de cette ville mythique et de ses nombreux lieux pittoresques et parfois un peu désuet]]></desc>
  </metadata>
  <trk>
    <name><![CDATA[Vichy en touriste_1]]></name>
    <trkseg>
      <trkpt lat="46.1255" lon="3.42544">
        <ele>256.7</ele>
        <time>2019-07-04T08:16:28Z</time>
      </trkpt>
      <trkpt lat="46.1255" lon="3.42544">
        <ele>322.38</ele>
        <time>2019-07-04T08:16:37Z</time>
      </trkpt>
      <trkpt lat="46.12553" lon="3.42537">
        <ele>329.226</ele>
        <time>2019-07-04T08:16:41Z</time>
      </trkpt>
      <trkpt lat="46.12555" lon="3.42534">
        <ele>330.495</ele>
        <time>2019-07-04T08:16:42Z</time>
      </trkpt>
      <trkpt lat="46.12556" lon="3.4253">
        <ele>331.713</ele>
        <time>2019-07-04T08:16:44Z</time>
      </trkpt>
      <trkpt lat="46.12554" lon="3.42525">
        <ele>330.957</ele>
        <time>2019-07-04T08:16:50Z</time>
      </trkpt>
      <trkpt lat="46.12554" lon="3.42514">
        <ele>334.74</ele>
        <time>2019-07-04T08:16:57Z</time>
      </trkpt>
      <trkpt lat="46.12554" lon="3.42507">
        <ele>334.711</ele>
        <time>2019-07-04T08:17:05Z</time>
      </trkpt>
      <trkpt lat="46.12554" lon="3.42499">
        <ele>334.732</ele>
        <time>2019-07-04T08:17:08Z</time>
      </trkpt>
      <trkpt lat="46.12554" lon="3.42495">
        <ele>334.736</ele>
        <time>2019-07-04T08:17:10Z</time>
      </trkpt>
      <trkpt lat="46.12555" lon="3.42489">
        <ele>334.656</ele>
        <time>2019-07-04T08:17:15Z</time>
      </trkpt>
      <trkpt lat="46.12557" lon="3.42484">
        <ele>334.108</ele>
        <time>2019-07-04T08:17:22Z</time>
      </trkpt>
      <trkpt lat="46.12557" lon="3.42484">
        <ele>257</ele>
        <time>2019-07-04T08:17:30Z</time>
      </trkpt>
      <trkpt lat="46.12557" lon="3.42484">
        <ele>257</ele>
        <time>2019-07-04T08:17:35Z</time>
      </trkpt>
      <trkpt lat="46.12543" lon="3.42482">
        <ele>332.542</ele>
        <time>2019-07-04T08:17:35Z</time>
      </trkpt>
      <trkpt lat="46.12538" lon="3.42481">
        <ele>331.731</ele>
        <time>2019-07-04T08:17:41Z</time>
      </trkpt>
      <trkpt lat="46.12535" lon="3.4248">
        <ele>331.183</ele>
        <time>2019-07-04T08:17:45Z</time>
      </trkpt>
      <trkpt lat="46.1253" lon="3.42476">
        <ele>330.465</ele>
        <time>2019-07-04T08:17:50Z</time>
      </trkpt>
      <trkpt lat="46.12527" lon="3.42472">
        <ele>330.005</ele>
        <time>2019-07-04T08:17:53Z</time>
      </trkpt>
      <trkpt lat="46.12522" lon="3.42467">
        <ele>328.979</ele>
        <time>2019-07-04T08:17:59Z</time>
      </trkpt>
      <trkpt lat="46.12517" lon="3.42468">
        <ele>328.633</ele>
        <time>2019-07-04T08:18:01Z</time>
      </trkpt>
      <trkpt lat="46.12512" lon="3.42467">
        <ele>327.628</ele>
        <time>2019-07-04T08:18:07Z</time>
      </trkpt>
      <trkpt lat="46.12509" lon="3.42467">
        <ele>327.306</ele>
        <time>2019-07-04T08:18:09Z</time>
      </trkpt>
      <trkpt lat="46.12504" lon="3.42464">
        <ele>326.677</ele>
        <time>2019-07-04T08:18:13Z</time>
      </trkpt>
      <trkpt lat="46.12501" lon="3.42463">
        <ele>326.218</ele>
        <time>2019-07-04T08:18:16Z</time>
      </trkpt>
      <trkpt lat="46.12498" lon="3.42461">
        <ele>325.916</ele>
        <time>2019-07-04T08:18:18Z</time>
      </trkpt>
      <trkpt lat="46.12495" lon="3.4246">
        <ele>325.472</ele>
        <time>2019-07-04T08:18:21Z</time>
      </trkpt>
      <trkpt lat="46.1249" lon="3.42458">
        <ele>324.897</ele>
        <time>2019-07-04T08:18:25Z</time>
      </trkpt>
      <trkpt lat="46.12485" lon="3.42458">
        <ele>324.346</ele>
        <time>2019-07-04T08:18:29Z</time>
      </trkpt>
      <trkpt lat="46.12482" lon="3.42458">
        <ele>324.083</ele>
        <time>2019-07-04T08:18:31Z</time>
      </trkpt>
      <trkpt lat="46.12479" lon="3.42459">
        <ele>323.827</ele>
        <time>2019-07-04T08:18:33Z</time>
      </trkpt>
      <trkpt lat="46.12475" lon="3.42458">
        <ele>323.328</ele>
        <time>2019-07-04T08:18:37Z</time>
      </trkpt>
      <trkpt lat="46.12471" lon="3.42454">
        <ele>322.843</ele>
        <time>2019-07-04T08:18:41Z</time>
      </trkpt>
      <trkpt lat="46.12466" lon="3.42451">
        <ele>322.372</ele>
        <time>2019-07-04T08:18:45Z</time>
      </trkpt>
      <trkpt lat="46.12463" lon="3.42449">
        <ele>322.14</ele>
        <time>2019-07-04T08:18:47Z</time>
      </trkpt>
      <trkpt lat="46.12458" lon="3.42447">
        <ele>321.693</ele>
        <time>2019-07-04T08:18:51Z</time>
      </trkpt>
      <trkpt lat="46.12455" lon="3.42446">
        <ele>321.478</ele>
        <time>2019-07-04T08:18:53Z</time>
      </trkpt>
      <trkpt lat="46.1245" lon="3.42443">
        <ele>321.069</ele>
        <time>2019-07-04T08:18:57Z</time>
      </trkpt>
      <trkpt lat="46.12445" lon="3.42439">
        <ele>320.779</ele>
        <time>2019-07-04T08:19:00Z</time>
      </trkpt>
      <trkpt lat="46.12443" lon="3.42437">
        <ele>320.594</ele>
        <time>2019-07-04T08:19:02Z</time>
      </trkpt>
      <trkpt lat="46.12438" lon="3.42435">
        <ele>320.243</ele>
        <time>2019-07-04T08:19:06Z</time>
      </trkpt>
      <trkpt lat="46.12435" lon="3.42431">
        <ele>319.91</ele>
        <time>2019-07-04T08:19:10Z</time>
      </trkpt>
      <trkpt lat="46.12431" lon="3.42427">
        <ele>319.594</ele>
        <time>2019-07-04T08:19:14Z</time>
      </trkpt>
      <trkpt lat="46.12429" lon="3.42424">
        <ele>319.444</ele>
        <time>2019-07-04T08:19:16Z</time>
      </trkpt>
      <trkpt lat="46.12424" lon="3.42423">
        <ele>319.077</ele>
        <time>2019-07-04T08:19:21Z</time>
      </trkpt>
      <trkpt lat="46.12421" lon="3.42423">
        <ele>318.795</ele>
        <time>2019-07-04T08:19:25Z</time>
      </trkpt>
      <trkpt lat="46.12417" lon="3.42418">
        <ele>318.52</ele>
        <time>2019-07-04T08:19:29Z</time>
      </trkpt>
      <trkpt lat="46.12412" lon="3.42414">
        <ele>318.252</ele>
        <time>2019-07-04T08:19:34Z</time>
      </trkpt>
      <trkpt lat="46.12409" lon="3.42408">
        <ele>317.952</ele>
        <time>2019-07-04T08:19:39Z</time>
      </trkpt>
      <trkpt lat="46.12408" lon="3.42405">
        <ele>317.783</ele>
        <time>2019-07-04T08:19:42Z</time>
      </trkpt>
      <trkpt lat="46.12404" lon="3.42399">
        <ele>317.676</ele>
        <time>2019-07-04T08:19:44Z</time>
      </trkpt>
      <trkpt lat="46.12401" lon="3.42394">
        <ele>317.578</ele>
        <time>2019-07-04T08:19:46Z</time>
      </trkpt>
      <trkpt lat="46.12399" lon="3.42389">
        <ele>317.445</ele>
        <time>2019-07-04T08:19:49Z</time>
      </trkpt>
      <trkpt lat="46.12396" lon="3.42385">
        <ele>317.278</ele>
        <time>2019-07-04T08:19:53Z</time>
      </trkpt>
      <trkpt lat="46.12395" lon="3.42382">
        <ele>317.122</ele>
        <time>2019-07-04T08:19:57Z</time>
      </trkpt>
      <trkpt lat="46.12395" lon="3.42375">
        <ele>316.914</ele>
        <time>2019-07-04T08:20:04Z</time>
      </trkpt>
      <trkpt lat="46.12395" lon="3.42368">
        <ele>316.818</ele>
        <time>2019-07-04T08:20:07Z</time>
      </trkpt>
      <trkpt lat="46.12397" lon="3.42361">
        <ele>316.671</ele>
        <time>2019-07-04T08:20:12Z</time>
      </trkpt>
      <trkpt lat="46.12397" lon="3.42353">
        <ele>316.539</ele>
        <time>2019-07-04T08:20:17Z</time>
      </trkpt>
      <trkpt lat="46.12399" lon="3.42346">
        <ele>316.436</ele>
        <time>2019-07-04T08:20:21Z</time>
      </trkpt>
      <trkpt lat="46.12403" lon="3.42342">
        <ele>316.322</ele>
        <time>2019-07-04T08:20:25Z</time>
      </trkpt>
      <trkpt lat="46.12405" lon="3.42339">
        <ele>316.227</ele>
        <time>2019-07-04T08:20:28Z</time>
      </trkpt>
      <trkpt lat="46.12407" lon="3.4233">
        <ele>316.03</ele>
        <time>2019-07-04T08:20:34Z</time>
      </trkpt>
      <trkpt lat="46.12408" lon="3.42325">
        <ele>315.965</ele>
        <time>2019-07-04T08:20:36Z</time>
      </trkpt>
      <trkpt lat="46.12408" lon="3.42321">
        <ele>315.872</ele>
        <time>2019-07-04T08:20:39Z</time>
      </trkpt>
      <trkpt lat="46.12408" lon="3.42314">
        <ele>315.726</ele>
        <time>2019-07-04T08:20:44Z</time>
      </trkpt>
      <trkpt lat="46.1241" lon="3.42306">
        <ele>315.582</ele>
        <time>2019-07-04T08:20:49Z</time>
      </trkpt>
      <trkpt lat="46.12408" lon="3.423">
        <ele>315.458</ele>
        <time>2019-07-04T08:20:53Z</time>
      </trkpt>
      <trkpt lat="46.12407" lon="3.42296">
        <ele>315.39</ele>
        <time>2019-07-04T08:20:55Z</time>
      </trkpt>
      <trkpt lat="46.12406" lon="3.42291">
        <ele>315.29</ele>
        <time>2019-07-04T08:20:58Z</time>
      </trkpt>
      <trkpt lat="46.12402" lon="3.42285">
        <ele>315.157</ele>
        <time>2019-07-04T08:21:02Z</time>
      </trkpt>
      <trkpt lat="46.12397" lon="3.42282">
        <ele>315</ele>
        <time>2019-07-04T08:21:07Z</time>
      </trkpt>
      <trkpt lat="46.12397" lon="3.42282">
        <ele>257</ele>
        <time>2019-07-04T08:21:15Z</time>
      </trkpt>
      <trkpt lat="46.12397" lon="3.42282">
        <ele>257</ele>
        <time>2019-07-04T08:55:36Z</time>
      </trkpt>
      <trkpt lat="46.12393" lon="3.42306">
        <ele>319.835</ele>
        <time>2019-07-04T08:55:36Z</time>
      </trkpt>
      <trkpt lat="46.12395" lon="3.42313">
        <ele>319.833</ele>
        <time>2019-07-04T08:55:41Z</time>
      </trkpt>
      <trkpt lat="46.12398" lon="3.42321">
        <ele>319.834</ele>
        <time>2019-07-04T08:55:42Z</time>
      </trkpt>
      <trkpt lat="46.12383" lon="3.4232">
        <ele>319.832</ele>
        <time>2019-07-04T08:55:46Z</time>
      </trkpt>
      <trkpt lat="46.12379" lon="3.42314">
        <ele>319.831</ele>
        <time>2019-07-04T08:55:48Z</time>
      </trkpt>
      <trkpt lat="46.12373" lon="3.42314">
        <ele>319.831</ele>
        <time>2019-07-04T08:55:50Z</time>
      </trkpt>
      <trkpt lat="46.12373" lon="3.42314">
        <ele>319.831</ele>
        <time>2019-07-04T08:55:56Z</time>
      </trkpt>
      <trkpt lat="46.12373" lon="3.42314">
        <ele>257</ele>
        <time>2019-07-04T08:55:56Z</time>
      </trkpt>
      <trkpt lat="46.12373" lon="3.42314">
        <ele>257</ele>
        <time>2019-07-04T08:57:48Z</time>
      </trkpt>
      <trkpt lat="46.12349" lon="3.42333">
        <ele>319.671</ele>
        <time>2019-07-04T08:57:48Z</time>
      </trkpt>
      <trkpt lat="46.1236" lon="3.42334">
        <ele>319.437</ele>
        <time>2019-07-04T08:58:12Z</time>
      </trkpt>
      <trkpt lat="46.12372" lon="3.42334">
        <ele>319.421</ele>
        <time>2019-07-04T08:58:15Z</time>
      </trkpt>
      <trkpt lat="46.12378" lon="3.42326">
        <ele>319.413</ele>
        <time>2019-07-04T08:58:22Z</time>
      </trkpt>
      <trkpt lat="46.12378" lon="3.42318">
        <ele>319.411</ele>
        <time>2019-07-04T08:58:26Z</time>
      </trkpt>
      <trkpt lat="46.12379" lon="3.42314">
        <ele>319.411</ele>
        <time>2019-07-04T08:58:27Z</time>
      </trkpt>
      <trkpt lat="46.12379" lon="3.42314">
        <ele>257</ele>
        <time>2019-07-04T08:58:35Z</time>
      </trkpt>
      <trkpt lat="46.12379" lon="3.42314">
        <ele>257</ele>
        <time>2019-07-04T08:58:55Z</time>
      </trkpt>
      <trkpt lat="46.12373" lon="3.42306">
        <ele>319.428</ele>
        <time>2019-07-04T08:58:55Z</time>
      </trkpt>
      <trkpt lat="46.12373" lon="3.42306">
        <ele>319.428</ele>
        <time>2019-07-04T08:59:00Z</time>
      </trkpt>
      <trkpt lat="46.12373" lon="3.42306">
        <ele>257</ele>
        <time>2019-07-04T08:59:00Z</time>
      </trkpt>
      <trkpt lat="46.12373" lon="3.42306">
        <ele>257</ele>
        <time>2019-07-04T08:59:28Z</time>
      </trkpt>
      <trkpt lat="46.12355" lon="3.42335">
        <ele>319.653</ele>
        <time>2019-07-04T08:59:28Z</time>
      </trkpt>
      <trkpt lat="46.12355" lon="3.42335">
        <ele>319.653</ele>
        <time>2019-07-04T08:59:35Z</time>
      </trkpt>
      <trkpt lat="46.12355" lon="3.42335">
        <ele>257.2</ele>
        <time>2019-07-04T08:59:35Z</time>
      </trkpt>
      <trkpt lat="46.12355" lon="3.42335">
        <ele>257.2</ele>
        <time>2019-07-04T08:59:52Z</time>
      </trkpt>
      <trkpt lat="46.12368" lon="3.4231">
        <ele>319.777</ele>
        <time>2019-07-04T08:59:52Z</time>
      </trkpt>
      <trkpt lat="46.12375" lon="3.42297">
        <ele>319.786</ele>
        <time>2019-07-04T08:59:55Z</time>
      </trkpt>
      <trkpt lat="46.1237" lon="3.42289">
        <ele>319.818</ele>
        <time>2019-07-04T09:00:07Z</time>
      </trkpt>
      <trkpt lat="46.12374" lon="3.4228">
        <ele>319.699</ele>
        <time>2019-07-04T09:00:14Z</time>
      </trkpt>
      <trkpt lat="46.12378" lon="3.42273">
        <ele>319.656</ele>
        <time>2019-07-04T09:00:19Z</time>
      </trkpt>
      <trkpt lat="46.12383" lon="3.42269">
        <ele>319.631</ele>
        <time>2019-07-04T09:00:21Z</time>
      </trkpt>
      <trkpt lat="46.12388" lon="3.42266">
        <ele>319.565</ele>
        <time>2019-07-04T09:00:25Z</time>
      </trkpt>
      <trkpt lat="46.12388" lon="3.42258">
        <ele>319.469</ele>
        <time>2019-07-04T09:00:31Z</time>
      </trkpt>
      <trkpt lat="46.1239" lon="3.42252">
        <ele>319.392</ele>
        <time>2019-07-04T09:00:36Z</time>
      </trkpt>
      <trkpt lat="46.12389" lon="3.42244">
        <ele>319.333</ele>
        <time>2019-07-04T09:00:40Z</time>
      </trkpt>
      <trkpt lat="46.12387" lon="3.42238">
        <ele>319.272</ele>
        <time>2019-07-04T09:00:44Z</time>
      </trkpt>
      <trkpt lat="46.12387" lon="3.42235">
        <ele>319.205</ele>
        <time>2019-07-04T09:00:49Z</time>
      </trkpt>
      <trkpt lat="46.12387" lon="3.42235">
        <ele>319.205</ele>
        <time>2019-07-04T09:04:15Z</time>
      </trkpt>
      <trkpt lat="46.12398" lon="3.42228">
        <ele>323.091</ele>
        <time>2019-07-04T09:04:18Z</time>
      </trkpt>
      <trkpt lat="46.12404" lon="3.42233">
        <ele>325.031</ele>
        <time>2019-07-04T09:04:25Z</time>
      </trkpt>
      <trkpt lat="46.12408" lon="3.42239">
        <ele>325.38</ele>
        <time>2019-07-04T09:04:30Z</time>
      </trkpt>
      <trkpt lat="46.12404" lon="3.42218">
        <ele>325.514</ele>
        <time>2019-07-04T09:04:36Z</time>
      </trkpt>
      <trkpt lat="46.124" lon="3.4221">
        <ele>325.552</ele>
        <time>2019-07-04T09:04:43Z</time>
      </trkpt>
      <trkpt lat="46.124" lon="3.4221">
        <ele>256.3</ele>
        <time>2019-07-04T09:04:50Z</time>
      </trkpt>
      <trkpt lat="46.124" lon="3.4221">
        <ele>256.3</ele>
        <time>2019-07-04T09:04:56Z</time>
      </trkpt>
      <trkpt lat="46.12402" lon="3.42215">
        <ele>325.501</ele>
        <time>2019-07-04T09:05:21Z</time>
      </trkpt>
      <trkpt lat="46.12395" lon="3.42211">
        <ele>325.5</ele>
        <time>2019-07-04T09:05:22Z</time>
      </trkpt>
      <trkpt lat="46.12391" lon="3.42205">
        <ele>325.499</ele>
        <time>2019-07-04T09:05:23Z</time>
      </trkpt>
      <trkpt lat="46.12391" lon="3.42198">
        <ele>325.497</ele>
        <time>2019-07-04T09:05:24Z</time>
      </trkpt>
      <trkpt lat="46.12386" lon="3.42181">
        <ele>325.496</ele>
        <time>2019-07-04T09:05:25Z</time>
      </trkpt>
      <trkpt lat="46.12387" lon="3.42171">
        <ele>325.495</ele>
        <time>2019-07-04T09:05:26Z</time>
      </trkpt>
      <trkpt lat="46.12387" lon="3.42171">
        <ele>256.1</ele>
        <time>2019-07-04T09:05:31Z</time>
      </trkpt>
      <trkpt lat="46.12387" lon="3.42171">
        <ele>256.1</ele>
        <time>2019-07-04T09:05:40Z</time>
      </trkpt>
      <trkpt lat="46.12379" lon="3.42164">
        <ele>325.501</ele>
        <time>2019-07-04T09:05:40Z</time>
      </trkpt>
      <trkpt lat="46.12377" lon="3.42158">
        <ele>325.517</ele>
        <time>2019-07-04T09:05:44Z</time>
      </trkpt>
      <trkpt lat="46.12376" lon="3.42153">
        <ele>325.533</ele>
        <time>2019-07-04T09:05:51Z</time>
      </trkpt>
      <trkpt lat="46.12376" lon="3.42153">
        <ele>256.5</ele>
        <time>2019-07-04T09:05:59Z</time>
      </trkpt>
      <trkpt lat="46.12376" lon="3.42153">
        <ele>256.5</ele>
        <time>2019-07-04T09:06:04Z</time>
      </trkpt>
      <trkpt lat="46.12374" lon="3.4214">
        <ele>325.456</ele>
        <time>2019-07-04T09:06:04Z</time>
      </trkpt>
      <trkpt lat="46.12374" lon="3.42134">
        <ele>325.417</ele>
        <time>2019-07-04T09:06:07Z</time>
      </trkpt>
      <trkpt lat="46.12374" lon="3.42127">
        <ele>325.359</ele>
        <time>2019-07-04T09:06:11Z</time>
      </trkpt>
      <trkpt lat="46.12376" lon="3.42119">
        <ele>325.297</ele>
        <time>2019-07-04T09:06:15Z</time>
      </trkpt>
      <trkpt lat="46.12376" lon="3.42111">
        <ele>325.229</ele>
        <time>2019-07-04T09:06:19Z</time>
      </trkpt>
      <trkpt lat="46.12376" lon="3.42106">
        <ele>325.172</ele>
        <time>2019-07-04T09:06:22Z</time>
      </trkpt>
      <trkpt lat="46.12376" lon="3.42103">
        <ele>325.133</ele>
        <time>2019-07-04T09:06:24Z</time>
      </trkpt>
      <trkpt lat="46.12377" lon="3.42097">
        <ele>325.068</ele>
        <time>2019-07-04T09:06:27Z</time>
      </trkpt>
      <trkpt lat="46.12377" lon="3.42091">
        <ele>324.947</ele>
        <time>2019-07-04T09:06:32Z</time>
      </trkpt>
      <trkpt lat="46.12377" lon="3.42085">
        <ele>324.72</ele>
        <time>2019-07-04T09:06:38Z</time>
      </trkpt>
      <trkpt lat="46.12376" lon="3.4208">
        <ele>324.622</ele>
        <time>2019-07-04T09:06:40Z</time>
      </trkpt>
      <trkpt lat="46.12377" lon="3.42074">
        <ele>324.384</ele>
        <time>2019-07-04T09:06:45Z</time>
      </trkpt>
      <trkpt lat="46.12377" lon="3.4207">
        <ele>324.248</ele>
        <time>2019-07-04T09:06:48Z</time>
      </trkpt>
      <trkpt lat="46.12378" lon="3.4206">
        <ele>323.994</ele>
        <time>2019-07-04T09:06:55Z</time>
      </trkpt>
      <trkpt lat="46.12378" lon="3.4206">
        <ele>323.994</ele>
        <time>2019-07-04T09:07:02Z</time>
      </trkpt>
      <trkpt lat="46.12378" lon="3.4206">
        <ele>256.7</ele>
        <time>2019-07-04T09:07:02Z</time>
      </trkpt>
      <trkpt lat="46.12378" lon="3.4206">
        <ele>256.7</ele>
        <time>2019-07-04T09:07:13Z</time>
      </trkpt>
      <trkpt lat="46.12383" lon="3.42047">
        <ele>323.443</ele>
        <time>2019-07-04T09:07:13Z</time>
      </trkpt>
      <trkpt lat="46.12383" lon="3.42047">
        <ele>323.443</ele>
        <time>2019-07-04T09:07:21Z</time>
      </trkpt>
      <trkpt lat="46.12383" lon="3.42047">
        <ele>256.5</ele>
        <time>2019-07-04T09:07:21Z</time>
      </trkpt>
      <trkpt lat="46.12383" lon="3.42047">
        <ele>256.5</ele>
        <time>2019-07-04T09:13:32Z</time>
      </trkpt>
      <trkpt lat="46.12371" lon="3.42018">
        <ele>320.949</ele>
        <time>2019-07-04T09:13:32Z</time>
      </trkpt>
      <trkpt lat="46.12366" lon="3.42019">
        <ele>320.906</ele>
        <time>2019-07-04T09:13:37Z</time>
      </trkpt>
      <trkpt lat="46.12364" lon="3.42019">
        <ele>320.883</ele>
        <time>2019-07-04T09:13:40Z</time>
      </trkpt>
      <trkpt lat="46.12364" lon="3.42019">
        <ele>257.8</ele>
        <time>2019-07-04T09:13:48Z</time>
      </trkpt>
      <trkpt lat="46.12364" lon="3.42019">
        <ele>257.8</ele>
        <time>2019-07-04T09:16:38Z</time>
      </trkpt>
      <trkpt lat="46.12361" lon="3.4199">
        <ele>319.391</ele>
        <time>2019-07-04T09:16:38Z</time>
      </trkpt>
      <trkpt lat="46.1236" lon="3.41987">
        <ele>319.376</ele>
        <time>2019-07-04T09:16:40Z</time>
      </trkpt>
      <trkpt lat="46.12358" lon="3.4198">
        <ele>319.345</ele>
        <time>2019-07-04T09:16:45Z</time>
      </trkpt>
      <trkpt lat="46.12358" lon="3.4198">
        <ele>256.1</ele>
        <time>2019-07-04T09:16:53Z</time>
      </trkpt>
      <trkpt lat="46.12358" lon="3.4198">
        <ele>256.1</ele>
        <time>2019-07-04T09:17:23Z</time>
      </trkpt>
      <trkpt lat="46.12356" lon="3.41961">
        <ele>319.274</ele>
        <time>2019-07-04T09:17:23Z</time>
      </trkpt>
      <trkpt lat="46.12356" lon="3.41961">
        <ele>319.274</ele>
        <time>2019-07-04T09:17:30Z</time>
      </trkpt>
      <trkpt lat="46.12356" lon="3.41961">
        <ele>255.5</ele>
        <time>2019-07-04T09:17:30Z</time>
      </trkpt>
      <trkpt lat="46.12356" lon="3.41961">
        <ele>255.5</ele>
        <time>2019-07-04T09:19:08Z</time>
      </trkpt>
      <trkpt lat="46.12344" lon="3.41944">
        <ele>320.086</ele>
        <time>2019-07-04T09:19:08Z</time>
      </trkpt>
      <trkpt lat="46.12344" lon="3.41941">
        <ele>320.13</ele>
        <time>2019-07-04T09:19:13Z</time>
      </trkpt>
      <trkpt lat="46.12344" lon="3.41941">
        <ele>256.2</ele>
        <time>2019-07-04T09:19:21Z</time>
      </trkpt>
      <trkpt lat="46.12344" lon="3.41941">
        <ele>256.2</ele>
        <time>2019-07-04T09:20:44Z</time>
      </trkpt>
      <trkpt lat="46.12365" lon="3.41919">
        <ele>321.828</ele>
        <time>2019-07-04T09:20:44Z</time>
      </trkpt>
      <trkpt lat="46.12371" lon="3.41927">
        <ele>322.114</ele>
        <time>2019-07-04T09:21:18Z</time>
      </trkpt>
      <trkpt lat="46.12377" lon="3.41932">
        <ele>322.1</ele>
        <time>2019-07-04T09:21:21Z</time>
      </trkpt>
      <trkpt lat="46.12386" lon="3.41934">
        <ele>322.066</ele>
        <time>2019-07-04T09:21:23Z</time>
      </trkpt>
      <trkpt lat="46.12392" lon="3.41934">
        <ele>322.044</ele>
        <time>2019-07-04T09:21:25Z</time>
      </trkpt>
      <trkpt lat="46.12392" lon="3.41934">
        <ele>322.044</ele>
        <time>2019-07-04T09:21:30Z</time>
      </trkpt>
      <trkpt lat="46.12392" lon="3.41934">
        <ele>255</ele>
        <time>2019-07-04T09:21:30Z</time>
      </trkpt>
      <trkpt lat="46.12392" lon="3.41934">
        <ele>255</ele>
        <time>2019-07-04T09:21:43Z</time>
      </trkpt>
      <trkpt lat="46.12404" lon="3.41952">
        <ele>321.663</ele>
        <time>2019-07-04T09:21:43Z</time>
      </trkpt>
      <trkpt lat="46.12407" lon="3.41957">
        <ele>321.626</ele>
        <time>2019-07-04T09:21:44Z</time>
      </trkpt>
      <trkpt lat="46.12412" lon="3.4196">
        <ele>321.547</ele>
        <time>2019-07-04T09:21:46Z</time>
      </trkpt>
      <trkpt lat="46.12417" lon="3.41965">
        <ele>321.386</ele>
        <time>2019-07-04T09:21:50Z</time>
      </trkpt>
      <trkpt lat="46.12419" lon="3.41967">
        <ele>321.3</ele>
        <time>2019-07-04T09:21:52Z</time>
      </trkpt>
      <trkpt lat="46.12424" lon="3.4197">
        <ele>321.124</ele>
        <time>2019-07-04T09:21:56Z</time>
      </trkpt>
      <trkpt lat="46.12426" lon="3.41972">
        <ele>320.947</ele>
        <time>2019-07-04T09:22:00Z</time>
      </trkpt>
      <trkpt lat="46.12432" lon="3.41967">
        <ele>320.668</ele>
        <time>2019-07-04T09:22:08Z</time>
      </trkpt>
      <trkpt lat="46.12436" lon="3.41962">
        <ele>320.557</ele>
        <time>2019-07-04T09:22:10Z</time>
      </trkpt>
      <trkpt lat="46.12439" lon="3.41959">
        <ele>320.447</ele>
        <time>2019-07-04T09:22:12Z</time>
      </trkpt>
      <trkpt lat="46.12442" lon="3.41953">
        <ele>320.338</ele>
        <time>2019-07-04T09:22:14Z</time>
      </trkpt>
      <trkpt lat="46.12444" lon="3.41949">
        <ele>320.327</ele>
        <time>2019-07-04T09:22:16Z</time>
      </trkpt>
      <trkpt lat="46.12448" lon="3.41944">
        <ele>320.043</ele>
        <time>2019-07-04T09:22:21Z</time>
      </trkpt>
      <trkpt lat="46.12452" lon="3.41943">
        <ele>319.808</ele>
        <time>2019-07-04T09:22:25Z</time>
      </trkpt>
      <trkpt lat="46.12452" lon="3.41943">
        <ele>319.808</ele>
        <time>2019-07-04T09:22:33Z</time>
      </trkpt>
      <trkpt lat="46.12452" lon="3.41943">
        <ele>255</ele>
        <time>2019-07-04T09:22:33Z</time>
      </trkpt>
      <trkpt lat="46.12452" lon="3.41943">
        <ele>255</ele>
        <time>2019-07-04T09:22:40Z</time>
      </trkpt>
      <trkpt lat="46.12467" lon="3.41951">
        <ele>319.103</ele>
        <time>2019-07-04T09:22:40Z</time>
      </trkpt>
      <trkpt lat="46.1247" lon="3.41952">
        <ele>318.998</ele>
        <time>2019-07-04T09:22:42Z</time>
      </trkpt>
      <trkpt lat="46.12475" lon="3.41955">
        <ele>318.779</ele>
        <time>2019-07-04T09:22:46Z</time>
      </trkpt>
      <trkpt lat="46.12475" lon="3.41955">
        <ele>318.779</ele>
        <time>2019-07-04T09:22:54Z</time>
      </trkpt>
      <trkpt lat="46.12475" lon="3.41955">
        <ele>255.4</ele>
        <time>2019-07-04T09:22:54Z</time>
      </trkpt>
      <trkpt lat="46.12475" lon="3.41955">
        <ele>255.4</ele>
        <time>2019-07-04T09:23:21Z</time>
      </trkpt>
      <trkpt lat="46.12496" lon="3.41988">
        <ele>317.161</ele>
        <time>2019-07-04T09:23:21Z</time>
      </trkpt>
      <trkpt lat="46.12496" lon="3.41988">
        <ele>317.161</ele>
        <time>2019-07-04T09:23:28Z</time>
      </trkpt>
      <trkpt lat="46.12496" lon="3.41988">
        <ele>255.6</ele>
        <time>2019-07-04T09:23:28Z</time>
      </trkpt>
      <trkpt lat="46.12496" lon="3.41988">
        <ele>255.6</ele>
        <time>2019-07-04T09:33:07Z</time>
      </trkpt>
      <trkpt lat="46.12514" lon="3.41956">
        <ele>316.646</ele>
        <time>2019-07-04T09:33:07Z</time>
      </trkpt>
      <trkpt lat="46.12514" lon="3.41956">
        <ele>316.646</ele>
        <time>2019-07-04T09:35:13Z</time>
      </trkpt>
      <trkpt lat="46.1252" lon="3.41959">
        <ele>316.335</ele>
        <time>2019-07-04T09:35:16Z</time>
      </trkpt>
      <trkpt lat="46.12524" lon="3.41964">
        <ele>316.315</ele>
        <time>2019-07-04T09:35:20Z</time>
      </trkpt>
      <trkpt lat="46.12528" lon="3.41968">
        <ele>316.272</ele>
        <time>2019-07-04T09:35:26Z</time>
      </trkpt>
      <trkpt lat="46.12532" lon="3.41971">
        <ele>316.254</ele>
        <time>2019-07-04T09:35:28Z</time>
      </trkpt>
      <trkpt lat="46.12537" lon="3.41969">
        <ele>316.228</ele>
        <time>2019-07-04T09:35:32Z</time>
      </trkpt>
      <trkpt lat="46.12542" lon="3.41967">
        <ele>316.214</ele>
        <time>2019-07-04T09:35:39Z</time>
      </trkpt>
      <trkpt lat="46.12547" lon="3.41967">
        <ele>316.201</ele>
        <time>2019-07-04T09:35:44Z</time>
      </trkpt>
      <trkpt lat="46.12547" lon="3.41967">
        <ele>316.201</ele>
        <time>2019-07-04T09:35:52Z</time>
      </trkpt>
      <trkpt lat="46.12547" lon="3.41967">
        <ele>255</ele>
        <time>2019-07-04T09:35:52Z</time>
      </trkpt>
      <trkpt lat="46.12547" lon="3.41967">
        <ele>255</ele>
        <time>2019-07-04T09:36:02Z</time>
      </trkpt>
      <trkpt lat="46.12552" lon="3.41986">
        <ele>316.235</ele>
        <time>2019-07-04T09:36:02Z</time>
      </trkpt>
      <trkpt lat="46.12551" lon="3.4199">
        <ele>316.251</ele>
        <time>2019-07-04T09:36:05Z</time>
      </trkpt>
      <trkpt lat="46.12553" lon="3.41997">
        <ele>316.289</ele>
        <time>2019-07-04T09:36:10Z</time>
      </trkpt>
      <trkpt lat="46.12554" lon="3.42001">
        <ele>316.317</ele>
        <time>2019-07-04T09:36:12Z</time>
      </trkpt>
      <trkpt lat="46.12556" lon="3.42007">
        <ele>316.399</ele>
        <time>2019-07-04T09:36:17Z</time>
      </trkpt>
      <trkpt lat="46.12558" lon="3.42013">
        <ele>316.471</ele>
        <time>2019-07-04T09:36:21Z</time>
      </trkpt>
      <trkpt lat="46.12558" lon="3.4202">
        <ele>316.549</ele>
        <time>2019-07-04T09:36:26Z</time>
      </trkpt>
      <trkpt lat="46.12558" lon="3.4202">
        <ele>255.3</ele>
        <time>2019-07-04T09:36:33Z</time>
      </trkpt>
      <trkpt lat="46.12558" lon="3.4202">
        <ele>255.3</ele>
        <time>2019-07-04T09:36:48Z</time>
      </trkpt>
      <trkpt lat="46.12578" lon="3.42019">
        <ele>316.803</ele>
        <time>2019-07-04T09:36:48Z</time>
      </trkpt>
      <trkpt lat="46.12578" lon="3.42019">
        <ele>316.803</ele>
        <time>2019-07-04T09:36:53Z</time>
      </trkpt>
      <trkpt lat="46.12578" lon="3.42019">
        <ele>255.9</ele>
        <time>2019-07-04T09:36:53Z</time>
      </trkpt>
      <trkpt lat="46.12578" lon="3.42019">
        <ele>255.9</ele>
        <time>2019-07-04T09:37:05Z</time>
      </trkpt>
      <trkpt lat="46.12586" lon="3.42037">
        <ele>316.96</ele>
        <time>2019-07-04T09:37:05Z</time>
      </trkpt>
      <trkpt lat="46.1259" lon="3.42041">
        <ele>316.984</ele>
        <time>2019-07-04T09:37:08Z</time>
      </trkpt>
      <trkpt lat="46.12596" lon="3.42041">
        <ele>317.012</ele>
        <time>2019-07-04T09:37:12Z</time>
      </trkpt>
      <trkpt lat="46.12602" lon="3.42042">
        <ele>317.032</ele>
        <time>2019-07-04T09:37:17Z</time>
      </trkpt>
      <trkpt lat="46.12606" lon="3.42038">
        <ele>317.064</ele>
        <time>2019-07-04T09:37:23Z</time>
      </trkpt>
      <trkpt lat="46.12608" lon="3.42036">
        <ele>317.086</ele>
        <time>2019-07-04T09:37:27Z</time>
      </trkpt>
      <trkpt lat="46.12612" lon="3.42032">
        <ele>317.094</ele>
        <time>2019-07-04T09:37:29Z</time>
      </trkpt>
      <trkpt lat="46.12617" lon="3.42028">
        <ele>317.097</ele>
        <time>2019-07-04T09:37:30Z</time>
      </trkpt>
      <trkpt lat="46.12617" lon="3.42028">
        <ele>317.097</ele>
        <time>2019-07-04T09:40:16Z</time>
      </trkpt>
      <trkpt lat="46.12622" lon="3.41998">
        <ele>316.322</ele>
        <time>2019-07-04T09:46:11Z</time>
      </trkpt>
      <trkpt lat="46.12622" lon="3.41994">
        <ele>316.284</ele>
        <time>2019-07-04T09:46:24Z</time>
      </trkpt>
      <trkpt lat="46.12628" lon="3.41993">
        <ele>316.252</ele>
        <time>2019-07-04T09:46:32Z</time>
      </trkpt>
      <trkpt lat="46.12631" lon="3.41991">
        <ele>316.23</ele>
        <time>2019-07-04T09:46:43Z</time>
      </trkpt>
      <trkpt lat="46.12635" lon="3.41986">
        <ele>316.182</ele>
        <time>2019-07-04T09:46:58Z</time>
      </trkpt>
      <trkpt lat="46.12637" lon="3.41978">
        <ele>316.159</ele>
        <time>2019-07-04T09:47:02Z</time>
      </trkpt>
      <trkpt lat="46.12639" lon="3.41974">
        <ele>316.148</ele>
        <time>2019-07-04T09:47:04Z</time>
      </trkpt>
      <trkpt lat="46.1264" lon="3.4197">
        <ele>316.137</ele>
        <time>2019-07-04T09:47:06Z</time>
      </trkpt>
      <trkpt lat="46.12643" lon="3.41964">
        <ele>316.116</ele>
        <time>2019-07-04T09:47:10Z</time>
      </trkpt>
      <trkpt lat="46.12644" lon="3.41957">
        <ele>316.075</ele>
        <time>2019-07-04T09:47:17Z</time>
      </trkpt>
      <trkpt lat="46.12644" lon="3.41957">
        <ele>316.075</ele>
        <time>2019-07-04T09:49:56Z</time>
      </trkpt>
      <trkpt lat="46.12643" lon="3.41931">
        <ele>316.199</ele>
        <time>2019-07-04T09:50:00Z</time>
      </trkpt>
      <trkpt lat="46.12642" lon="3.41922">
        <ele>316.29</ele>
        <time>2019-07-04T09:50:08Z</time>
      </trkpt>
      <trkpt lat="46.12643" lon="3.41914">
        <ele>316.367</ele>
        <time>2019-07-04T09:50:16Z</time>
      </trkpt>
      <trkpt lat="46.12645" lon="3.41908">
        <ele>316.425</ele>
        <time>2019-07-04T09:50:25Z</time>
      </trkpt>
      <trkpt lat="46.12643" lon="3.41902">
        <ele>316.474</ele>
        <time>2019-07-04T09:50:32Z</time>
      </trkpt>
      <trkpt lat="46.12642" lon="3.41897">
        <ele>316.5</ele>
        <time>2019-07-04T09:50:36Z</time>
      </trkpt>
      <trkpt lat="46.12641" lon="3.41889">
        <ele>316.526</ele>
        <time>2019-07-04T09:50:40Z</time>
      </trkpt>
      <trkpt lat="46.12639" lon="3.41883">
        <ele>316.542</ele>
        <time>2019-07-04T09:50:44Z</time>
      </trkpt>
      <trkpt lat="46.12638" lon="3.4188">
        <ele>316.558</ele>
        <time>2019-07-04T09:50:54Z</time>
      </trkpt>
      <trkpt lat="46.12638" lon="3.41873">
        <ele>316.569</ele>
        <time>2019-07-04T09:50:58Z</time>
      </trkpt>
      <trkpt lat="46.12638" lon="3.41873">
        <ele>316.569</ele>
        <time>2019-07-04T09:51:06Z</time>
      </trkpt>
      <trkpt lat="46.12638" lon="3.41873">
        <ele>255</ele>
        <time>2019-07-04T09:51:06Z</time>
      </trkpt>
      <trkpt lat="46.12638" lon="3.41873">
        <ele>255</ele>
        <time>2019-07-04T09:51:33Z</time>
      </trkpt>
      <trkpt lat="46.12636" lon="3.41862">
        <ele>316.77</ele>
        <time>2019-07-04T09:53:29Z</time>
      </trkpt>
      <trkpt lat="46.12639" lon="3.41857">
        <ele>316.744</ele>
        <time>2019-07-04T09:53:39Z</time>
      </trkpt>
      <trkpt lat="46.12644" lon="3.41855">
        <ele>316.686</ele>
        <time>2019-07-04T09:53:47Z</time>
      </trkpt>
      <trkpt lat="46.12644" lon="3.41855">
        <ele>316.686</ele>
        <time>2019-07-04T09:55:56Z</time>
      </trkpt>
      <trkpt lat="46.1265" lon="3.41864">
        <ele>315.443</ele>
        <time>2019-07-04T09:56:30Z</time>
      </trkpt>
      <trkpt lat="46.12656" lon="3.41853">
        <ele>315.248</ele>
        <time>2019-07-04T09:56:47Z</time>
      </trkpt>
      <trkpt lat="46.12661" lon="3.4185">
        <ele>315.18</ele>
        <time>2019-07-04T09:56:54Z</time>
      </trkpt>
      <trkpt lat="46.12665" lon="3.41849">
        <ele>315.143</ele>
        <time>2019-07-04T09:56:58Z</time>
      </trkpt>
      <trkpt lat="46.12665" lon="3.41849">
        <ele>315.143</ele>
        <time>2019-07-04T09:57:06Z</time>
      </trkpt>
      <trkpt lat="46.12665" lon="3.41849">
        <ele>253.5</ele>
        <time>2019-07-04T09:57:06Z</time>
      </trkpt>
      <trkpt lat="46.12665" lon="3.41849">
        <ele>253.5</ele>
        <time>2019-07-04T09:57:50Z</time>
      </trkpt>
      <trkpt lat="46.12674" lon="3.41887">
        <ele>314.738</ele>
        <time>2019-07-04T09:57:50Z</time>
      </trkpt>
      <trkpt lat="46.1267" lon="3.41891">
        <ele>314.703</ele>
        <time>2019-07-04T09:57:53Z</time>
      </trkpt>
      <trkpt lat="46.12665" lon="3.41889">
        <ele>314.699</ele>
        <time>2019-07-04T09:57:57Z</time>
      </trkpt>
      <trkpt lat="46.12661" lon="3.41892">
        <ele>314.695</ele>
        <time>2019-07-04T09:58:01Z</time>
      </trkpt>
      <trkpt lat="46.12658" lon="3.41895">
        <ele>314.691</ele>
        <time>2019-07-04T09:58:04Z</time>
      </trkpt>
      <trkpt lat="46.12658" lon="3.41895">
        <ele>255.7</ele>
        <time>2019-07-04T09:58:11Z</time>
      </trkpt>
      <trkpt lat="46.12658" lon="3.41895">
        <ele>255.7</ele>
        <time>2019-07-04T09:58:51Z</time>
      </trkpt>
      <trkpt lat="46.12675" lon="3.41889">
        <ele>314.609</ele>
        <time>2019-07-04T09:58:58Z</time>
      </trkpt>
      <trkpt lat="46.12675" lon="3.41881">
        <ele>314.608</ele>
        <time>2019-07-04T09:59:03Z</time>
      </trkpt>
      <trkpt lat="46.12672" lon="3.41872">
        <ele>314.608</ele>
        <time>2019-07-04T09:59:06Z</time>
      </trkpt>
      <trkpt lat="46.12655" lon="3.41885">
        <ele>314.607</ele>
        <time>2019-07-04T09:59:10Z</time>
      </trkpt>
      <trkpt lat="46.12653" lon="3.41887">
        <ele>314.606</ele>
        <time>2019-07-04T09:59:11Z</time>
      </trkpt>
      <trkpt lat="46.12653" lon="3.41887">
        <ele>255.4</ele>
        <time>2019-07-04T09:59:17Z</time>
      </trkpt>
      <trkpt lat="46.12653" lon="3.41887">
        <ele>255.4</ele>
        <time>2019-07-04T09:59:20Z</time>
      </trkpt>
      <trkpt lat="46.12645" lon="3.41887">
        <ele>314.569</ele>
        <time>2019-07-04T09:59:20Z</time>
      </trkpt>
      <trkpt lat="46.12645" lon="3.41887">
        <ele>314.569</ele>
        <time>2019-07-04T09:59:25Z</time>
      </trkpt>
      <trkpt lat="46.12645" lon="3.41887">
        <ele>255.2</ele>
        <time>2019-07-04T09:59:25Z</time>
      </trkpt>
      <trkpt lat="46.12645" lon="3.41887">
        <ele>255.2</ele>
        <time>2019-07-04T09:59:39Z</time>
      </trkpt>
      <trkpt lat="46.12642" lon="3.4187">
        <ele>314.562</ele>
        <time>2019-07-04T09:59:39Z</time>
      </trkpt>
      <trkpt lat="46.12637" lon="3.41867">
        <ele>314.564</ele>
        <time>2019-07-04T09:59:43Z</time>
      </trkpt>
      <trkpt lat="46.12632" lon="3.41868">
        <ele>314.569</ele>
        <time>2019-07-04T09:59:47Z</time>
      </trkpt>
      <trkpt lat="46.12627" lon="3.41864">
        <ele>314.574</ele>
        <time>2019-07-04T09:59:51Z</time>
      </trkpt>
      <trkpt lat="46.12627" lon="3.41864">
        <ele>314.574</ele>
        <time>2019-07-04T09:59:59Z</time>
      </trkpt>
      <trkpt lat="46.12627" lon="3.41864">
        <ele>255</ele>
        <time>2019-07-04T09:59:59Z</time>
      </trkpt>
      <trkpt lat="46.12627" lon="3.41864">
        <ele>255</ele>
        <time>2019-07-04T10:00:16Z</time>
      </trkpt>
      <trkpt lat="46.12643" lon="3.41853">
        <ele>314.765</ele>
        <time>2019-07-04T10:00:16Z</time>
      </trkpt>
      <trkpt lat="46.12644" lon="3.41844">
        <ele>314.83</ele>
        <time>2019-07-04T10:00:23Z</time>
      </trkpt>
      <trkpt lat="46.12643" lon="3.41838">
        <ele>314.886</ele>
        <time>2019-07-04T10:00:29Z</time>
      </trkpt>
      <trkpt lat="46.12643" lon="3.41833">
        <ele>314.913</ele>
        <time>2019-07-04T10:00:32Z</time>
      </trkpt>
      <trkpt lat="46.12642" lon="3.41828">
        <ele>314.939</ele>
        <time>2019-07-04T10:00:35Z</time>
      </trkpt>
      <trkpt lat="46.12643" lon="3.41821">
        <ele>314.962</ele>
        <time>2019-07-04T10:00:38Z</time>
      </trkpt>
      <trkpt lat="46.12645" lon="3.41814">
        <ele>314.993</ele>
        <time>2019-07-04T10:00:43Z</time>
      </trkpt>
      <trkpt lat="46.12646" lon="3.4181">
        <ele>315.002</ele>
        <time>2019-07-04T10:00:45Z</time>
      </trkpt>
      <trkpt lat="46.12646" lon="3.41802">
        <ele>315.018</ele>
        <time>2019-07-04T10:00:51Z</time>
      </trkpt>
      <trkpt lat="46.12645" lon="3.41795">
        <ele>315.044</ele>
        <time>2019-07-04T10:00:56Z</time>
      </trkpt>
      <trkpt lat="46.12644" lon="3.4179">
        <ele>315.055</ele>
        <time>2019-07-04T10:00:58Z</time>
      </trkpt>
      <trkpt lat="46.12641" lon="3.41785">
        <ele>315.064</ele>
        <time>2019-07-04T10:01:04Z</time>
      </trkpt>
      <trkpt lat="46.12639" lon="3.41778">
        <ele>315.053</ele>
        <time>2019-07-04T10:01:11Z</time>
      </trkpt>
      <trkpt lat="46.12639" lon="3.41774">
        <ele>315.031</ele>
        <time>2019-07-04T10:01:14Z</time>
      </trkpt>
      <trkpt lat="46.12636" lon="3.41766">
        <ele>314.978</ele>
        <time>2019-07-04T10:01:19Z</time>
      </trkpt>
      <trkpt lat="46.12636" lon="3.41758">
        <ele>314.922</ele>
        <time>2019-07-04T10:01:22Z</time>
      </trkpt>
      <trkpt lat="46.12636" lon="3.41758">
        <ele>314.922</ele>
        <time>2019-07-04T10:01:27Z</time>
      </trkpt>
      <trkpt lat="46.12636" lon="3.41758">
        <ele>254</ele>
        <time>2019-07-04T10:01:27Z</time>
      </trkpt>
      <trkpt lat="46.12636" lon="3.41758">
        <ele>254</ele>
        <time>2019-07-04T10:01:49Z</time>
      </trkpt>
      <trkpt lat="46.12633" lon="3.41724">
        <ele>314.443</ele>
        <time>2019-07-04T10:01:49Z</time>
      </trkpt>
      <trkpt lat="46.12633" lon="3.41715">
        <ele>314.438</ele>
        <time>2019-07-04T10:01:54Z</time>
      </trkpt>
      <trkpt lat="46.12633" lon="3.41709">
        <ele>314.443</ele>
        <time>2019-07-04T10:01:56Z</time>
      </trkpt>
      <trkpt lat="46.12635" lon="3.41703">
        <ele>314.458</ele>
        <time>2019-07-04T10:02:00Z</time>
      </trkpt>
      <trkpt lat="46.12633" lon="3.41697">
        <ele>314.491</ele>
        <time>2019-07-04T10:02:06Z</time>
      </trkpt>
      <trkpt lat="46.12631" lon="3.41691">
        <ele>314.496</ele>
        <time>2019-07-04T10:02:12Z</time>
      </trkpt>
      <trkpt lat="46.12632" lon="3.41683">
        <ele>314.483</ele>
        <time>2019-07-04T10:02:16Z</time>
      </trkpt>
      <trkpt lat="46.12632" lon="3.41678">
        <ele>314.469</ele>
        <time>2019-07-04T10:02:19Z</time>
      </trkpt>
      <trkpt lat="46.12631" lon="3.4167">
        <ele>314.441</ele>
        <time>2019-07-04T10:02:23Z</time>
      </trkpt>
      <trkpt lat="46.12631" lon="3.41665">
        <ele>314.417</ele>
        <time>2019-07-04T10:02:26Z</time>
      </trkpt>
      <trkpt lat="46.1263" lon="3.41659">
        <ele>314.374</ele>
        <time>2019-07-04T10:02:32Z</time>
      </trkpt>
      <trkpt lat="46.12629" lon="3.41655">
        <ele>314.357</ele>
        <time>2019-07-04T10:02:36Z</time>
      </trkpt>
      <trkpt lat="46.12629" lon="3.41648">
        <ele>314.362</ele>
        <time>2019-07-04T10:02:43Z</time>
      </trkpt>
      <trkpt lat="46.12628" lon="3.41641">
        <ele>314.372</ele>
        <time>2019-07-04T10:02:49Z</time>
      </trkpt>
      <trkpt lat="46.12627" lon="3.41637">
        <ele>314.382</ele>
        <time>2019-07-04T10:02:52Z</time>
      </trkpt>
      <trkpt lat="46.12626" lon="3.41632">
        <ele>314.399</ele>
        <time>2019-07-04T10:02:55Z</time>
      </trkpt>
      <trkpt lat="46.12626" lon="3.41627">
        <ele>314.417</ele>
        <time>2019-07-04T10:02:58Z</time>
      </trkpt>
      <trkpt lat="46.12623" lon="3.4162">
        <ele>314.454</ele>
        <time>2019-07-04T10:03:03Z</time>
      </trkpt>
      <trkpt lat="46.12621" lon="3.41613">
        <ele>314.5</ele>
        <time>2019-07-04T10:03:09Z</time>
      </trkpt>
      <trkpt lat="46.12617" lon="3.41608">
        <ele>314.526</ele>
        <time>2019-07-04T10:03:20Z</time>
      </trkpt>
      <trkpt lat="46.12614" lon="3.41603">
        <ele>314.615</ele>
        <time>2019-07-04T10:04:02Z</time>
      </trkpt>
      <trkpt lat="46.12612" lon="3.41598">
        <ele>314.666</ele>
        <time>2019-07-04T10:04:16Z</time>
      </trkpt>
      <trkpt lat="46.1261" lon="3.41592">
        <ele>314.97</ele>
        <time>2019-07-04T10:04:59Z</time>
      </trkpt>
      <trkpt lat="46.12608" lon="3.41585">
        <ele>315.012</ele>
        <time>2019-07-04T10:05:07Z</time>
      </trkpt>
      <trkpt lat="46.12608" lon="3.41578">
        <ele>315.025</ele>
        <time>2019-07-04T10:05:11Z</time>
      </trkpt>
      <trkpt lat="46.12608" lon="3.41571">
        <ele>315.013</ele>
        <time>2019-07-04T10:05:15Z</time>
      </trkpt>
      <trkpt lat="46.12609" lon="3.41565">
        <ele>314.989</ele>
        <time>2019-07-04T10:05:19Z</time>
      </trkpt>
      <trkpt lat="46.12609" lon="3.41558">
        <ele>314.959</ele>
        <time>2019-07-04T10:05:23Z</time>
      </trkpt>
      <trkpt lat="46.12609" lon="3.41554">
        <ele>314.936</ele>
        <time>2019-07-04T10:05:26Z</time>
      </trkpt>
      <trkpt lat="46.12609" lon="3.41554">
        <ele>255</ele>
        <time>2019-07-04T10:05:33Z</time>
      </trkpt>
      <trkpt lat="46.12609" lon="3.41554">
        <ele>255</ele>
        <time>2019-07-04T10:05:38Z</time>
      </trkpt>
      <trkpt lat="46.12608" lon="3.41543">
        <ele>314.874</ele>
        <time>2019-07-04T10:05:38Z</time>
      </trkpt>
      <trkpt lat="46.12607" lon="3.41536">
        <ele>314.855</ele>
        <time>2019-07-04T10:05:47Z</time>
      </trkpt>
      <trkpt lat="46.12602" lon="3.41535">
        <ele>314.79</ele>
        <time>2019-07-04T10:05:56Z</time>
      </trkpt>
      <trkpt lat="46.12596" lon="3.41534">
        <ele>314.745</ele>
        <time>2019-07-04T10:06:02Z</time>
      </trkpt>
      <trkpt lat="46.12591" lon="3.41535">
        <ele>314.734</ele>
        <time>2019-07-04T10:06:05Z</time>
      </trkpt>
      <trkpt lat="46.12589" lon="3.41536">
        <ele>314.727</ele>
        <time>2019-07-04T10:06:08Z</time>
      </trkpt>
      <trkpt lat="46.12586" lon="3.41536">
        <ele>314.723</ele>
        <time>2019-07-04T10:06:12Z</time>
      </trkpt>
      <trkpt lat="46.12583" lon="3.4153">
        <ele>314.712</ele>
        <time>2019-07-04T10:06:53Z</time>
      </trkpt>
      <trkpt lat="46.12578" lon="3.41531">
        <ele>314.773</ele>
        <time>2019-07-04T10:08:40Z</time>
      </trkpt>
      <trkpt lat="46.12578" lon="3.41531">
        <ele>314.773</ele>
        <time>2019-07-04T10:11:19Z</time>
      </trkpt>
      <trkpt lat="46.12572" lon="3.41533">
        <ele>315.823</ele>
        <time>2019-07-04T10:11:20Z</time>
      </trkpt>
      <trkpt lat="46.12568" lon="3.41537">
        <ele>315.876</ele>
        <time>2019-07-04T10:11:24Z</time>
      </trkpt>
      <trkpt lat="46.12565" lon="3.41541">
        <ele>315.925</ele>
        <time>2019-07-04T10:11:28Z</time>
      </trkpt>
      <trkpt lat="46.12561" lon="3.41545">
        <ele>315.967</ele>
        <time>2019-07-04T10:11:32Z</time>
      </trkpt>
      <trkpt lat="46.12559" lon="3.41551">
        <ele>316.004</ele>
        <time>2019-07-04T10:11:36Z</time>
      </trkpt>
      <trkpt lat="46.12559" lon="3.41551">
        <ele>254.7</ele>
        <time>2019-07-04T10:11:44Z</time>
      </trkpt>
      <trkpt lat="46.12559" lon="3.41551">
        <ele>254.7</ele>
        <time>2019-07-04T10:11:47Z</time>
      </trkpt>
      <trkpt lat="46.12557" lon="3.41557">
        <ele>316.051</ele>
        <time>2019-07-04T10:11:47Z</time>
      </trkpt>
      <trkpt lat="46.12555" lon="3.4156">
        <ele>316.068</ele>
        <time>2019-07-04T10:11:49Z</time>
      </trkpt>
      <trkpt lat="46.12553" lon="3.41567">
        <ele>316.091</ele>
        <time>2019-07-04T10:11:52Z</time>
      </trkpt>
      <trkpt lat="46.1255" lon="3.41573">
        <ele>316.127</ele>
        <time>2019-07-04T10:11:57Z</time>
      </trkpt>
      <trkpt lat="46.12548" lon="3.41576">
        <ele>316.145</ele>
        <time>2019-07-04T10:12:00Z</time>
      </trkpt>
      <trkpt lat="46.12544" lon="3.41581">
        <ele>316.171</ele>
        <time>2019-07-04T10:12:05Z</time>
      </trkpt>
      <trkpt lat="46.12541" lon="3.41584">
        <ele>316.179</ele>
        <time>2019-07-04T10:12:07Z</time>
      </trkpt>
      <trkpt lat="46.12538" lon="3.4159">
        <ele>316.192</ele>
        <time>2019-07-04T10:12:11Z</time>
      </trkpt>
      <trkpt lat="46.12534" lon="3.41594">
        <ele>316.198</ele>
        <time>2019-07-04T10:12:19Z</time>
      </trkpt>
      <trkpt lat="46.12534" lon="3.41601">
        <ele>316.195</ele>
        <time>2019-07-04T10:12:24Z</time>
      </trkpt>
      <trkpt lat="46.12534" lon="3.41608">
        <ele>316.191</ele>
        <time>2019-07-04T10:12:29Z</time>
      </trkpt>
      <trkpt lat="46.12533" lon="3.41615">
        <ele>316.182</ele>
        <time>2019-07-04T10:12:36Z</time>
      </trkpt>
      <trkpt lat="46.12531" lon="3.41619">
        <ele>316.179</ele>
        <time>2019-07-04T10:12:39Z</time>
      </trkpt>
      <trkpt lat="46.12526" lon="3.41623">
        <ele>316.177</ele>
        <time>2019-07-04T10:12:42Z</time>
      </trkpt>
      <trkpt lat="46.12526" lon="3.41623">
        <ele>316.177</ele>
        <time>2019-07-04T10:12:47Z</time>
      </trkpt>
      <trkpt lat="46.12526" lon="3.41623">
        <ele>253</ele>
        <time>2019-07-04T10:12:47Z</time>
      </trkpt>
      <trkpt lat="46.12526" lon="3.41623">
        <ele>253</ele>
        <time>2019-07-04T10:12:50Z</time>
      </trkpt>
      <trkpt lat="46.12519" lon="3.41626">
        <ele>316.157</ele>
        <time>2019-07-04T10:12:50Z</time>
      </trkpt>
      <trkpt lat="46.12514" lon="3.41626">
        <ele>316.134</ele>
        <time>2019-07-04T10:12:57Z</time>
      </trkpt>
      <trkpt lat="46.12509" lon="3.4163">
        <ele>316.104</ele>
        <time>2019-07-04T10:13:03Z</time>
      </trkpt>
      <trkpt lat="46.12509" lon="3.4163">
        <ele>316.104</ele>
        <time>2019-07-04T10:13:10Z</time>
      </trkpt>
      <trkpt lat="46.12509" lon="3.4163">
        <ele>253</ele>
        <time>2019-07-04T10:13:10Z</time>
      </trkpt>
      <trkpt lat="46.12509" lon="3.4163">
        <ele>253</ele>
        <time>2019-07-04T10:16:11Z</time>
      </trkpt>
      <trkpt lat="46.12513" lon="3.4165">
        <ele>314.951</ele>
        <time>2019-07-04T10:16:11Z</time>
      </trkpt>
      <trkpt lat="46.12516" lon="3.41656">
        <ele>314.839</ele>
        <time>2019-07-04T10:16:15Z</time>
      </trkpt>
      <trkpt lat="46.12518" lon="3.4166">
        <ele>314.786</ele>
        <time>2019-07-04T10:16:17Z</time>
      </trkpt>
      <trkpt lat="46.1252" lon="3.41663">
        <ele>314.736</ele>
        <time>2019-07-04T10:16:19Z</time>
      </trkpt>
      <trkpt lat="46.1252" lon="3.41663">
        <ele>253</ele>
        <time>2019-07-04T10:16:27Z</time>
      </trkpt>
      <trkpt lat="46.1252" lon="3.41663">
        <ele>253</ele>
        <time>2019-07-04T10:17:03Z</time>
      </trkpt>
      <trkpt lat="46.12493" lon="3.41647">
        <ele>314.086</ele>
        <time>2019-07-04T10:17:03Z</time>
      </trkpt>
      <trkpt lat="46.12487" lon="3.41653">
        <ele>313.97</ele>
        <time>2019-07-04T10:17:10Z</time>
      </trkpt>
      <trkpt lat="46.12483" lon="3.41651">
        <ele>313.938</ele>
        <time>2019-07-04T10:17:12Z</time>
      </trkpt>
      <trkpt lat="46.1248" lon="3.4166">
        <ele>313.823</ele>
        <time>2019-07-04T10:17:27Z</time>
      </trkpt>
      <trkpt lat="46.12475" lon="3.4166">
        <ele>313.781</ele>
        <time>2019-07-04T10:17:32Z</time>
      </trkpt>
      <trkpt lat="46.1247" lon="3.41661">
        <ele>313.742</ele>
        <time>2019-07-04T10:17:39Z</time>
      </trkpt>
      <trkpt lat="46.12466" lon="3.41662">
        <ele>313.671</ele>
        <time>2019-07-04T10:17:46Z</time>
      </trkpt>
      <trkpt lat="46.12462" lon="3.4166">
        <ele>313.614</ele>
        <time>2019-07-04T10:17:51Z</time>
      </trkpt>
      <trkpt lat="46.12457" lon="3.41658">
        <ele>313.501</ele>
        <time>2019-07-04T10:18:03Z</time>
      </trkpt>
      <trkpt lat="46.12454" lon="3.41658">
        <ele>313.476</ele>
        <time>2019-07-04T10:18:06Z</time>
      </trkpt>
      <trkpt lat="46.12453" lon="3.41652">
        <ele>313.406</ele>
        <time>2019-07-04T10:18:15Z</time>
      </trkpt>
      <trkpt lat="46.12447" lon="3.41651">
        <ele>313.34</ele>
        <time>2019-07-04T10:19:18Z</time>
      </trkpt>
      <trkpt lat="46.12443" lon="3.41655">
        <ele>313.326</ele>
        <time>2019-07-04T10:19:22Z</time>
      </trkpt>
      <trkpt lat="46.1244" lon="3.41658">
        <ele>313.314</ele>
        <time>2019-07-04T10:19:25Z</time>
      </trkpt>
      <trkpt lat="46.1244" lon="3.41658">
        <ele>313.314</ele>
        <time>2019-07-04T10:19:33Z</time>
      </trkpt>
      <trkpt lat="46.1244" lon="3.41658">
        <ele>253</ele>
        <time>2019-07-04T10:19:33Z</time>
      </trkpt>
      <trkpt lat="46.1244" lon="3.41658">
        <ele>253</ele>
        <time>2019-07-04T10:20:47Z</time>
      </trkpt>
      <trkpt lat="46.12425" lon="3.41661">
        <ele>313.052</ele>
        <time>2019-07-04T10:20:47Z</time>
      </trkpt>
      <trkpt lat="46.1242" lon="3.41665">
        <ele>313</ele>
        <time>2019-07-04T10:20:53Z</time>
      </trkpt>
      <trkpt lat="46.12418" lon="3.41666">
        <ele>312.974</ele>
        <time>2019-07-04T10:20:56Z</time>
      </trkpt>
      <trkpt lat="46.12414" lon="3.41669">
        <ele>312.945</ele>
        <time>2019-07-04T10:21:00Z</time>
      </trkpt>
      <trkpt lat="46.12414" lon="3.41669">
        <ele>253</ele>
        <time>2019-07-04T10:21:07Z</time>
      </trkpt>
      <trkpt lat="46.12414" lon="3.41669">
        <ele>253</ele>
        <time>2019-07-04T10:22:50Z</time>
      </trkpt>
      <trkpt lat="46.12396" lon="3.41673">
        <ele>312.622</ele>
        <time>2019-07-04T10:22:50Z</time>
      </trkpt>
      <trkpt lat="46.12391" lon="3.41674">
        <ele>312.606</ele>
        <time>2019-07-04T10:22:53Z</time>
      </trkpt>
      <trkpt lat="46.12391" lon="3.41674">
        <ele>253</ele>
        <time>2019-07-04T10:23:00Z</time>
      </trkpt>
      <trkpt lat="46.12391" lon="3.41674">
        <ele>253</ele>
        <time>2019-07-04T10:23:07Z</time>
      </trkpt>
      <trkpt lat="46.12386" lon="3.41664">
        <ele>312.457</ele>
        <time>2019-07-04T10:23:07Z</time>
      </trkpt>
      <trkpt lat="46.12381" lon="3.41661">
        <ele>312.352</ele>
        <time>2019-07-04T10:23:12Z</time>
      </trkpt>
      <trkpt lat="46.12376" lon="3.4166">
        <ele>312.258</ele>
        <time>2019-07-04T10:23:17Z</time>
      </trkpt>
      <trkpt lat="46.12373" lon="3.41668">
        <ele>312.192</ele>
        <time>2019-07-04T10:23:21Z</time>
      </trkpt>
      <trkpt lat="46.12372" lon="3.41674">
        <ele>312.149</ele>
        <time>2019-07-04T10:23:26Z</time>
      </trkpt>
      <trkpt lat="46.12369" lon="3.41683">
        <ele>312.112</ele>
        <time>2019-07-04T10:23:29Z</time>
      </trkpt>
      <trkpt lat="46.12367" lon="3.4169">
        <ele>312.08</ele>
        <time>2019-07-04T10:23:32Z</time>
      </trkpt>
      <trkpt lat="46.12364" lon="3.41695">
        <ele>312.043</ele>
        <time>2019-07-04T10:23:36Z</time>
      </trkpt>
      <trkpt lat="46.12364" lon="3.41695">
        <ele>253</ele>
        <time>2019-07-04T10:23:43Z</time>
      </trkpt>
      <trkpt lat="46.12364" lon="3.41695">
        <ele>253</ele>
        <time>2019-07-04T10:24:36Z</time>
      </trkpt>
      <trkpt lat="46.12357" lon="3.41737">
        <ele>311.773</ele>
        <time>2019-07-04T10:24:36Z</time>
      </trkpt>
      <trkpt lat="46.12357" lon="3.41737">
        <ele>311.773</ele>
        <time>2019-07-04T10:24:44Z</time>
      </trkpt>
      <trkpt lat="46.12357" lon="3.41737">
        <ele>253</ele>
        <time>2019-07-04T10:24:44Z</time>
      </trkpt>
      <trkpt lat="46.12357" lon="3.41737">
        <ele>253</ele>
        <time>2019-07-04T10:24:55Z</time>
      </trkpt>
      <trkpt lat="46.1234" lon="3.41739">
        <ele>311.699</ele>
        <time>2019-07-04T10:24:55Z</time>
      </trkpt>
      <trkpt lat="46.12335" lon="3.41748">
        <ele>311.673</ele>
        <time>2019-07-04T10:25:00Z</time>
      </trkpt>
      <trkpt lat="46.12332" lon="3.41753">
        <ele>311.664</ele>
        <time>2019-07-04T10:25:02Z</time>
      </trkpt>
      <trkpt lat="46.12331" lon="3.41759">
        <ele>311.651</ele>
        <time>2019-07-04T10:25:06Z</time>
      </trkpt>
      <trkpt lat="46.12332" lon="3.41767">
        <ele>311.627</ele>
        <time>2019-07-04T10:25:11Z</time>
      </trkpt>
      <trkpt lat="46.12333" lon="3.41774">
        <ele>311.613</ele>
        <time>2019-07-04T10:25:16Z</time>
      </trkpt>
      <trkpt lat="46.12333" lon="3.41774">
        <ele>253</ele>
        <time>2019-07-04T10:25:25Z</time>
      </trkpt>
      <trkpt lat="46.12333" lon="3.41774">
        <ele>253</ele>
        <time>2019-07-04T10:28:01Z</time>
      </trkpt>
      <trkpt lat="46.12319" lon="3.41804">
        <ele>311.661</ele>
        <time>2019-07-04T10:28:01Z</time>
      </trkpt>
      <trkpt lat="46.12322" lon="3.41804">
        <ele>312.338</ele>
        <time>2019-07-04T10:28:54Z</time>
      </trkpt>
      <trkpt lat="46.12326" lon="3.41803">
        <ele>312.396</ele>
        <time>2019-07-04T10:28:58Z</time>
      </trkpt>
      <trkpt lat="46.12331" lon="3.41806">
        <ele>312.434</ele>
        <time>2019-07-04T10:29:01Z</time>
      </trkpt>
      <trkpt lat="46.12337" lon="3.4181">
        <ele>312.458</ele>
        <time>2019-07-04T10:29:03Z</time>
      </trkpt>
      <trkpt lat="46.12341" lon="3.41812">
        <ele>312.481</ele>
        <time>2019-07-04T10:29:05Z</time>
      </trkpt>
      <trkpt lat="46.12344" lon="3.41813">
        <ele>312.502</ele>
        <time>2019-07-04T10:29:07Z</time>
      </trkpt>
      <trkpt lat="46.12349" lon="3.41815">
        <ele>312.532</ele>
        <time>2019-07-04T10:29:10Z</time>
      </trkpt>
      <trkpt lat="46.12355" lon="3.41814">
        <ele>312.569</ele>
        <time>2019-07-04T10:29:14Z</time>
      </trkpt>
      <trkpt lat="46.12357" lon="3.41814">
        <ele>312.585</ele>
        <time>2019-07-04T10:29:16Z</time>
      </trkpt>
      <trkpt lat="46.1236" lon="3.41814">
        <ele>312.607</ele>
        <time>2019-07-04T10:29:19Z</time>
      </trkpt>
      <trkpt lat="46.1236" lon="3.41814">
        <ele>312.607</ele>
        <time>2019-07-04T10:31:33Z</time>
      </trkpt>
      <trkpt lat="46.12365" lon="3.41836">
        <ele>313.251</ele>
        <time>2019-07-04T10:32:42Z</time>
      </trkpt>
      <trkpt lat="46.12366" lon="3.4184">
        <ele>313.307</ele>
        <time>2019-07-04T10:32:50Z</time>
      </trkpt>
      <trkpt lat="46.12367" lon="3.41844">
        <ele>313.322</ele>
        <time>2019-07-04T10:32:54Z</time>
      </trkpt>
      <trkpt lat="46.12367" lon="3.41844">
        <ele>313.322</ele>
        <time>2019-07-04T10:33:01Z</time>
      </trkpt>
      <trkpt lat="46.12367" lon="3.41844">
        <ele>254</ele>
        <time>2019-07-04T10:33:01Z</time>
      </trkpt>
      <trkpt lat="46.12367" lon="3.41844">
        <ele>254</ele>
        <time>2019-07-04T10:33:13Z</time>
      </trkpt>
      <trkpt lat="46.12372" lon="3.41864">
        <ele>313.38</ele>
        <time>2019-07-04T10:33:13Z</time>
      </trkpt>
      <trkpt lat="46.12373" lon="3.4187">
        <ele>313.396</ele>
        <time>2019-07-04T10:33:18Z</time>
      </trkpt>
      <trkpt lat="46.12371" lon="3.41876">
        <ele>313.409</ele>
        <time>2019-07-04T10:33:22Z</time>
      </trkpt>
      <trkpt lat="46.12366" lon="3.41878">
        <ele>313.418</ele>
        <time>2019-07-04T10:33:26Z</time>
      </trkpt>
      <trkpt lat="46.12361" lon="3.41882">
        <ele>313.427</ele>
        <time>2019-07-04T10:33:31Z</time>
      </trkpt>
      <trkpt lat="46.12356" lon="3.41886">
        <ele>313.433</ele>
        <time>2019-07-04T10:33:34Z</time>
      </trkpt>
      <trkpt lat="46.12352" lon="3.41889">
        <ele>313.439</ele>
        <time>2019-07-04T10:33:36Z</time>
      </trkpt>
      <trkpt lat="46.12347" lon="3.41891">
        <ele>313.444</ele>
        <time>2019-07-04T10:33:38Z</time>
      </trkpt>
      <trkpt lat="46.12344" lon="3.41891">
        <ele>313.45</ele>
        <time>2019-07-04T10:33:40Z</time>
      </trkpt>
      <trkpt lat="46.1234" lon="3.41893">
        <ele>313.468</ele>
        <time>2019-07-04T10:33:44Z</time>
      </trkpt>
      <trkpt lat="46.12335" lon="3.41895">
        <ele>313.504</ele>
        <time>2019-07-04T10:33:50Z</time>
      </trkpt>
      <trkpt lat="46.12331" lon="3.41901">
        <ele>313.54</ele>
        <time>2019-07-04T10:33:55Z</time>
      </trkpt>
      <trkpt lat="46.12331" lon="3.41901">
        <ele>254.8</ele>
        <time>2019-07-04T10:34:02Z</time>
      </trkpt>
      <trkpt lat="46.12331" lon="3.41901">
        <ele>254.8</ele>
        <time>2019-07-04T10:34:07Z</time>
      </trkpt>
      <trkpt lat="46.12324" lon="3.41897">
        <ele>313.602</ele>
        <time>2019-07-04T10:34:07Z</time>
      </trkpt>
      <trkpt lat="46.12324" lon="3.41897">
        <ele>313.602</ele>
        <time>2019-07-04T10:34:15Z</time>
      </trkpt>
      <trkpt lat="46.12324" lon="3.41897">
        <ele>254.5</ele>
        <time>2019-07-04T10:34:15Z</time>
      </trkpt>
      <trkpt lat="46.12324" lon="3.41897">
        <ele>254.5</ele>
        <time>2019-07-04T10:34:45Z</time>
      </trkpt>
      <trkpt lat="46.12315" lon="3.41888">
        <ele>313.87</ele>
        <time>2019-07-04T10:36:40Z</time>
      </trkpt>
      <trkpt lat="46.12308" lon="3.41891">
        <ele>313.911</ele>
        <time>2019-07-04T10:36:42Z</time>
      </trkpt>
      <trkpt lat="46.12303" lon="3.41895">
        <ele>314.062</ele>
        <time>2019-07-04T10:36:47Z</time>
      </trkpt>
      <trkpt lat="46.123" lon="3.41898">
        <ele>314.297</ele>
        <time>2019-07-04T10:36:53Z</time>
      </trkpt>
      <trkpt lat="46.12295" lon="3.41901">
        <ele>314.571</ele>
        <time>2019-07-04T10:36:59Z</time>
      </trkpt>
      <trkpt lat="46.12295" lon="3.41901">
        <ele>254.3</ele>
        <time>2019-07-04T10:37:07Z</time>
      </trkpt>
      <trkpt lat="46.12295" lon="3.41901">
        <ele>254.3</ele>
        <time>2019-07-04T10:37:58Z</time>
      </trkpt>
      <trkpt lat="46.12262" lon="3.41915">
        <ele>317.175</ele>
        <time>2019-07-04T10:37:58Z</time>
      </trkpt>
      <trkpt lat="46.12262" lon="3.41915">
        <ele>317.175</ele>
        <time>2019-07-04T10:41:49Z</time>
      </trkpt>
      <trkpt lat="46.12254" lon="3.41923">
        <ele>322.433</ele>
        <time>2019-07-04T10:43:37Z</time>
      </trkpt>
      <trkpt lat="46.1225" lon="3.41926">
        <ele>322.678</ele>
        <time>2019-07-04T10:43:41Z</time>
      </trkpt>
      <trkpt lat="46.12247" lon="3.41928">
        <ele>322.85</ele>
        <time>2019-07-04T10:43:44Z</time>
      </trkpt>
      <trkpt lat="46.12245" lon="3.4193">
        <ele>322.962</ele>
        <time>2019-07-04T10:43:46Z</time>
      </trkpt>
      <trkpt lat="46.12241" lon="3.41932">
        <ele>323.124</ele>
        <time>2019-07-04T10:43:49Z</time>
      </trkpt>
      <trkpt lat="46.12238" lon="3.41934">
        <ele>323.278</ele>
        <time>2019-07-04T10:43:52Z</time>
      </trkpt>
      <trkpt lat="46.12233" lon="3.41934">
        <ele>323.478</ele>
        <time>2019-07-04T10:43:56Z</time>
      </trkpt>
      <trkpt lat="46.12228" lon="3.41936">
        <ele>323.753</ele>
        <time>2019-07-04T10:44:02Z</time>
      </trkpt>
      <trkpt lat="46.12224" lon="3.4194">
        <ele>323.917</ele>
        <time>2019-07-04T10:44:06Z</time>
      </trkpt>
      <trkpt lat="46.12222" lon="3.41942">
        <ele>324.03</ele>
        <time>2019-07-04T10:44:09Z</time>
      </trkpt>
      <trkpt lat="46.12218" lon="3.41946">
        <ele>324.237</ele>
        <time>2019-07-04T10:44:15Z</time>
      </trkpt>
      <trkpt lat="46.12213" lon="3.41943">
        <ele>324.384</ele>
        <time>2019-07-04T10:44:20Z</time>
      </trkpt>
      <trkpt lat="46.12211" lon="3.41936">
        <ele>324.505</ele>
        <time>2019-07-04T10:44:27Z</time>
      </trkpt>
      <trkpt lat="46.12209" lon="3.41932">
        <ele>324.526</ele>
        <time>2019-07-04T10:44:29Z</time>
      </trkpt>
      <trkpt lat="46.12209" lon="3.41932">
        <ele>254.8</ele>
        <time>2019-07-04T10:44:37Z</time>
      </trkpt>
      <trkpt lat="46.12209" lon="3.41932">
        <ele>254.8</ele>
        <time>2019-07-04T10:45:42Z</time>
      </trkpt>
      <trkpt lat="46.12188" lon="3.41936">
        <ele>324.828</ele>
        <time>2019-07-04T10:45:42Z</time>
      </trkpt>
      <trkpt lat="46.12182" lon="3.41939">
        <ele>324.837</ele>
        <time>2019-07-04T10:45:45Z</time>
      </trkpt>
      <trkpt lat="46.12177" lon="3.4194">
        <ele>324.834</ele>
        <time>2019-07-04T10:45:48Z</time>
      </trkpt>
      <trkpt lat="46.12169" lon="3.41934">
        <ele>324.823</ele>
        <time>2019-07-04T10:45:52Z</time>
      </trkpt>
      <trkpt lat="46.12163" lon="3.41935">
        <ele>324.816</ele>
        <time>2019-07-04T10:45:55Z</time>
      </trkpt>
      <trkpt lat="46.12161" lon="3.41936">
        <ele>324.806</ele>
        <time>2019-07-04T10:45:58Z</time>
      </trkpt>
      <trkpt lat="46.12157" lon="3.4194">
        <ele>324.794</ele>
        <time>2019-07-04T10:46:01Z</time>
      </trkpt>
      <trkpt lat="46.12154" lon="3.41946">
        <ele>324.779</ele>
        <time>2019-07-04T10:46:04Z</time>
      </trkpt>
      <trkpt lat="46.12149" lon="3.41945">
        <ele>324.739</ele>
        <time>2019-07-04T10:46:11Z</time>
      </trkpt>
      <trkpt lat="46.12144" lon="3.41948">
        <ele>324.704</ele>
        <time>2019-07-04T10:46:16Z</time>
      </trkpt>
      <trkpt lat="46.12141" lon="3.41949">
        <ele>324.681</ele>
        <time>2019-07-04T10:46:19Z</time>
      </trkpt>
      <trkpt lat="46.12137" lon="3.41954">
        <ele>324.65</ele>
        <time>2019-07-04T10:46:24Z</time>
      </trkpt>
      <trkpt lat="46.12134" lon="3.41958">
        <ele>324.625</ele>
        <time>2019-07-04T10:46:28Z</time>
      </trkpt>
      <trkpt lat="46.12133" lon="3.41966">
        <ele>324.611</ele>
        <time>2019-07-04T10:46:31Z</time>
      </trkpt>
      <trkpt lat="46.12131" lon="3.41971">
        <ele>324.6</ele>
        <time>2019-07-04T10:46:33Z</time>
      </trkpt>
      <trkpt lat="46.12129" lon="3.41974">
        <ele>324.592</ele>
        <time>2019-07-04T10:46:35Z</time>
      </trkpt>
      <trkpt lat="46.12128" lon="3.41977">
        <ele>324.582</ele>
        <time>2019-07-04T10:46:37Z</time>
      </trkpt>
      <trkpt lat="46.12128" lon="3.41977">
        <ele>255</ele>
        <time>2019-07-04T10:46:45Z</time>
      </trkpt>
      <trkpt lat="46.12128" lon="3.41977">
        <ele>255</ele>
        <time>2019-07-04T10:46:50Z</time>
      </trkpt>
      <trkpt lat="46.1212" lon="3.4198">
        <ele>324.548</ele>
        <time>2019-07-04T10:46:50Z</time>
      </trkpt>
      <trkpt lat="46.12116" lon="3.41985">
        <ele>324.53</ele>
        <time>2019-07-04T10:46:56Z</time>
      </trkpt>
      <trkpt lat="46.12113" lon="3.4199">
        <ele>324.521</ele>
        <time>2019-07-04T10:46:59Z</time>
      </trkpt>
      <trkpt lat="46.12108" lon="3.41993">
        <ele>324.505</ele>
        <time>2019-07-04T10:47:04Z</time>
      </trkpt>
      <trkpt lat="46.12106" lon="3.42">
        <ele>324.486</ele>
        <time>2019-07-04T10:47:12Z</time>
      </trkpt>
      <trkpt lat="46.1211" lon="3.42011">
        <ele>324.475</ele>
        <time>2019-07-04T10:47:14Z</time>
      </trkpt>
      <trkpt lat="46.12113" lon="3.42016">
        <ele>324.47</ele>
        <time>2019-07-04T10:47:15Z</time>
      </trkpt>
      <trkpt lat="46.12116" lon="3.42021">
        <ele>324.458</ele>
        <time>2019-07-04T10:47:17Z</time>
      </trkpt>
      <trkpt lat="46.12118" lon="3.42025">
        <ele>324.447</ele>
        <time>2019-07-04T10:47:19Z</time>
      </trkpt>
      <trkpt lat="46.1212" lon="3.42031">
        <ele>324.423</ele>
        <time>2019-07-04T10:47:23Z</time>
      </trkpt>
      <trkpt lat="46.12121" lon="3.42037">
        <ele>324.391</ele>
        <time>2019-07-04T10:47:28Z</time>
      </trkpt>
      <trkpt lat="46.12124" lon="3.42042">
        <ele>324.373</ele>
        <time>2019-07-04T10:47:32Z</time>
      </trkpt>
      <trkpt lat="46.12124" lon="3.42049">
        <ele>324.319</ele>
        <time>2019-07-04T10:47:39Z</time>
      </trkpt>
      <trkpt lat="46.12121" lon="3.42054">
        <ele>324.293</ele>
        <time>2019-07-04T10:47:42Z</time>
      </trkpt>
      <trkpt lat="46.12116" lon="3.42057">
        <ele>324.262</ele>
        <time>2019-07-04T10:47:46Z</time>
      </trkpt>
      <trkpt lat="46.12113" lon="3.42059">
        <ele>324.219</ele>
        <time>2019-07-04T10:47:53Z</time>
      </trkpt>
      <trkpt lat="46.12113" lon="3.42059">
        <ele>324.219</ele>
        <time>2019-07-04T10:51:11Z</time>
      </trkpt>
      <trkpt lat="46.12106" lon="3.42069">
        <ele>327.015</ele>
        <time>2019-07-04T10:53:50Z</time>
      </trkpt>
      <trkpt lat="46.12108" lon="3.42077">
        <ele>327.376</ele>
        <time>2019-07-04T10:54:00Z</time>
      </trkpt>
      <trkpt lat="46.12111" lon="3.42084">
        <ele>327.564</ele>
        <time>2019-07-04T10:54:04Z</time>
      </trkpt>
      <trkpt lat="46.12112" lon="3.42091">
        <ele>327.726</ele>
        <time>2019-07-04T10:54:08Z</time>
      </trkpt>
      <trkpt lat="46.12115" lon="3.42099">
        <ele>327.863</ele>
        <time>2019-07-04T10:54:12Z</time>
      </trkpt>
      <trkpt lat="46.12116" lon="3.42106">
        <ele>327.958</ele>
        <time>2019-07-04T10:54:15Z</time>
      </trkpt>
      <trkpt lat="46.12119" lon="3.42112">
        <ele>328.085</ele>
        <time>2019-07-04T10:54:19Z</time>
      </trkpt>
      <trkpt lat="46.12119" lon="3.42112">
        <ele>257</ele>
        <time>2019-07-04T10:54:26Z</time>
      </trkpt>
      <trkpt lat="46.12119" lon="3.42112">
        <ele>257</ele>
        <time>2019-07-04T10:55:53Z</time>
      </trkpt>
      <trkpt lat="46.12123" lon="3.42156">
        <ele>328.322</ele>
        <time>2019-07-04T10:55:53Z</time>
      </trkpt>
      <trkpt lat="46.12122" lon="3.42164">
        <ele>328.299</ele>
        <time>2019-07-04T10:55:56Z</time>
      </trkpt>
      <trkpt lat="46.12123" lon="3.42172">
        <ele>328.275</ele>
        <time>2019-07-04T10:55:59Z</time>
      </trkpt>
      <trkpt lat="46.12121" lon="3.4218">
        <ele>328.225</ele>
        <time>2019-07-04T10:56:06Z</time>
      </trkpt>
      <trkpt lat="46.1212" lon="3.42183">
        <ele>328.203</ele>
        <time>2019-07-04T10:56:09Z</time>
      </trkpt>
      <trkpt lat="46.1212" lon="3.42183">
        <ele>261.4</ele>
        <time>2019-07-04T10:56:17Z</time>
      </trkpt>
      <trkpt lat="46.1212" lon="3.42183">
        <ele>261.4</ele>
        <time>2019-07-04T10:56:24Z</time>
      </trkpt>
      <trkpt lat="46.12115" lon="3.42194">
        <ele>328.136</ele>
        <time>2019-07-04T10:56:24Z</time>
      </trkpt>
      <trkpt lat="46.12118" lon="3.42201">
        <ele>328.124</ele>
        <time>2019-07-04T10:56:27Z</time>
      </trkpt>
      <trkpt lat="46.1212" lon="3.4221">
        <ele>328.11</ele>
        <time>2019-07-04T10:56:30Z</time>
      </trkpt>
      <trkpt lat="46.12121" lon="3.42214">
        <ele>328.105</ele>
        <time>2019-07-04T10:56:31Z</time>
      </trkpt>
      <trkpt lat="46.12121" lon="3.42214">
        <ele>328.105</ele>
        <time>2019-07-04T10:56:37Z</time>
      </trkpt>
      <trkpt lat="46.12121" lon="3.42214">
        <ele>261.7</ele>
        <time>2019-07-04T10:56:37Z</time>
      </trkpt>
      <trkpt lat="46.12121" lon="3.42214">
        <ele>261.7</ele>
        <time>2019-07-04T10:56:54Z</time>
      </trkpt>
      <trkpt lat="46.12127" lon="3.42232">
        <ele>327.972</ele>
        <time>2019-07-04T10:56:54Z</time>
      </trkpt>
      <trkpt lat="46.12127" lon="3.42232">
        <ele>327.972</ele>
        <time>2019-07-04T10:58:54Z</time>
      </trkpt>
      <trkpt lat="46.12115" lon="3.42232">
        <ele>327.242</ele>
        <time>2019-07-04T11:05:15Z</time>
      </trkpt>
      <trkpt lat="46.12111" lon="3.42234">
        <ele>327.24</ele>
        <time>2019-07-04T11:05:19Z</time>
      </trkpt>
      <trkpt lat="46.12108" lon="3.42235">
        <ele>327.215</ele>
        <time>2019-07-04T11:05:27Z</time>
      </trkpt>
      <trkpt lat="46.12104" lon="3.42225">
        <ele>327.441</ele>
        <time>2019-07-04T11:05:43Z</time>
      </trkpt>
      <trkpt lat="46.12105" lon="3.42219">
        <ele>327.627</ele>
        <time>2019-07-04T11:06:02Z</time>
      </trkpt>
      <trkpt lat="46.12106" lon="3.42216">
        <ele>327.613</ele>
        <time>2019-07-04T11:06:04Z</time>
      </trkpt>
      <trkpt lat="46.12103" lon="3.42202">
        <ele>327.466</ele>
        <time>2019-07-04T11:06:19Z</time>
      </trkpt>
      <trkpt lat="46.12109" lon="3.42198">
        <ele>326.469</ele>
        <time>2019-07-04T11:07:41Z</time>
      </trkpt>
      <trkpt lat="46.12109" lon="3.42198">
        <ele>326.469</ele>
        <time>2019-07-04T11:10:16Z</time>
      </trkpt>
      <trkpt lat="46.12109" lon="3.4224">
        <ele>326.08</ele>
        <time>2019-07-04T11:12:57Z</time>
      </trkpt>
      <trkpt lat="46.12113" lon="3.42244">
        <ele>326.077</ele>
        <time>2019-07-04T11:13:03Z</time>
      </trkpt>
      <trkpt lat="46.12117" lon="3.42247">
        <ele>326.063</ele>
        <time>2019-07-04T11:13:14Z</time>
      </trkpt>
      <trkpt lat="46.12122" lon="3.42248">
        <ele>325.97</ele>
        <time>2019-07-04T11:13:24Z</time>
      </trkpt>
      <trkpt lat="46.12126" lon="3.42244">
        <ele>326.027</ele>
        <time>2019-07-04T11:13:35Z</time>
      </trkpt>
      <trkpt lat="46.12131" lon="3.42252">
        <ele>325.993</ele>
        <time>2019-07-04T11:13:56Z</time>
      </trkpt>
      <trkpt lat="46.12132" lon="3.42255">
        <ele>326.092</ele>
        <time>2019-07-04T11:14:04Z</time>
      </trkpt>
      <trkpt lat="46.12134" lon="3.42259">
        <ele>326.223</ele>
        <time>2019-07-04T11:14:16Z</time>
      </trkpt>
      <trkpt lat="46.1214" lon="3.42253">
        <ele>331.283</ele>
        <time>2019-07-04T11:17:35Z</time>
      </trkpt>
      <trkpt lat="46.1214" lon="3.42253">
        <ele>331.283</ele>
        <time>2019-07-04T11:19:41Z</time>
      </trkpt>
      <trkpt lat="46.12163" lon="3.42259">
        <ele>333.432</ele>
        <time>2019-07-04T11:19:46Z</time>
      </trkpt>
      <trkpt lat="46.12168" lon="3.42263">
        <ele>333.543</ele>
        <time>2019-07-04T11:19:58Z</time>
      </trkpt>
      <trkpt lat="46.12168" lon="3.42263">
        <ele>333.543</ele>
        <time>2019-07-04T11:22:25Z</time>
      </trkpt>
      <trkpt lat="46.1219" lon="3.42274">
        <ele>332.914</ele>
        <time>2019-07-04T11:22:26Z</time>
      </trkpt>
      <trkpt lat="46.12195" lon="3.42274">
        <ele>332.737</ele>
        <time>2019-07-04T11:22:34Z</time>
      </trkpt>
      <trkpt lat="46.122" lon="3.42277">
        <ele>332.562</ele>
        <time>2019-07-04T11:22:43Z</time>
      </trkpt>
      <trkpt lat="46.12203" lon="3.4228">
        <ele>332.441</ele>
        <time>2019-07-04T11:22:50Z</time>
      </trkpt>
      <trkpt lat="46.12208" lon="3.42283">
        <ele>332.407</ele>
        <time>2019-07-04T11:22:52Z</time>
      </trkpt>
      <trkpt lat="46.12215" lon="3.42288">
        <ele>332.372</ele>
        <time>2019-07-04T11:22:54Z</time>
      </trkpt>
      <trkpt lat="46.12219" lon="3.42293">
        <ele>332.313</ele>
        <time>2019-07-04T11:22:57Z</time>
      </trkpt>
      <trkpt lat="46.12219" lon="3.42293">
        <ele>259.1</ele>
        <time>2019-07-04T11:23:02Z</time>
      </trkpt>
      <trkpt lat="46.12219" lon="3.42293">
        <ele>259.1</ele>
        <time>2019-07-04T11:25:58Z</time>
      </trkpt>
      <trkpt lat="46.12236" lon="3.42296">
        <ele>330.753</ele>
        <time>2019-07-04T11:25:58Z</time>
      </trkpt>
      <trkpt lat="46.1224" lon="3.42292">
        <ele>330.702</ele>
        <time>2019-07-04T11:26:03Z</time>
      </trkpt>
      <trkpt lat="46.12245" lon="3.4229">
        <ele>330.646</ele>
        <time>2019-07-04T11:26:09Z</time>
      </trkpt>
      <trkpt lat="46.12249" lon="3.42286">
        <ele>330.611</ele>
        <time>2019-07-04T11:26:16Z</time>
      </trkpt>
      <trkpt lat="46.12253" lon="3.42284">
        <ele>330.571</ele>
        <time>2019-07-04T11:26:38Z</time>
      </trkpt>
      <trkpt lat="46.12256" lon="3.42284">
        <ele>330.539</ele>
        <time>2019-07-04T11:26:43Z</time>
      </trkpt>
      <trkpt lat="46.12259" lon="3.42277">
        <ele>330.5</ele>
        <time>2019-07-04T11:26:49Z</time>
      </trkpt>
      <trkpt lat="46.12264" lon="3.42275">
        <ele>330.463</ele>
        <time>2019-07-04T11:26:53Z</time>
      </trkpt>
      <trkpt lat="46.12269" lon="3.42272">
        <ele>330.423</ele>
        <time>2019-07-04T11:26:57Z</time>
      </trkpt>
      <trkpt lat="46.12272" lon="3.42269">
        <ele>330.393</ele>
        <time>2019-07-04T11:27:00Z</time>
      </trkpt>
      <trkpt lat="46.12277" lon="3.42266">
        <ele>330.343</ele>
        <time>2019-07-04T11:27:05Z</time>
      </trkpt>
      <trkpt lat="46.12277" lon="3.42266">
        <ele>258.6</ele>
        <time>2019-07-04T11:27:12Z</time>
      </trkpt>
      <trkpt lat="46.12277" lon="3.42266">
        <ele>258.6</ele>
        <time>2019-07-04T11:27:52Z</time>
      </trkpt>
      <trkpt lat="46.12291" lon="3.42251">
        <ele>329.829</ele>
        <time>2019-07-04T11:27:52Z</time>
      </trkpt>
      <trkpt lat="46.12295" lon="3.42246">
        <ele>329.797</ele>
        <time>2019-07-04T11:27:54Z</time>
      </trkpt>
      <trkpt lat="46.12299" lon="3.42241">
        <ele>329.754</ele>
        <time>2019-07-04T11:27:57Z</time>
      </trkpt>
      <trkpt lat="46.12299" lon="3.42241">
        <ele>329.754</ele>
        <time>2019-07-04T11:28:03Z</time>
      </trkpt>
      <trkpt lat="46.12299" lon="3.42241">
        <ele>258.1</ele>
        <time>2019-07-04T11:28:03Z</time>
      </trkpt>
      <trkpt lat="46.12299" lon="3.42241">
        <ele>258.1</ele>
        <time>2019-07-04T11:32:23Z</time>
      </trkpt>
      <trkpt lat="46.12296" lon="3.4221">
        <ele>327.08</ele>
        <time>2019-07-04T11:32:23Z</time>
      </trkpt>
      <trkpt lat="46.12296" lon="3.4221">
        <ele>327.08</ele>
        <time>2019-07-04T11:34:36Z</time>
      </trkpt>
      <trkpt lat="46.12283" lon="3.42175">
        <ele>324.651</ele>
        <time>2019-07-04T11:36:33Z</time>
      </trkpt>
      <trkpt lat="46.12287" lon="3.42169">
        <ele>324.507</ele>
        <time>2019-07-04T11:36:46Z</time>
      </trkpt>
      <trkpt lat="46.12287" lon="3.42169">
        <ele>324.507</ele>
        <time>2019-07-04T11:40:35Z</time>
      </trkpt>
      <trkpt lat="46.12287" lon="3.42177">
        <ele>298.155</ele>
        <time>2019-07-04T12:33:31Z</time>
      </trkpt>
      <trkpt lat="46.12289" lon="3.42183">
        <ele>298.265</ele>
        <time>2019-07-04T12:33:38Z</time>
      </trkpt>
      <trkpt lat="46.12291" lon="3.42188">
        <ele>298.294</ele>
        <time>2019-07-04T12:33:42Z</time>
      </trkpt>
      <trkpt lat="46.12292" lon="3.42191">
        <ele>298.452</ele>
        <time>2019-07-04T12:33:46Z</time>
      </trkpt>
      <trkpt lat="46.12292" lon="3.42191">
        <ele>258</ele>
        <time>2019-07-04T12:33:53Z</time>
      </trkpt>
      <trkpt lat="46.12292" lon="3.42191">
        <ele>258</ele>
        <time>2019-07-04T12:39:32Z</time>
      </trkpt>
      <trkpt lat="46.12296" lon="3.42203">
        <ele>311.125</ele>
        <time>2019-07-04T12:41:02Z</time>
      </trkpt>
      <trkpt lat="46.12295" lon="3.42211">
        <ele>311.253</ele>
        <time>2019-07-04T12:41:05Z</time>
      </trkpt>
      <trkpt lat="46.12295" lon="3.4222">
        <ele>311.856</ele>
        <time>2019-07-04T12:41:18Z</time>
      </trkpt>
      <trkpt lat="46.12291" lon="3.42226">
        <ele>312.042</ele>
        <time>2019-07-04T12:41:22Z</time>
      </trkpt>
      <trkpt lat="46.12291" lon="3.42226">
        <ele>312.042</ele>
        <time>2019-07-04T12:41:29Z</time>
      </trkpt>
      <trkpt lat="46.12291" lon="3.42226">
        <ele>258.4</ele>
        <time>2019-07-04T12:41:29Z</time>
      </trkpt>
      <trkpt lat="46.12291" lon="3.42226">
        <ele>258.4</ele>
        <time>2019-07-04T12:41:55Z</time>
      </trkpt>
      <trkpt lat="46.12278" lon="3.4223">
        <ele>312.97</ele>
        <time>2019-07-04T12:41:55Z</time>
      </trkpt>
      <trkpt lat="46.12274" lon="3.42226">
        <ele>313.092</ele>
        <time>2019-07-04T12:41:59Z</time>
      </trkpt>
      <trkpt lat="46.12269" lon="3.42224">
        <ele>313.234</ele>
        <time>2019-07-04T12:42:04Z</time>
      </trkpt>
      <trkpt lat="46.12266" lon="3.42223">
        <ele>313.342</ele>
        <time>2019-07-04T12:42:08Z</time>
      </trkpt>
      <trkpt lat="46.12261" lon="3.42223">
        <ele>313.419</ele>
        <time>2019-07-04T12:42:11Z</time>
      </trkpt>
      <trkpt lat="46.12257" lon="3.42221">
        <ele>313.54</ele>
        <time>2019-07-04T12:42:16Z</time>
      </trkpt>
      <trkpt lat="46.12254" lon="3.42219">
        <ele>313.586</ele>
        <time>2019-07-04T12:42:18Z</time>
      </trkpt>
      <trkpt lat="46.12252" lon="3.42218">
        <ele>313.653</ele>
        <time>2019-07-04T12:42:21Z</time>
      </trkpt>
      <trkpt lat="46.12246" lon="3.42217">
        <ele>313.759</ele>
        <time>2019-07-04T12:42:26Z</time>
      </trkpt>
      <trkpt lat="46.12243" lon="3.42211">
        <ele>313.842</ele>
        <time>2019-07-04T12:42:30Z</time>
      </trkpt>
      <trkpt lat="46.12242" lon="3.42208">
        <ele>313.904</ele>
        <time>2019-07-04T12:42:33Z</time>
      </trkpt>
      <trkpt lat="46.12239" lon="3.42202">
        <ele>313.994</ele>
        <time>2019-07-04T12:42:37Z</time>
      </trkpt>
      <trkpt lat="46.12234" lon="3.42201">
        <ele>314.088</ele>
        <time>2019-07-04T12:42:41Z</time>
      </trkpt>
      <trkpt lat="46.1223" lon="3.42204">
        <ele>314.176</ele>
        <time>2019-07-04T12:42:45Z</time>
      </trkpt>
      <trkpt lat="46.12225" lon="3.42207">
        <ele>314.289</ele>
        <time>2019-07-04T12:42:50Z</time>
      </trkpt>
      <trkpt lat="46.12221" lon="3.42207">
        <ele>314.382</ele>
        <time>2019-07-04T12:42:54Z</time>
      </trkpt>
      <trkpt lat="46.12218" lon="3.42202">
        <ele>314.499</ele>
        <time>2019-07-04T12:42:59Z</time>
      </trkpt>
      <trkpt lat="46.12212" lon="3.422">
        <ele>314.618</ele>
        <time>2019-07-04T12:43:04Z</time>
      </trkpt>
      <trkpt lat="46.12209" lon="3.42197">
        <ele>314.716</ele>
        <time>2019-07-04T12:43:08Z</time>
      </trkpt>
      <trkpt lat="46.12209" lon="3.42197">
        <ele>259.9</ele>
        <time>2019-07-04T12:43:16Z</time>
      </trkpt>
      <trkpt lat="46.12209" lon="3.42197">
        <ele>259.9</ele>
        <time>2019-07-04T12:43:22Z</time>
      </trkpt>
      <trkpt lat="46.12202" lon="3.42194">
        <ele>314.96</ele>
        <time>2019-07-04T12:43:22Z</time>
      </trkpt>
      <trkpt lat="46.12202" lon="3.42194">
        <ele>314.96</ele>
        <time>2019-07-04T12:43:30Z</time>
      </trkpt>
      <trkpt lat="46.12202" lon="3.42194">
        <ele>260</ele>
        <time>2019-07-04T12:43:30Z</time>
      </trkpt>
      <trkpt lat="46.12202" lon="3.42194">
        <ele>260</ele>
        <time>2019-07-04T12:44:14Z</time>
      </trkpt>
      <trkpt lat="46.12202" lon="3.42194">
        <ele>314.96</ele>
        <time>2019-07-04T12:46:08Z</time>
      </trkpt>
      <trkpt lat="46.122" lon="3.42154">
        <ele>316.896</ele>
        <time>2019-07-04T12:46:09Z</time>
      </trkpt>
      <trkpt lat="46.12197" lon="3.42148">
        <ele>316.913</ele>
        <time>2019-07-04T12:46:14Z</time>
      </trkpt>
      <trkpt lat="46.1219" lon="3.4215">
        <ele>316.936</ele>
        <time>2019-07-04T12:46:17Z</time>
      </trkpt>
      <trkpt lat="46.12184" lon="3.42153">
        <ele>316.942</ele>
        <time>2019-07-04T12:46:19Z</time>
      </trkpt>
      <trkpt lat="46.1218" lon="3.42157">
        <ele>316.944</ele>
        <time>2019-07-04T12:46:20Z</time>
      </trkpt>
      <trkpt lat="46.1218" lon="3.42157">
        <ele>259.2</ele>
        <time>2019-07-04T12:46:37Z</time>
      </trkpt>
      <trkpt lat="46.1218" lon="3.42157">
        <ele>259.2</ele>
        <time>2019-07-04T12:46:41Z</time>
      </trkpt>
      <trkpt lat="46.12183" lon="3.42166">
        <ele>317.986</ele>
        <time>2019-07-04T12:46:52Z</time>
      </trkpt>
      <trkpt lat="46.12181" lon="3.42177">
        <ele>318.105</ele>
        <time>2019-07-04T12:46:55Z</time>
      </trkpt>
      <trkpt lat="46.12181" lon="3.42177">
        <ele>318.105</ele>
        <time>2019-07-04T12:47:02Z</time>
      </trkpt>
      <trkpt lat="46.12181" lon="3.42177">
        <ele>259.5</ele>
        <time>2019-07-04T12:47:02Z</time>
      </trkpt>
      <trkpt lat="46.12181" lon="3.42177">
        <ele>259.5</ele>
        <time>2019-07-04T12:47:20Z</time>
      </trkpt>
      <trkpt lat="46.12201" lon="3.42174">
        <ele>318.388</ele>
        <time>2019-07-04T12:47:20Z</time>
      </trkpt>
      <trkpt lat="46.12206" lon="3.42173">
        <ele>318.378</ele>
        <time>2019-07-04T12:47:23Z</time>
      </trkpt>
      <trkpt lat="46.12213" lon="3.42185">
        <ele>318.16</ele>
        <time>2019-07-04T12:47:29Z</time>
      </trkpt>
      <trkpt lat="46.12213" lon="3.42192">
        <ele>318.151</ele>
        <time>2019-07-04T12:47:31Z</time>
      </trkpt>
      <trkpt lat="46.12208" lon="3.42195">
        <ele>318.114</ele>
        <time>2019-07-04T12:47:35Z</time>
      </trkpt>
      <trkpt lat="46.12204" lon="3.42198">
        <ele>318.072</ele>
        <time>2019-07-04T12:47:38Z</time>
      </trkpt>
      <trkpt lat="46.12204" lon="3.42198">
        <ele>318.072</ele>
        <time>2019-07-04T12:47:46Z</time>
      </trkpt>
      <trkpt lat="46.12204" lon="3.42198">
        <ele>259.9</ele>
        <time>2019-07-04T12:47:46Z</time>
      </trkpt>
      <trkpt lat="46.12204" lon="3.42198">
        <ele>259.9</ele>
        <time>2019-07-04T12:47:53Z</time>
      </trkpt>
      <trkpt lat="46.12181" lon="3.42165">
        <ele>316.671</ele>
        <time>2019-07-04T12:48:28Z</time>
      </trkpt>
      <trkpt lat="46.1218" lon="3.42153">
        <ele>316.669</ele>
        <time>2019-07-04T12:48:30Z</time>
      </trkpt>
      <trkpt lat="46.12191" lon="3.42154">
        <ele>316.632</ele>
        <time>2019-07-04T12:48:35Z</time>
      </trkpt>
      <trkpt lat="46.12191" lon="3.42154">
        <ele>258.7</ele>
        <time>2019-07-04T12:48:41Z</time>
      </trkpt>
      <trkpt lat="46.12191" lon="3.42154">
        <ele>258.7</ele>
        <time>2019-07-04T12:48:51Z</time>
      </trkpt>
      <trkpt lat="46.12167" lon="3.42119">
        <ele>315.305</ele>
        <time>2019-07-04T12:50:52Z</time>
      </trkpt>
      <trkpt lat="46.12184" lon="3.4214">
        <ele>315.354</ele>
        <time>2019-07-04T12:50:56Z</time>
      </trkpt>
      <trkpt lat="46.12194" lon="3.42141">
        <ele>315.361</ele>
        <time>2019-07-04T12:50:57Z</time>
      </trkpt>
      <trkpt lat="46.12199" lon="3.42144">
        <ele>315.456</ele>
        <time>2019-07-04T12:51:00Z</time>
      </trkpt>
      <trkpt lat="46.12202" lon="3.42154">
        <ele>315.65</ele>
        <time>2019-07-04T12:51:02Z</time>
      </trkpt>
      <trkpt lat="46.12204" lon="3.42158">
        <ele>315.793</ele>
        <time>2019-07-04T12:51:03Z</time>
      </trkpt>
      <trkpt lat="46.12208" lon="3.42162">
        <ele>316.674</ele>
        <time>2019-07-04T12:51:10Z</time>
      </trkpt>
      <trkpt lat="46.12208" lon="3.42162">
        <ele>259.3</ele>
        <time>2019-07-04T12:51:18Z</time>
      </trkpt>
      <trkpt lat="46.12208" lon="3.42162">
        <ele>259.3</ele>
        <time>2019-07-04T12:52:39Z</time>
      </trkpt>
      <trkpt lat="46.1222" lon="3.42149">
        <ele>317.08</ele>
        <time>2019-07-04T12:52:39Z</time>
      </trkpt>
      <trkpt lat="46.12225" lon="3.42151">
        <ele>316.683</ele>
        <time>2019-07-04T12:52:43Z</time>
      </trkpt>
      <trkpt lat="46.12231" lon="3.4215">
        <ele>316.216</ele>
        <time>2019-07-04T12:52:48Z</time>
      </trkpt>
      <trkpt lat="46.12237" lon="3.42148">
        <ele>315.863</ele>
        <time>2019-07-04T12:52:52Z</time>
      </trkpt>
      <trkpt lat="46.12241" lon="3.42145">
        <ele>315.537</ele>
        <time>2019-07-04T12:52:56Z</time>
      </trkpt>
      <trkpt lat="46.12244" lon="3.42142">
        <ele>315.308</ele>
        <time>2019-07-04T12:52:59Z</time>
      </trkpt>
      <trkpt lat="46.12248" lon="3.42135">
        <ele>314.921</ele>
        <time>2019-07-04T12:53:04Z</time>
      </trkpt>
      <trkpt lat="46.1225" lon="3.42132">
        <ele>314.507</ele>
        <time>2019-07-04T12:53:09Z</time>
      </trkpt>
      <trkpt lat="46.1225" lon="3.42124">
        <ele>313.97</ele>
        <time>2019-07-04T12:53:15Z</time>
      </trkpt>
      <trkpt lat="46.12251" lon="3.42118">
        <ele>313.507</ele>
        <time>2019-07-04T12:53:22Z</time>
      </trkpt>
      <trkpt lat="46.1224" lon="3.42122">
        <ele>312.38</ele>
        <time>2019-07-04T12:53:38Z</time>
      </trkpt>
      <trkpt lat="46.12237" lon="3.42117">
        <ele>312.153</ele>
        <time>2019-07-04T12:53:41Z</time>
      </trkpt>
      <trkpt lat="46.12232" lon="3.42114">
        <ele>311.867</ele>
        <time>2019-07-04T12:53:45Z</time>
      </trkpt>
      <trkpt lat="46.12227" lon="3.42115">
        <ele>311.445</ele>
        <time>2019-07-04T12:53:51Z</time>
      </trkpt>
      <trkpt lat="46.12221" lon="3.42113">
        <ele>310.989</ele>
        <time>2019-07-04T12:54:00Z</time>
      </trkpt>
      <trkpt lat="46.12231" lon="3.4211">
        <ele>309.914</ele>
        <time>2019-07-04T12:54:26Z</time>
      </trkpt>
      <trkpt lat="46.12236" lon="3.42111">
        <ele>309.777</ele>
        <time>2019-07-04T12:54:30Z</time>
      </trkpt>
      <trkpt lat="46.1224" lon="3.42108">
        <ele>309.608</ele>
        <time>2019-07-04T12:54:35Z</time>
      </trkpt>
      <trkpt lat="46.12243" lon="3.42101">
        <ele>309.455</ele>
        <time>2019-07-04T12:54:40Z</time>
      </trkpt>
      <trkpt lat="46.12243" lon="3.42095">
        <ele>309.29</ele>
        <time>2019-07-04T12:54:46Z</time>
      </trkpt>
      <trkpt lat="46.12243" lon="3.42095">
        <ele>309.29</ele>
        <time>2019-07-04T12:54:54Z</time>
      </trkpt>
      <trkpt lat="46.12243" lon="3.42095">
        <ele>258.1</ele>
        <time>2019-07-04T12:54:54Z</time>
      </trkpt>
      <trkpt lat="46.12243" lon="3.42095">
        <ele>258.1</ele>
        <time>2019-07-04T12:55:31Z</time>
      </trkpt>
      <trkpt lat="46.12275" lon="3.42079">
        <ele>308.507</ele>
        <time>2019-07-04T12:55:31Z</time>
      </trkpt>
      <trkpt lat="46.12279" lon="3.42073">
        <ele>308.467</ele>
        <time>2019-07-04T12:55:34Z</time>
      </trkpt>
      <trkpt lat="46.12284" lon="3.42068">
        <ele>308.434</ele>
        <time>2019-07-04T12:55:36Z</time>
      </trkpt>
      <trkpt lat="46.12289" lon="3.42068">
        <ele>308.399</ele>
        <time>2019-07-04T12:55:38Z</time>
      </trkpt>
      <trkpt lat="46.12294" lon="3.42072">
        <ele>308.302</ele>
        <time>2019-07-04T12:55:43Z</time>
      </trkpt>
      <trkpt lat="46.123" lon="3.42072">
        <ele>308.213</ele>
        <time>2019-07-04T12:55:48Z</time>
      </trkpt>
      <trkpt lat="46.12303" lon="3.42065">
        <ele>308.128</ele>
        <time>2019-07-04T12:55:53Z</time>
      </trkpt>
      <trkpt lat="46.12303" lon="3.42065">
        <ele>257.1</ele>
        <time>2019-07-04T12:56:01Z</time>
      </trkpt>
      <trkpt lat="46.12303" lon="3.42065">
        <ele>257.1</ele>
        <time>2019-07-04T12:56:31Z</time>
      </trkpt>
      <trkpt lat="46.123" lon="3.42025">
        <ele>307.609</ele>
        <time>2019-07-04T12:56:31Z</time>
      </trkpt>
      <trkpt lat="46.12298" lon="3.42016">
        <ele>307.572</ele>
        <time>2019-07-04T12:56:36Z</time>
      </trkpt>
      <trkpt lat="46.12296" lon="3.42012">
        <ele>307.554</ele>
        <time>2019-07-04T12:56:39Z</time>
      </trkpt>
      <trkpt lat="46.12297" lon="3.42005">
        <ele>307.525</ele>
        <time>2019-07-04T12:56:44Z</time>
      </trkpt>
      <trkpt lat="46.12295" lon="3.41998">
        <ele>307.499</ele>
        <time>2019-07-04T12:56:49Z</time>
      </trkpt>
      <trkpt lat="46.12294" lon="3.41991">
        <ele>307.481</ele>
        <time>2019-07-04T12:56:53Z</time>
      </trkpt>
      <trkpt lat="46.12292" lon="3.41985">
        <ele>307.467</ele>
        <time>2019-07-04T12:56:59Z</time>
      </trkpt>
      <trkpt lat="46.12289" lon="3.41979">
        <ele>307.465</ele>
        <time>2019-07-04T12:57:03Z</time>
      </trkpt>
      <trkpt lat="46.12289" lon="3.41972">
        <ele>307.464</ele>
        <time>2019-07-04T12:57:08Z</time>
      </trkpt>
      <trkpt lat="46.12289" lon="3.41965">
        <ele>307.463</ele>
        <time>2019-07-04T12:57:12Z</time>
      </trkpt>
      <trkpt lat="46.12287" lon="3.41958">
        <ele>307.464</ele>
        <time>2019-07-04T12:57:16Z</time>
      </trkpt>
      <trkpt lat="46.12287" lon="3.4195">
        <ele>307.462</ele>
        <time>2019-07-04T12:57:21Z</time>
      </trkpt>
      <trkpt lat="46.12287" lon="3.41947">
        <ele>307.461</ele>
        <time>2019-07-04T12:57:23Z</time>
      </trkpt>
      <trkpt lat="46.12286" lon="3.41939">
        <ele>307.468</ele>
        <time>2019-07-04T12:57:27Z</time>
      </trkpt>
      <trkpt lat="46.12286" lon="3.41931">
        <ele>307.489</ele>
        <time>2019-07-04T12:57:31Z</time>
      </trkpt>
      <trkpt lat="46.12283" lon="3.41925">
        <ele>307.515</ele>
        <time>2019-07-04T12:57:34Z</time>
      </trkpt>
      <trkpt lat="46.12278" lon="3.4192">
        <ele>307.569</ele>
        <time>2019-07-04T12:57:39Z</time>
      </trkpt>
      <trkpt lat="46.12274" lon="3.41916">
        <ele>307.623</ele>
        <time>2019-07-04T12:57:43Z</time>
      </trkpt>
      <trkpt lat="46.12269" lon="3.41912">
        <ele>307.683</ele>
        <time>2019-07-04T12:57:47Z</time>
      </trkpt>
      <trkpt lat="46.12266" lon="3.4191">
        <ele>307.711</ele>
        <time>2019-07-04T12:57:49Z</time>
      </trkpt>
      <trkpt lat="46.12261" lon="3.41908">
        <ele>307.768</ele>
        <time>2019-07-04T12:57:53Z</time>
      </trkpt>
      <trkpt lat="46.12259" lon="3.41907">
        <ele>307.798</ele>
        <time>2019-07-04T12:57:55Z</time>
      </trkpt>
      <trkpt lat="46.12255" lon="3.41901">
        <ele>307.854</ele>
        <time>2019-07-04T12:57:58Z</time>
      </trkpt>
      <trkpt lat="46.12255" lon="3.41893">
        <ele>307.939</ele>
        <time>2019-07-04T12:58:02Z</time>
      </trkpt>
      <trkpt lat="46.12255" lon="3.41886">
        <ele>307.989</ele>
        <time>2019-07-04T12:58:04Z</time>
      </trkpt>
      <trkpt lat="46.12254" lon="3.41879">
        <ele>308.107</ele>
        <time>2019-07-04T12:58:08Z</time>
      </trkpt>
      <trkpt lat="46.12254" lon="3.41879">
        <ele>308.107</ele>
        <time>2019-07-04T12:58:15Z</time>
      </trkpt>
      <trkpt lat="46.12254" lon="3.41879">
        <ele>254</ele>
        <time>2019-07-04T12:58:15Z</time>
      </trkpt>
      <trkpt lat="46.12254" lon="3.41879">
        <ele>254</ele>
        <time>2019-07-04T12:58:24Z</time>
      </trkpt>
      <trkpt lat="46.12241" lon="3.41865">
        <ele>308.782</ele>
        <time>2019-07-04T12:58:24Z</time>
      </trkpt>
      <trkpt lat="46.12237" lon="3.41861">
        <ele>308.911</ele>
        <time>2019-07-04T12:58:27Z</time>
      </trkpt>
      <trkpt lat="46.12233" lon="3.41859">
        <ele>308.991</ele>
        <time>2019-07-04T12:58:29Z</time>
      </trkpt>
      <trkpt lat="46.12227" lon="3.41854">
        <ele>309.153</ele>
        <time>2019-07-04T12:58:33Z</time>
      </trkpt>
      <trkpt lat="46.12224" lon="3.41852">
        <ele>309.274</ele>
        <time>2019-07-04T12:58:36Z</time>
      </trkpt>
      <trkpt lat="46.12221" lon="3.4185">
        <ele>309.45</ele>
        <time>2019-07-04T12:58:40Z</time>
      </trkpt>
      <trkpt lat="46.12219" lon="3.41844">
        <ele>309.626</ele>
        <time>2019-07-04T12:58:44Z</time>
      </trkpt>
      <trkpt lat="46.12216" lon="3.41838">
        <ele>309.812</ele>
        <time>2019-07-04T12:58:49Z</time>
      </trkpt>
      <trkpt lat="46.12211" lon="3.41832">
        <ele>309.998</ele>
        <time>2019-07-04T12:58:54Z</time>
      </trkpt>
      <trkpt lat="46.12207" lon="3.41824">
        <ele>310.122</ele>
        <time>2019-07-04T12:58:58Z</time>
      </trkpt>
      <trkpt lat="46.12207" lon="3.41817">
        <ele>310.17</ele>
        <time>2019-07-04T12:59:00Z</time>
      </trkpt>
      <trkpt lat="46.12207" lon="3.41813">
        <ele>310.192</ele>
        <time>2019-07-04T12:59:01Z</time>
      </trkpt>
      <trkpt lat="46.12209" lon="3.41806">
        <ele>310.274</ele>
        <time>2019-07-04T12:59:04Z</time>
      </trkpt>
      <trkpt lat="46.12214" lon="3.41798">
        <ele>310.388</ele>
        <time>2019-07-04T12:59:07Z</time>
      </trkpt>
      <trkpt lat="46.12217" lon="3.41791">
        <ele>310.434</ele>
        <time>2019-07-04T12:59:09Z</time>
      </trkpt>
      <trkpt lat="46.1222" lon="3.41786">
        <ele>310.645</ele>
        <time>2019-07-04T12:59:14Z</time>
      </trkpt>
      <trkpt lat="46.12221" lon="3.41779">
        <ele>311.005</ele>
        <time>2019-07-04T12:59:20Z</time>
      </trkpt>
      <trkpt lat="46.12225" lon="3.41774">
        <ele>311.257</ele>
        <time>2019-07-04T12:59:24Z</time>
      </trkpt>
      <trkpt lat="46.12229" lon="3.41772">
        <ele>311.454</ele>
        <time>2019-07-04T12:59:27Z</time>
      </trkpt>
      <trkpt lat="46.12232" lon="3.4177">
        <ele>311.652</ele>
        <time>2019-07-04T12:59:30Z</time>
      </trkpt>
      <trkpt lat="46.12236" lon="3.41768">
        <ele>311.851</ele>
        <time>2019-07-04T12:59:33Z</time>
      </trkpt>
      <trkpt lat="46.12236" lon="3.41768">
        <ele>254</ele>
        <time>2019-07-04T12:59:40Z</time>
      </trkpt>
      <trkpt lat="46.12236" lon="3.41768">
        <ele>254</ele>
        <time>2019-07-04T13:01:45Z</time>
      </trkpt>
      <trkpt lat="46.12244" lon="3.41735">
        <ele>314.322</ele>
        <time>2019-07-04T13:01:45Z</time>
      </trkpt>
      <trkpt lat="46.12241" lon="3.41717">
        <ele>314.505</ele>
        <time>2019-07-04T13:01:49Z</time>
      </trkpt>
      <trkpt lat="46.12241" lon="3.41712">
        <ele>314.585</ele>
        <time>2019-07-04T13:01:51Z</time>
      </trkpt>
      <trkpt lat="46.1224" lon="3.41704">
        <ele>314.829</ele>
        <time>2019-07-04T13:01:58Z</time>
      </trkpt>
      <trkpt lat="46.12239" lon="3.417">
        <ele>314.901</ele>
        <time>2019-07-04T13:02:00Z</time>
      </trkpt>
      <trkpt lat="46.12238" lon="3.41693">
        <ele>315.011</ele>
        <time>2019-07-04T13:02:03Z</time>
      </trkpt>
      <trkpt lat="46.12236" lon="3.41687">
        <ele>315.109</ele>
        <time>2019-07-04T13:02:06Z</time>
      </trkpt>
      <trkpt lat="46.12236" lon="3.4168">
        <ele>315.194</ele>
        <time>2019-07-04T13:02:09Z</time>
      </trkpt>
      <trkpt lat="46.12235" lon="3.41673">
        <ele>315.27</ele>
        <time>2019-07-04T13:02:13Z</time>
      </trkpt>
      <trkpt lat="46.12234" lon="3.41669">
        <ele>315.294</ele>
        <time>2019-07-04T13:02:15Z</time>
      </trkpt>
      <trkpt lat="46.12233" lon="3.41663">
        <ele>315.328</ele>
        <time>2019-07-04T13:02:19Z</time>
      </trkpt>
      <trkpt lat="46.12233" lon="3.4166">
        <ele>315.335</ele>
        <time>2019-07-04T13:02:21Z</time>
      </trkpt>
      <trkpt lat="46.12233" lon="3.41653">
        <ele>315.34</ele>
        <time>2019-07-04T13:02:28Z</time>
      </trkpt>
      <trkpt lat="46.12233" lon="3.41653">
        <ele>254.6</ele>
        <time>2019-07-04T13:02:36Z</time>
      </trkpt>
      <trkpt lat="46.12233" lon="3.41653">
        <ele>254.6</ele>
        <time>2019-07-04T13:02:41Z</time>
      </trkpt>
      <trkpt lat="46.12232" lon="3.41645">
        <ele>315.168</ele>
        <time>2019-07-04T13:02:41Z</time>
      </trkpt>
      <trkpt lat="46.12228" lon="3.41641">
        <ele>315.06</ele>
        <time>2019-07-04T13:02:45Z</time>
      </trkpt>
      <trkpt lat="46.12224" lon="3.41642">
        <ele>314.894</ele>
        <time>2019-07-04T13:02:51Z</time>
      </trkpt>
      <trkpt lat="46.12221" lon="3.41642">
        <ele>314.679</ele>
        <time>2019-07-04T13:02:57Z</time>
      </trkpt>
      <trkpt lat="46.12218" lon="3.41649">
        <ele>314.261</ele>
        <time>2019-07-04T13:03:13Z</time>
      </trkpt>
      <trkpt lat="46.12216" lon="3.41653">
        <ele>314.182</ele>
        <time>2019-07-04T13:03:15Z</time>
      </trkpt>
      <trkpt lat="46.12211" lon="3.41655">
        <ele>313.972</ele>
        <time>2019-07-04T13:03:20Z</time>
      </trkpt>
      <trkpt lat="46.12207" lon="3.41658">
        <ele>313.78</ele>
        <time>2019-07-04T13:03:24Z</time>
      </trkpt>
      <trkpt lat="46.12202" lon="3.41658">
        <ele>313.552</ele>
        <time>2019-07-04T13:03:28Z</time>
      </trkpt>
      <trkpt lat="46.12198" lon="3.41661">
        <ele>313.283</ele>
        <time>2019-07-04T13:03:32Z</time>
      </trkpt>
      <trkpt lat="46.12195" lon="3.41663">
        <ele>313.067</ele>
        <time>2019-07-04T13:03:35Z</time>
      </trkpt>
      <trkpt lat="46.12189" lon="3.41664">
        <ele>312.721</ele>
        <time>2019-07-04T13:03:40Z</time>
      </trkpt>
      <trkpt lat="46.12186" lon="3.41664">
        <ele>312.586</ele>
        <time>2019-07-04T13:03:42Z</time>
      </trkpt>
      <trkpt lat="46.12181" lon="3.41666">
        <ele>312.336</ele>
        <time>2019-07-04T13:03:46Z</time>
      </trkpt>
      <trkpt lat="46.12177" lon="3.41667">
        <ele>312.136</ele>
        <time>2019-07-04T13:03:50Z</time>
      </trkpt>
      <trkpt lat="46.12172" lon="3.4167">
        <ele>311.97</ele>
        <time>2019-07-04T13:03:54Z</time>
      </trkpt>
      <trkpt lat="46.12168" lon="3.41675">
        <ele>311.797</ele>
        <time>2019-07-04T13:03:59Z</time>
      </trkpt>
      <trkpt lat="46.12165" lon="3.41679">
        <ele>311.729</ele>
        <time>2019-07-04T13:04:01Z</time>
      </trkpt>
      <trkpt lat="46.12163" lon="3.41681">
        <ele>311.662</ele>
        <time>2019-07-04T13:04:03Z</time>
      </trkpt>
      <trkpt lat="46.12158" lon="3.41683">
        <ele>311.571</ele>
        <time>2019-07-04T13:04:06Z</time>
      </trkpt>
      <trkpt lat="46.12156" lon="3.41684">
        <ele>311.492</ele>
        <time>2019-07-04T13:04:09Z</time>
      </trkpt>
      <trkpt lat="46.12153" lon="3.41689">
        <ele>311.36</ele>
        <time>2019-07-04T13:04:14Z</time>
      </trkpt>
      <trkpt lat="46.12149" lon="3.41694">
        <ele>311.224</ele>
        <time>2019-07-04T13:04:20Z</time>
      </trkpt>
      <trkpt lat="46.12146" lon="3.41701">
        <ele>311.141</ele>
        <time>2019-07-04T13:04:24Z</time>
      </trkpt>
      <trkpt lat="46.12141" lon="3.41704">
        <ele>311.043</ele>
        <time>2019-07-04T13:04:30Z</time>
      </trkpt>
      <trkpt lat="46.12137" lon="3.41707">
        <ele>311.008</ele>
        <time>2019-07-04T13:04:33Z</time>
      </trkpt>
      <trkpt lat="46.12134" lon="3.41709">
        <ele>310.998</ele>
        <time>2019-07-04T13:04:34Z</time>
      </trkpt>
      <trkpt lat="46.1213" lon="3.41711">
        <ele>310.977</ele>
        <time>2019-07-04T13:04:36Z</time>
      </trkpt>
      <trkpt lat="46.12128" lon="3.41712">
        <ele>310.958</ele>
        <time>2019-07-04T13:04:38Z</time>
      </trkpt>
      <trkpt lat="46.12126" lon="3.41713">
        <ele>310.94</ele>
        <time>2019-07-04T13:04:40Z</time>
      </trkpt>
      <trkpt lat="46.12124" lon="3.41715">
        <ele>310.924</ele>
        <time>2019-07-04T13:04:42Z</time>
      </trkpt>
      <trkpt lat="46.12121" lon="3.41716">
        <ele>310.907</ele>
        <time>2019-07-04T13:04:44Z</time>
      </trkpt>
      <trkpt lat="46.12118" lon="3.41722">
        <ele>310.872</ele>
        <time>2019-07-04T13:04:48Z</time>
      </trkpt>
      <trkpt lat="46.12115" lon="3.41728">
        <ele>310.84</ele>
        <time>2019-07-04T13:04:51Z</time>
      </trkpt>
      <trkpt lat="46.12114" lon="3.4173">
        <ele>310.805</ele>
        <time>2019-07-04T13:04:54Z</time>
      </trkpt>
      <trkpt lat="46.12109" lon="3.41732">
        <ele>310.755</ele>
        <time>2019-07-04T13:04:59Z</time>
      </trkpt>
      <trkpt lat="46.12106" lon="3.41736">
        <ele>310.733</ele>
        <time>2019-07-04T13:05:04Z</time>
      </trkpt>
      <trkpt lat="46.12101" lon="3.4174">
        <ele>310.721</ele>
        <time>2019-07-04T13:05:09Z</time>
      </trkpt>
      <trkpt lat="46.12097" lon="3.41745">
        <ele>310.715</ele>
        <time>2019-07-04T13:05:14Z</time>
      </trkpt>
      <trkpt lat="46.12094" lon="3.41751">
        <ele>310.711</ele>
        <time>2019-07-04T13:05:18Z</time>
      </trkpt>
      <trkpt lat="46.12091" lon="3.41756">
        <ele>310.711</ele>
        <time>2019-07-04T13:05:22Z</time>
      </trkpt>
      <trkpt lat="46.12088" lon="3.41761">
        <ele>310.711</ele>
        <time>2019-07-04T13:05:26Z</time>
      </trkpt>
      <trkpt lat="46.12084" lon="3.41765">
        <ele>310.71</ele>
        <time>2019-07-04T13:05:28Z</time>
      </trkpt>
      <trkpt lat="46.1208" lon="3.4177">
        <ele>310.709</ele>
        <time>2019-07-04T13:05:29Z</time>
      </trkpt>
      <trkpt lat="46.12076" lon="3.41774">
        <ele>310.707</ele>
        <time>2019-07-04T13:05:30Z</time>
      </trkpt>
      <trkpt lat="46.12074" lon="3.41779">
        <ele>310.7</ele>
        <time>2019-07-04T13:05:33Z</time>
      </trkpt>
      <trkpt lat="46.12071" lon="3.41784">
        <ele>310.667</ele>
        <time>2019-07-04T13:05:39Z</time>
      </trkpt>
      <trkpt lat="46.12068" lon="3.41788">
        <ele>310.646</ele>
        <time>2019-07-04T13:05:42Z</time>
      </trkpt>
      <trkpt lat="46.12066" lon="3.41791">
        <ele>310.629</ele>
        <time>2019-07-04T13:05:44Z</time>
      </trkpt>
      <trkpt lat="46.12063" lon="3.41796">
        <ele>310.509</ele>
        <time>2019-07-04T13:05:55Z</time>
      </trkpt>
      <trkpt lat="46.12059" lon="3.41801">
        <ele>310.463</ele>
        <time>2019-07-04T13:06:00Z</time>
      </trkpt>
      <trkpt lat="46.12055" lon="3.41805">
        <ele>310.428</ele>
        <time>2019-07-04T13:06:04Z</time>
      </trkpt>
      <trkpt lat="46.12051" lon="3.4181">
        <ele>310.4</ele>
        <time>2019-07-04T13:06:08Z</time>
      </trkpt>
      <trkpt lat="46.12049" lon="3.41812">
        <ele>310.39</ele>
        <time>2019-07-04T13:06:10Z</time>
      </trkpt>
      <trkpt lat="46.12047" lon="3.41818">
        <ele>310.377</ele>
        <time>2019-07-04T13:06:14Z</time>
      </trkpt>
      <trkpt lat="46.12045" lon="3.41824">
        <ele>310.368</ele>
        <time>2019-07-04T13:06:19Z</time>
      </trkpt>
      <trkpt lat="46.12042" lon="3.4183">
        <ele>310.364</ele>
        <time>2019-07-04T13:06:24Z</time>
      </trkpt>
      <trkpt lat="46.1204" lon="3.41837">
        <ele>310.363</ele>
        <time>2019-07-04T13:06:28Z</time>
      </trkpt>
      <trkpt lat="46.12039" lon="3.41841">
        <ele>310.359</ele>
        <time>2019-07-04T13:06:30Z</time>
      </trkpt>
      <trkpt lat="46.12036" lon="3.41848">
        <ele>310.343</ele>
        <time>2019-07-04T13:06:34Z</time>
      </trkpt>
      <trkpt lat="46.12032" lon="3.41852">
        <ele>310.316</ele>
        <time>2019-07-04T13:06:39Z</time>
      </trkpt>
      <trkpt lat="46.1203" lon="3.41854">
        <ele>310.294</ele>
        <time>2019-07-04T13:06:42Z</time>
      </trkpt>
      <trkpt lat="46.12027" lon="3.4186">
        <ele>310.253</ele>
        <time>2019-07-04T13:06:46Z</time>
      </trkpt>
      <trkpt lat="46.12023" lon="3.41865">
        <ele>310.205</ele>
        <time>2019-07-04T13:06:50Z</time>
      </trkpt>
      <trkpt lat="46.12019" lon="3.41872">
        <ele>310.154</ele>
        <time>2019-07-04T13:06:54Z</time>
      </trkpt>
      <trkpt lat="46.12018" lon="3.41875">
        <ele>310.111</ele>
        <time>2019-07-04T13:06:57Z</time>
      </trkpt>
      <trkpt lat="46.12014" lon="3.41881">
        <ele>310.044</ele>
        <time>2019-07-04T13:07:01Z</time>
      </trkpt>
      <trkpt lat="46.12012" lon="3.41884">
        <ele>310.007</ele>
        <time>2019-07-04T13:07:03Z</time>
      </trkpt>
      <trkpt lat="46.12008" lon="3.41886">
        <ele>309.912</ele>
        <time>2019-07-04T13:07:09Z</time>
      </trkpt>
      <trkpt lat="46.12004" lon="3.41888">
        <ele>309.881</ele>
        <time>2019-07-04T13:07:12Z</time>
      </trkpt>
      <trkpt lat="46.12002" lon="3.41894">
        <ele>309.851</ele>
        <time>2019-07-04T13:07:15Z</time>
      </trkpt>
      <trkpt lat="46.11999" lon="3.41898">
        <ele>309.83</ele>
        <time>2019-07-04T13:07:17Z</time>
      </trkpt>
      <trkpt lat="46.11998" lon="3.41901">
        <ele>309.808</ele>
        <time>2019-07-04T13:07:19Z</time>
      </trkpt>
      <trkpt lat="46.11995" lon="3.41905">
        <ele>309.723</ele>
        <time>2019-07-04T13:07:25Z</time>
      </trkpt>
      <trkpt lat="46.11992" lon="3.41911">
        <ele>309.63</ele>
        <time>2019-07-04T13:07:31Z</time>
      </trkpt>
      <trkpt lat="46.11991" lon="3.41914">
        <ele>309.589</ele>
        <time>2019-07-04T13:07:34Z</time>
      </trkpt>
      <trkpt lat="46.11987" lon="3.41918">
        <ele>309.551</ele>
        <time>2019-07-04T13:07:37Z</time>
      </trkpt>
      <trkpt lat="46.11984" lon="3.41924">
        <ele>309.517</ele>
        <time>2019-07-04T13:07:40Z</time>
      </trkpt>
      <trkpt lat="46.11982" lon="3.41926">
        <ele>309.496</ele>
        <time>2019-07-04T13:07:42Z</time>
      </trkpt>
      <trkpt lat="46.11982" lon="3.41926">
        <ele>255.3</ele>
        <time>2019-07-04T13:07:49Z</time>
      </trkpt>
      <trkpt lat="46.11982" lon="3.41926">
        <ele>255.3</ele>
        <time>2019-07-04T13:07:56Z</time>
      </trkpt>
      <trkpt lat="46.11975" lon="3.41937">
        <ele>309.412</ele>
        <time>2019-07-04T13:07:56Z</time>
      </trkpt>
      <trkpt lat="46.11975" lon="3.41937">
        <ele>309.412</ele>
        <time>2019-07-04T13:08:03Z</time>
      </trkpt>
      <trkpt lat="46.11975" lon="3.41937">
        <ele>255.6</ele>
        <time>2019-07-04T13:08:03Z</time>
      </trkpt>
      <trkpt lat="46.11975" lon="3.41937">
        <ele>255.6</ele>
        <time>2019-07-04T13:08:58Z</time>
      </trkpt>
      <trkpt lat="46.11997" lon="3.41937">
        <ele>309.258</ele>
        <time>2019-07-04T13:08:58Z</time>
      </trkpt>
      <trkpt lat="46.12001" lon="3.41936">
        <ele>309.251</ele>
        <time>2019-07-04T13:08:59Z</time>
      </trkpt>
      <trkpt lat="46.12006" lon="3.41935">
        <ele>309.232</ele>
        <time>2019-07-04T13:09:02Z</time>
      </trkpt>
      <trkpt lat="46.12011" lon="3.41936">
        <ele>309.209</ele>
        <time>2019-07-04T13:09:06Z</time>
      </trkpt>
      <trkpt lat="46.12014" lon="3.41937">
        <ele>309.2</ele>
        <time>2019-07-04T13:09:08Z</time>
      </trkpt>
      <trkpt lat="46.12018" lon="3.41937">
        <ele>309.19</ele>
        <time>2019-07-04T13:09:11Z</time>
      </trkpt>
      <trkpt lat="46.12021" lon="3.41937">
        <ele>309.184</ele>
        <time>2019-07-04T13:09:14Z</time>
      </trkpt>
      <trkpt lat="46.12025" lon="3.41939">
        <ele>309.18</ele>
        <time>2019-07-04T13:09:21Z</time>
      </trkpt>
      <trkpt lat="46.1203" lon="3.41939">
        <ele>309.183</ele>
        <time>2019-07-04T13:09:24Z</time>
      </trkpt>
      <trkpt lat="46.12036" lon="3.41939">
        <ele>309.191</ele>
        <time>2019-07-04T13:09:27Z</time>
      </trkpt>
      <trkpt lat="46.12039" lon="3.41938">
        <ele>309.197</ele>
        <time>2019-07-04T13:09:29Z</time>
      </trkpt>
      <trkpt lat="46.12043" lon="3.41938">
        <ele>309.205</ele>
        <time>2019-07-04T13:09:31Z</time>
      </trkpt>
      <trkpt lat="46.12046" lon="3.41938">
        <ele>309.214</ele>
        <time>2019-07-04T13:09:34Z</time>
      </trkpt>
      <trkpt lat="46.12051" lon="3.4194">
        <ele>309.217</ele>
        <time>2019-07-04T13:09:39Z</time>
      </trkpt>
      <trkpt lat="46.12051" lon="3.4194">
        <ele>309.217</ele>
        <time>2019-07-04T13:09:46Z</time>
      </trkpt>
      <trkpt lat="46.12051" lon="3.4194">
        <ele>255.9</ele>
        <time>2019-07-04T13:09:46Z</time>
      </trkpt>
      <trkpt lat="46.12051" lon="3.4194">
        <ele>255.9</ele>
        <time>2019-07-04T13:09:58Z</time>
      </trkpt>
      <trkpt lat="46.12066" lon="3.41946">
        <ele>309.166</ele>
        <time>2019-07-04T13:09:58Z</time>
      </trkpt>
      <trkpt lat="46.12071" lon="3.41951">
        <ele>309.149</ele>
        <time>2019-07-04T13:10:03Z</time>
      </trkpt>
      <trkpt lat="46.12074" lon="3.41954">
        <ele>309.144</ele>
        <time>2019-07-04T13:10:06Z</time>
      </trkpt>
      <trkpt lat="46.12076" lon="3.41957">
        <ele>309.143</ele>
        <time>2019-07-04T13:10:08Z</time>
      </trkpt>
      <trkpt lat="46.1208" lon="3.41963">
        <ele>309.144</ele>
        <time>2019-07-04T13:10:11Z</time>
      </trkpt>
      <trkpt lat="46.12082" lon="3.41969">
        <ele>309.151</ele>
        <time>2019-07-04T13:10:16Z</time>
      </trkpt>
      <trkpt lat="46.12086" lon="3.41975">
        <ele>309.166</ele>
        <time>2019-07-04T13:10:21Z</time>
      </trkpt>
      <trkpt lat="46.12089" lon="3.41977">
        <ele>309.174</ele>
        <time>2019-07-04T13:10:23Z</time>
      </trkpt>
      <trkpt lat="46.12092" lon="3.4198">
        <ele>309.186</ele>
        <time>2019-07-04T13:10:25Z</time>
      </trkpt>
      <trkpt lat="46.12095" lon="3.41984">
        <ele>309.21</ele>
        <time>2019-07-04T13:10:28Z</time>
      </trkpt>
      <trkpt lat="46.121" lon="3.41987">
        <ele>309.262</ele>
        <time>2019-07-04T13:10:33Z</time>
      </trkpt>
      <trkpt lat="46.12102" lon="3.41989">
        <ele>309.296</ele>
        <time>2019-07-04T13:10:36Z</time>
      </trkpt>
      <trkpt lat="46.12104" lon="3.41995">
        <ele>309.342</ele>
        <time>2019-07-04T13:10:41Z</time>
      </trkpt>
      <trkpt lat="46.12104" lon="3.41995">
        <ele>309.342</ele>
        <time>2019-07-04T13:10:48Z</time>
      </trkpt>
      <trkpt lat="46.12104" lon="3.41995">
        <ele>255</ele>
        <time>2019-07-04T13:10:48Z</time>
      </trkpt>
      <trkpt lat="46.12104" lon="3.41995">
        <ele>255</ele>
        <time>2019-07-04T13:13:16Z</time>
      </trkpt>
      <trkpt lat="46.12097" lon="3.41989">
        <ele>310.239</ele>
        <time>2019-07-04T13:13:26Z</time>
      </trkpt>
      <trkpt lat="46.12095" lon="3.41987">
        <ele>310.307</ele>
        <time>2019-07-04T13:13:29Z</time>
      </trkpt>
      <trkpt lat="46.12091" lon="3.41979">
        <ele>310.389</ele>
        <time>2019-07-04T13:13:33Z</time>
      </trkpt>
      <trkpt lat="46.12087" lon="3.41974">
        <ele>310.428</ele>
        <time>2019-07-04T13:13:35Z</time>
      </trkpt>
      <trkpt lat="46.12085" lon="3.41968">
        <ele>310.463</ele>
        <time>2019-07-04T13:13:37Z</time>
      </trkpt>
      <trkpt lat="46.12082" lon="3.41963">
        <ele>310.508</ele>
        <time>2019-07-04T13:13:40Z</time>
      </trkpt>
      <trkpt lat="46.12079" lon="3.41958">
        <ele>310.548</ele>
        <time>2019-07-04T13:13:43Z</time>
      </trkpt>
      <trkpt lat="46.12075" lon="3.41954">
        <ele>310.621</ele>
        <time>2019-07-04T13:13:50Z</time>
      </trkpt>
      <trkpt lat="46.12073" lon="3.41951">
        <ele>310.637</ele>
        <time>2019-07-04T13:13:52Z</time>
      </trkpt>
      <trkpt lat="46.12069" lon="3.41948">
        <ele>310.681</ele>
        <time>2019-07-04T13:13:58Z</time>
      </trkpt>
      <trkpt lat="46.12066" lon="3.41945">
        <ele>310.694</ele>
        <time>2019-07-04T13:14:00Z</time>
      </trkpt>
      <trkpt lat="46.12063" lon="3.4194">
        <ele>310.713</ele>
        <time>2019-07-04T13:14:03Z</time>
      </trkpt>
      <trkpt lat="46.12062" lon="3.41932">
        <ele>310.738</ele>
        <time>2019-07-04T13:14:07Z</time>
      </trkpt>
      <trkpt lat="46.12065" lon="3.41926">
        <ele>310.767</ele>
        <time>2019-07-04T13:14:11Z</time>
      </trkpt>
      <trkpt lat="46.12067" lon="3.41922">
        <ele>310.799</ele>
        <time>2019-07-04T13:14:15Z</time>
      </trkpt>
      <trkpt lat="46.12067" lon="3.41922">
        <ele>256</ele>
        <time>2019-07-04T13:14:23Z</time>
      </trkpt>
      <trkpt lat="46.12067" lon="3.41922">
        <ele>256</ele>
        <time>2019-07-04T13:14:29Z</time>
      </trkpt>
      <trkpt lat="46.12055" lon="3.41914">
        <ele>310.888</ele>
        <time>2019-07-04T13:14:29Z</time>
      </trkpt>
      <trkpt lat="46.12052" lon="3.41909">
        <ele>310.902</ele>
        <time>2019-07-04T13:14:33Z</time>
      </trkpt>
      <trkpt lat="46.1205" lon="3.41907">
        <ele>310.908</ele>
        <time>2019-07-04T13:14:35Z</time>
      </trkpt>
      <trkpt lat="46.12048" lon="3.41904">
        <ele>310.912</ele>
        <time>2019-07-04T13:14:37Z</time>
      </trkpt>
      <trkpt lat="46.12046" lon="3.41901">
        <ele>310.916</ele>
        <time>2019-07-04T13:14:39Z</time>
      </trkpt>
      <trkpt lat="46.12043" lon="3.41897">
        <ele>310.922</ele>
        <time>2019-07-04T13:14:42Z</time>
      </trkpt>
      <trkpt lat="46.1204" lon="3.41891">
        <ele>310.927</ele>
        <time>2019-07-04T13:14:46Z</time>
      </trkpt>
      <trkpt lat="46.12036" lon="3.41887">
        <ele>310.933</ele>
        <time>2019-07-04T13:14:50Z</time>
      </trkpt>
      <trkpt lat="46.12032" lon="3.41881">
        <ele>310.936</ele>
        <time>2019-07-04T13:14:55Z</time>
      </trkpt>
      <trkpt lat="46.1203" lon="3.41878">
        <ele>310.937</ele>
        <time>2019-07-04T13:14:58Z</time>
      </trkpt>
      <trkpt lat="46.12026" lon="3.41875">
        <ele>310.935</ele>
        <time>2019-07-04T13:15:02Z</time>
      </trkpt>
      <trkpt lat="46.12022" lon="3.41869">
        <ele>310.931</ele>
        <time>2019-07-04T13:15:06Z</time>
      </trkpt>
      <trkpt lat="46.12018" lon="3.41865">
        <ele>310.924</ele>
        <time>2019-07-04T13:15:10Z</time>
      </trkpt>
      <trkpt lat="46.12013" lon="3.41871">
        <ele>310.908</ele>
        <time>2019-07-04T13:15:15Z</time>
      </trkpt>
      <trkpt lat="46.1201" lon="3.41878">
        <ele>310.89</ele>
        <time>2019-07-04T13:15:20Z</time>
      </trkpt>
      <trkpt lat="46.12006" lon="3.41882">
        <ele>310.881</ele>
        <time>2019-07-04T13:15:25Z</time>
      </trkpt>
      <trkpt lat="46.12004" lon="3.41884">
        <ele>310.88</ele>
        <time>2019-07-04T13:15:27Z</time>
      </trkpt>
      <trkpt lat="46.12001" lon="3.41889">
        <ele>310.882</ele>
        <time>2019-07-04T13:15:31Z</time>
      </trkpt>
      <trkpt lat="46.11999" lon="3.41895">
        <ele>310.882</ele>
        <time>2019-07-04T13:15:35Z</time>
      </trkpt>
      <trkpt lat="46.11997" lon="3.41902">
        <ele>310.877</ele>
        <time>2019-07-04T13:15:39Z</time>
      </trkpt>
      <trkpt lat="46.11993" lon="3.41908">
        <ele>310.871</ele>
        <time>2019-07-04T13:15:44Z</time>
      </trkpt>
      <trkpt lat="46.11991" lon="3.41912">
        <ele>310.869</ele>
        <time>2019-07-04T13:15:47Z</time>
      </trkpt>
      <trkpt lat="46.11988" lon="3.41917">
        <ele>310.865</ele>
        <time>2019-07-04T13:15:51Z</time>
      </trkpt>
      <trkpt lat="46.11985" lon="3.41921">
        <ele>310.862</ele>
        <time>2019-07-04T13:15:54Z</time>
      </trkpt>
      <trkpt lat="46.11981" lon="3.41926">
        <ele>310.856</ele>
        <time>2019-07-04T13:15:58Z</time>
      </trkpt>
      <trkpt lat="46.11978" lon="3.41932">
        <ele>310.851</ele>
        <time>2019-07-04T13:16:03Z</time>
      </trkpt>
      <trkpt lat="46.11976" lon="3.41936">
        <ele>310.847</ele>
        <time>2019-07-04T13:16:06Z</time>
      </trkpt>
      <trkpt lat="46.11973" lon="3.41941">
        <ele>310.84</ele>
        <time>2019-07-04T13:16:11Z</time>
      </trkpt>
      <trkpt lat="46.1197" lon="3.41947">
        <ele>310.832</ele>
        <time>2019-07-04T13:16:15Z</time>
      </trkpt>
      <trkpt lat="46.11968" lon="3.41955">
        <ele>310.827</ele>
        <time>2019-07-04T13:16:19Z</time>
      </trkpt>
      <trkpt lat="46.11966" lon="3.4196">
        <ele>310.827</ele>
        <time>2019-07-04T13:16:21Z</time>
      </trkpt>
      <trkpt lat="46.11965" lon="3.41964">
        <ele>310.828</ele>
        <time>2019-07-04T13:16:23Z</time>
      </trkpt>
      <trkpt lat="46.11964" lon="3.41967">
        <ele>310.831</ele>
        <time>2019-07-04T13:16:25Z</time>
      </trkpt>
      <trkpt lat="46.11961" lon="3.41974">
        <ele>310.844</ele>
        <time>2019-07-04T13:16:30Z</time>
      </trkpt>
      <trkpt lat="46.11961" lon="3.4198">
        <ele>310.859</ele>
        <time>2019-07-04T13:16:34Z</time>
      </trkpt>
      <trkpt lat="46.11959" lon="3.41987">
        <ele>310.878</ele>
        <time>2019-07-04T13:16:39Z</time>
      </trkpt>
      <trkpt lat="46.11957" lon="3.41994">
        <ele>310.89</ele>
        <time>2019-07-04T13:16:43Z</time>
      </trkpt>
      <trkpt lat="46.11956" lon="3.41998">
        <ele>310.896</ele>
        <time>2019-07-04T13:16:45Z</time>
      </trkpt>
      <trkpt lat="46.11955" lon="3.42002">
        <ele>310.9</ele>
        <time>2019-07-04T13:16:47Z</time>
      </trkpt>
      <trkpt lat="46.11953" lon="3.42007">
        <ele>310.907</ele>
        <time>2019-07-04T13:16:51Z</time>
      </trkpt>
      <trkpt lat="46.11951" lon="3.42011">
        <ele>310.913</ele>
        <time>2019-07-04T13:16:53Z</time>
      </trkpt>
      <trkpt lat="46.11949" lon="3.42017">
        <ele>310.924</ele>
        <time>2019-07-04T13:16:57Z</time>
      </trkpt>
      <trkpt lat="46.11949" lon="3.42017">
        <ele>255.7</ele>
        <time>2019-07-04T13:17:04Z</time>
      </trkpt>
      <trkpt lat="46.11949" lon="3.42017">
        <ele>255.7</ele>
        <time>2019-07-04T13:17:09Z</time>
      </trkpt>
      <trkpt lat="46.11944" lon="3.42029">
        <ele>310.962</ele>
        <time>2019-07-04T13:17:09Z</time>
      </trkpt>
      <trkpt lat="46.11943" lon="3.42036">
        <ele>310.966</ele>
        <time>2019-07-04T13:17:11Z</time>
      </trkpt>
      <trkpt lat="46.11941" lon="3.42043">
        <ele>310.969</ele>
        <time>2019-07-04T13:17:15Z</time>
      </trkpt>
      <trkpt lat="46.11937" lon="3.42047">
        <ele>310.977</ele>
        <time>2019-07-04T13:17:20Z</time>
      </trkpt>
      <trkpt lat="46.11934" lon="3.42054">
        <ele>310.984</ele>
        <time>2019-07-04T13:17:24Z</time>
      </trkpt>
      <trkpt lat="46.11932" lon="3.42058">
        <ele>310.989</ele>
        <time>2019-07-04T13:17:27Z</time>
      </trkpt>
      <trkpt lat="46.11931" lon="3.42067">
        <ele>310.99</ele>
        <time>2019-07-04T13:17:31Z</time>
      </trkpt>
      <trkpt lat="46.1193" lon="3.42072">
        <ele>310.986</ele>
        <time>2019-07-04T13:17:33Z</time>
      </trkpt>
      <trkpt lat="46.11927" lon="3.42077">
        <ele>310.969</ele>
        <time>2019-07-04T13:17:41Z</time>
      </trkpt>
      <trkpt lat="46.11925" lon="3.42084">
        <ele>310.972</ele>
        <time>2019-07-04T13:17:45Z</time>
      </trkpt>
      <trkpt lat="46.11925" lon="3.4209">
        <ele>310.976</ele>
        <time>2019-07-04T13:17:48Z</time>
      </trkpt>
      <trkpt lat="46.11925" lon="3.42095">
        <ele>310.977</ele>
        <time>2019-07-04T13:17:51Z</time>
      </trkpt>
      <trkpt lat="46.11925" lon="3.42098">
        <ele>310.976</ele>
        <time>2019-07-04T13:17:53Z</time>
      </trkpt>
      <trkpt lat="46.11923" lon="3.42106">
        <ele>310.972</ele>
        <time>2019-07-04T13:17:58Z</time>
      </trkpt>
      <trkpt lat="46.11921" lon="3.42113">
        <ele>310.969</ele>
        <time>2019-07-04T13:18:03Z</time>
      </trkpt>
      <trkpt lat="46.1192" lon="3.42118">
        <ele>310.965</ele>
        <time>2019-07-04T13:18:05Z</time>
      </trkpt>
      <trkpt lat="46.11919" lon="3.42122">
        <ele>310.959</ele>
        <time>2019-07-04T13:18:07Z</time>
      </trkpt>
      <trkpt lat="46.11914" lon="3.42125">
        <ele>310.938</ele>
        <time>2019-07-04T13:18:12Z</time>
      </trkpt>
      <trkpt lat="46.11914" lon="3.42125">
        <ele>255.7</ele>
        <time>2019-07-04T13:18:20Z</time>
      </trkpt>
      <trkpt lat="46.11914" lon="3.42125">
        <ele>255.7</ele>
        <time>2019-07-04T13:18:24Z</time>
      </trkpt>
      <trkpt lat="46.11911" lon="3.42138">
        <ele>310.884</ele>
        <time>2019-07-04T13:18:24Z</time>
      </trkpt>
      <trkpt lat="46.1191" lon="3.42147">
        <ele>310.856</ele>
        <time>2019-07-04T13:18:29Z</time>
      </trkpt>
      <trkpt lat="46.11909" lon="3.4215">
        <ele>310.85</ele>
        <time>2019-07-04T13:18:30Z</time>
      </trkpt>
      <trkpt lat="46.11908" lon="3.42155">
        <ele>310.844</ele>
        <time>2019-07-04T13:18:31Z</time>
      </trkpt>
      <trkpt lat="46.11907" lon="3.42159">
        <ele>310.838</ele>
        <time>2019-07-04T13:18:32Z</time>
      </trkpt>
      <trkpt lat="46.11907" lon="3.42163">
        <ele>310.832</ele>
        <time>2019-07-04T13:18:33Z</time>
      </trkpt>
      <trkpt lat="46.11906" lon="3.42167">
        <ele>310.809</ele>
        <time>2019-07-04T13:18:36Z</time>
      </trkpt>
      <trkpt lat="46.11906" lon="3.42167">
        <ele>310.809</ele>
        <time>2019-07-04T13:18:43Z</time>
      </trkpt>
      <trkpt lat="46.11906" lon="3.42167">
        <ele>255</ele>
        <time>2019-07-04T13:18:43Z</time>
      </trkpt>
      <trkpt lat="46.11906" lon="3.42167">
        <ele>255</ele>
        <time>2019-07-04T13:18:55Z</time>
      </trkpt>
      <trkpt lat="46.11896" lon="3.42184">
        <ele>310.68</ele>
        <time>2019-07-04T13:18:55Z</time>
      </trkpt>
      <trkpt lat="46.11896" lon="3.42184">
        <ele>310.68</ele>
        <time>2019-07-04T13:19:03Z</time>
      </trkpt>
      <trkpt lat="46.11896" lon="3.42184">
        <ele>255.5</ele>
        <time>2019-07-04T13:19:03Z</time>
      </trkpt>
      <trkpt lat="46.11896" lon="3.42184">
        <ele>255.5</ele>
        <time>2019-07-04T13:19:16Z</time>
      </trkpt>
      <trkpt lat="46.11897" lon="3.42201">
        <ele>310.488</ele>
        <time>2019-07-04T13:19:16Z</time>
      </trkpt>
      <trkpt lat="46.11898" lon="3.42208">
        <ele>310.428</ele>
        <time>2019-07-04T13:19:20Z</time>
      </trkpt>
      <trkpt lat="46.11898" lon="3.42212">
        <ele>310.4</ele>
        <time>2019-07-04T13:19:22Z</time>
      </trkpt>
      <trkpt lat="46.11898" lon="3.42212">
        <ele>256.1</ele>
        <time>2019-07-04T13:19:30Z</time>
      </trkpt>
      <trkpt lat="46.11898" lon="3.42212">
        <ele>256.1</ele>
        <time>2019-07-04T13:19:50Z</time>
      </trkpt>
      <trkpt lat="46.11891" lon="3.42231">
        <ele>310.132</ele>
        <time>2019-07-04T13:19:50Z</time>
      </trkpt>
      <trkpt lat="46.11892" lon="3.42239">
        <ele>310.113</ele>
        <time>2019-07-04T13:19:52Z</time>
      </trkpt>
      <trkpt lat="46.11892" lon="3.42243">
        <ele>310.102</ele>
        <time>2019-07-04T13:19:53Z</time>
      </trkpt>
      <trkpt lat="46.11892" lon="3.42243">
        <ele>256.1</ele>
        <time>2019-07-04T13:19:58Z</time>
      </trkpt>
      <trkpt lat="46.11892" lon="3.42243">
        <ele>256.1</ele>
        <time>2019-07-04T13:20:05Z</time>
      </trkpt>
      <trkpt lat="46.11889" lon="3.42253">
        <ele>309.972</ele>
        <time>2019-07-04T13:20:05Z</time>
      </trkpt>
      <trkpt lat="46.11889" lon="3.42253">
        <ele>309.972</ele>
        <time>2019-07-04T13:20:12Z</time>
      </trkpt>
      <trkpt lat="46.11889" lon="3.42253">
        <ele>256</ele>
        <time>2019-07-04T13:20:12Z</time>
      </trkpt>
      <trkpt lat="46.11889" lon="3.42253">
        <ele>256</ele>
        <time>2019-07-04T13:20:27Z</time>
      </trkpt>
      <trkpt lat="46.11884" lon="3.42276">
        <ele>309.797</ele>
        <time>2019-07-04T13:20:27Z</time>
      </trkpt>
      <trkpt lat="46.11882" lon="3.42282">
        <ele>309.773</ele>
        <time>2019-07-04T13:20:31Z</time>
      </trkpt>
      <trkpt lat="46.11881" lon="3.42285">
        <ele>309.756</ele>
        <time>2019-07-04T13:20:34Z</time>
      </trkpt>
      <trkpt lat="46.11879" lon="3.42291">
        <ele>309.719</ele>
        <time>2019-07-04T13:20:41Z</time>
      </trkpt>
      <trkpt lat="46.11879" lon="3.42298">
        <ele>309.7</ele>
        <time>2019-07-04T13:20:45Z</time>
      </trkpt>
      <trkpt lat="46.11878" lon="3.42305">
        <ele>309.686</ele>
        <time>2019-07-04T13:20:48Z</time>
      </trkpt>
      <trkpt lat="46.11877" lon="3.42312">
        <ele>309.67</ele>
        <time>2019-07-04T13:20:52Z</time>
      </trkpt>
      <trkpt lat="46.11875" lon="3.42319">
        <ele>309.647</ele>
        <time>2019-07-04T13:20:58Z</time>
      </trkpt>
      <trkpt lat="46.11874" lon="3.42326">
        <ele>309.641</ele>
        <time>2019-07-04T13:21:00Z</time>
      </trkpt>
      <trkpt lat="46.11873" lon="3.42331">
        <ele>309.634</ele>
        <time>2019-07-04T13:21:02Z</time>
      </trkpt>
      <trkpt lat="46.11872" lon="3.42334">
        <ele>309.628</ele>
        <time>2019-07-04T13:21:04Z</time>
      </trkpt>
      <trkpt lat="46.11871" lon="3.42339">
        <ele>309.617</ele>
        <time>2019-07-04T13:21:08Z</time>
      </trkpt>
      <trkpt lat="46.11869" lon="3.42346">
        <ele>309.601</ele>
        <time>2019-07-04T13:21:14Z</time>
      </trkpt>
      <trkpt lat="46.11867" lon="3.42349">
        <ele>309.596</ele>
        <time>2019-07-04T13:21:16Z</time>
      </trkpt>
      <trkpt lat="46.11867" lon="3.42356">
        <ele>309.586</ele>
        <time>2019-07-04T13:21:20Z</time>
      </trkpt>
      <trkpt lat="46.11867" lon="3.42363">
        <ele>309.579</ele>
        <time>2019-07-04T13:21:23Z</time>
      </trkpt>
      <trkpt lat="46.11865" lon="3.4237">
        <ele>309.568</ele>
        <time>2019-07-04T13:21:28Z</time>
      </trkpt>
      <trkpt lat="46.11865" lon="3.4237">
        <ele>256.7</ele>
        <time>2019-07-04T13:21:33Z</time>
      </trkpt>
      <trkpt lat="46.11865" lon="3.4237">
        <ele>256.7</ele>
        <time>2019-07-04T13:21:39Z</time>
      </trkpt>
      <trkpt lat="46.11863" lon="3.42385">
        <ele>309.547</ele>
        <time>2019-07-04T13:21:39Z</time>
      </trkpt>
      <trkpt lat="46.11862" lon="3.42392">
        <ele>309.54</ele>
        <time>2019-07-04T13:21:43Z</time>
      </trkpt>
      <trkpt lat="46.11862" lon="3.42397">
        <ele>309.537</ele>
        <time>2019-07-04T13:21:45Z</time>
      </trkpt>
      <trkpt lat="46.1186" lon="3.42404">
        <ele>309.529</ele>
        <time>2019-07-04T13:21:50Z</time>
      </trkpt>
      <trkpt lat="46.11859" lon="3.42407">
        <ele>309.526</ele>
        <time>2019-07-04T13:21:52Z</time>
      </trkpt>
      <trkpt lat="46.11858" lon="3.4241">
        <ele>309.524</ele>
        <time>2019-07-04T13:21:54Z</time>
      </trkpt>
      <trkpt lat="46.11858" lon="3.4241">
        <ele>256.7</ele>
        <time>2019-07-04T13:22:02Z</time>
      </trkpt>
      <trkpt lat="46.11858" lon="3.4241">
        <ele>256.7</ele>
        <time>2019-07-04T13:22:05Z</time>
      </trkpt>
      <trkpt lat="46.11856" lon="3.42417">
        <ele>309.522</ele>
        <time>2019-07-04T13:22:05Z</time>
      </trkpt>
      <trkpt lat="46.11856" lon="3.42417">
        <ele>309.522</ele>
        <time>2019-07-04T13:22:13Z</time>
      </trkpt>
      <trkpt lat="46.11856" lon="3.42417">
        <ele>256.4</ele>
        <time>2019-07-04T13:22:13Z</time>
      </trkpt>
      <trkpt lat="46.11856" lon="3.42417">
        <ele>256.4</ele>
        <time>2019-07-04T13:23:14Z</time>
      </trkpt>
      <trkpt lat="46.11845" lon="3.42453">
        <ele>309.446</ele>
        <time>2019-07-04T13:23:14Z</time>
      </trkpt>
      <trkpt lat="46.11845" lon="3.42453">
        <ele>309.446</ele>
        <time>2019-07-04T13:23:21Z</time>
      </trkpt>
      <trkpt lat="46.11845" lon="3.42453">
        <ele>255.5</ele>
        <time>2019-07-04T13:23:21Z</time>
      </trkpt>
      <trkpt lat="46.11845" lon="3.42453">
        <ele>255.5</ele>
        <time>2019-07-04T13:23:31Z</time>
      </trkpt>
      <trkpt lat="46.11838" lon="3.42473">
        <ele>309.423</ele>
        <time>2019-07-04T13:23:31Z</time>
      </trkpt>
      <trkpt lat="46.11834" lon="3.42478">
        <ele>309.419</ele>
        <time>2019-07-04T13:23:35Z</time>
      </trkpt>
      <trkpt lat="46.11832" lon="3.42485">
        <ele>309.415</ele>
        <time>2019-07-04T13:23:39Z</time>
      </trkpt>
      <trkpt lat="46.11832" lon="3.42488">
        <ele>309.413</ele>
        <time>2019-07-04T13:23:41Z</time>
      </trkpt>
      <trkpt lat="46.11828" lon="3.42492">
        <ele>309.411</ele>
        <time>2019-07-04T13:23:44Z</time>
      </trkpt>
      <trkpt lat="46.11826" lon="3.42494">
        <ele>309.407</ele>
        <time>2019-07-04T13:23:49Z</time>
      </trkpt>
      <trkpt lat="46.11824" lon="3.42502">
        <ele>309.404</ele>
        <time>2019-07-04T13:23:55Z</time>
      </trkpt>
      <trkpt lat="46.11825" lon="3.42509">
        <ele>309.403</ele>
        <time>2019-07-04T13:23:58Z</time>
      </trkpt>
      <trkpt lat="46.11823" lon="3.42516">
        <ele>309.401</ele>
        <time>2019-07-04T13:24:02Z</time>
      </trkpt>
      <trkpt lat="46.11821" lon="3.42521">
        <ele>309.4</ele>
        <time>2019-07-04T13:24:04Z</time>
      </trkpt>
      <trkpt lat="46.11819" lon="3.42526">
        <ele>309.399</ele>
        <time>2019-07-04T13:24:06Z</time>
      </trkpt>
      <trkpt lat="46.11816" lon="3.42532">
        <ele>309.396</ele>
        <time>2019-07-04T13:24:10Z</time>
      </trkpt>
      <trkpt lat="46.11814" lon="3.42538">
        <ele>309.394</ele>
        <time>2019-07-04T13:24:13Z</time>
      </trkpt>
      <trkpt lat="46.11812" lon="3.42545">
        <ele>309.392</ele>
        <time>2019-07-04T13:24:16Z</time>
      </trkpt>
      <trkpt lat="46.1181" lon="3.42549">
        <ele>309.389</ele>
        <time>2019-07-04T13:24:19Z</time>
      </trkpt>
      <trkpt lat="46.11809" lon="3.42555">
        <ele>309.385</ele>
        <time>2019-07-04T13:24:24Z</time>
      </trkpt>
      <trkpt lat="46.11808" lon="3.42564">
        <ele>309.382</ele>
        <time>2019-07-04T13:24:28Z</time>
      </trkpt>
      <trkpt lat="46.11808" lon="3.42569">
        <ele>309.38</ele>
        <time>2019-07-04T13:24:30Z</time>
      </trkpt>
      <trkpt lat="46.11807" lon="3.42576">
        <ele>309.376</ele>
        <time>2019-07-04T13:24:34Z</time>
      </trkpt>
      <trkpt lat="46.11807" lon="3.42576">
        <ele>254.8</ele>
        <time>2019-07-04T13:24:41Z</time>
      </trkpt>
      <trkpt lat="46.11807" lon="3.42576">
        <ele>254.8</ele>
        <time>2019-07-04T13:24:45Z</time>
      </trkpt>
      <trkpt lat="46.11803" lon="3.42586">
        <ele>309.369</ele>
        <time>2019-07-04T13:24:45Z</time>
      </trkpt>
      <trkpt lat="46.11801" lon="3.42593">
        <ele>309.373</ele>
        <time>2019-07-04T13:24:52Z</time>
      </trkpt>
      <trkpt lat="46.118" lon="3.426">
        <ele>309.38</ele>
        <time>2019-07-04T13:24:57Z</time>
      </trkpt>
      <trkpt lat="46.11798" lon="3.42608">
        <ele>309.383</ele>
        <time>2019-07-04T13:25:01Z</time>
      </trkpt>
      <trkpt lat="46.11797" lon="3.42616">
        <ele>309.382</ele>
        <time>2019-07-04T13:25:04Z</time>
      </trkpt>
      <trkpt lat="46.11795" lon="3.42621">
        <ele>309.382</ele>
        <time>2019-07-04T13:25:08Z</time>
      </trkpt>
      <trkpt lat="46.11791" lon="3.42625">
        <ele>309.379</ele>
        <time>2019-07-04T13:25:12Z</time>
      </trkpt>
      <trkpt lat="46.11788" lon="3.42628">
        <ele>309.374</ele>
        <time>2019-07-04T13:25:15Z</time>
      </trkpt>
      <trkpt lat="46.11784" lon="3.42632">
        <ele>309.363</ele>
        <time>2019-07-04T13:25:20Z</time>
      </trkpt>
      <trkpt lat="46.11781" lon="3.42638">
        <ele>309.356</ele>
        <time>2019-07-04T13:25:23Z</time>
      </trkpt>
      <trkpt lat="46.11779" lon="3.42641">
        <ele>309.35</ele>
        <time>2019-07-04T13:25:25Z</time>
      </trkpt>
      <trkpt lat="46.11778" lon="3.42644">
        <ele>309.343</ele>
        <time>2019-07-04T13:25:27Z</time>
      </trkpt>
      <trkpt lat="46.11775" lon="3.42648">
        <ele>309.332</ele>
        <time>2019-07-04T13:25:31Z</time>
      </trkpt>
      <trkpt lat="46.11772" lon="3.42653">
        <ele>309.319</ele>
        <time>2019-07-04T13:25:36Z</time>
      </trkpt>
      <trkpt lat="46.1177" lon="3.42657">
        <ele>309.313</ele>
        <time>2019-07-04T13:25:39Z</time>
      </trkpt>
      <trkpt lat="46.11768" lon="3.4266">
        <ele>309.302</ele>
        <time>2019-07-04T13:25:43Z</time>
      </trkpt>
      <trkpt lat="46.11767" lon="3.42666">
        <ele>309.288</ele>
        <time>2019-07-04T13:25:47Z</time>
      </trkpt>
      <trkpt lat="46.11766" lon="3.42671">
        <ele>309.28</ele>
        <time>2019-07-04T13:25:49Z</time>
      </trkpt>
      <trkpt lat="46.11765" lon="3.42676">
        <ele>309.27</ele>
        <time>2019-07-04T13:25:51Z</time>
      </trkpt>
      <trkpt lat="46.11764" lon="3.4268">
        <ele>309.259</ele>
        <time>2019-07-04T13:25:53Z</time>
      </trkpt>
      <trkpt lat="46.11761" lon="3.42685">
        <ele>309.226</ele>
        <time>2019-07-04T13:25:59Z</time>
      </trkpt>
      <trkpt lat="46.11758" lon="3.42692">
        <ele>309.203</ele>
        <time>2019-07-04T13:26:04Z</time>
      </trkpt>
      <trkpt lat="46.11755" lon="3.42698">
        <ele>309.189</ele>
        <time>2019-07-04T13:26:08Z</time>
      </trkpt>
      <trkpt lat="46.11753" lon="3.427">
        <ele>309.183</ele>
        <time>2019-07-04T13:26:10Z</time>
      </trkpt>
      <trkpt lat="46.11751" lon="3.42707">
        <ele>309.172</ele>
        <time>2019-07-04T13:26:16Z</time>
      </trkpt>
      <trkpt lat="46.11748" lon="3.42712">
        <ele>309.167</ele>
        <time>2019-07-04T13:26:21Z</time>
      </trkpt>
      <trkpt lat="46.11746" lon="3.42716">
        <ele>309.166</ele>
        <time>2019-07-04T13:26:24Z</time>
      </trkpt>
      <trkpt lat="46.11743" lon="3.42721">
        <ele>309.166</ele>
        <time>2019-07-04T13:26:28Z</time>
      </trkpt>
      <trkpt lat="46.1174" lon="3.42727">
        <ele>309.165</ele>
        <time>2019-07-04T13:26:32Z</time>
      </trkpt>
      <trkpt lat="46.11738" lon="3.42734">
        <ele>309.163</ele>
        <time>2019-07-04T13:26:36Z</time>
      </trkpt>
      <trkpt lat="46.11738" lon="3.42741">
        <ele>309.162</ele>
        <time>2019-07-04T13:26:40Z</time>
      </trkpt>
      <trkpt lat="46.11736" lon="3.42749">
        <ele>309.16</ele>
        <time>2019-07-04T13:26:45Z</time>
      </trkpt>
      <trkpt lat="46.11735" lon="3.42752">
        <ele>309.159</ele>
        <time>2019-07-04T13:26:47Z</time>
      </trkpt>
      <trkpt lat="46.11735" lon="3.42759">
        <ele>309.16</ele>
        <time>2019-07-04T13:26:50Z</time>
      </trkpt>
      <trkpt lat="46.11735" lon="3.42763">
        <ele>309.161</ele>
        <time>2019-07-04T13:26:52Z</time>
      </trkpt>
      <trkpt lat="46.11735" lon="3.42771">
        <ele>309.164</ele>
        <time>2019-07-04T13:26:56Z</time>
      </trkpt>
      <trkpt lat="46.11735" lon="3.42779">
        <ele>309.171</ele>
        <time>2019-07-04T13:27:00Z</time>
      </trkpt>
      <trkpt lat="46.11734" lon="3.42784">
        <ele>309.178</ele>
        <time>2019-07-04T13:27:03Z</time>
      </trkpt>
      <trkpt lat="46.11733" lon="3.42791">
        <ele>309.19</ele>
        <time>2019-07-04T13:27:07Z</time>
      </trkpt>
      <trkpt lat="46.11731" lon="3.42797">
        <ele>309.201</ele>
        <time>2019-07-04T13:27:10Z</time>
      </trkpt>
      <trkpt lat="46.11731" lon="3.42804">
        <ele>309.216</ele>
        <time>2019-07-04T13:27:14Z</time>
      </trkpt>
      <trkpt lat="46.1173" lon="3.4281">
        <ele>309.23</ele>
        <time>2019-07-04T13:27:18Z</time>
      </trkpt>
      <trkpt lat="46.1173" lon="3.42817">
        <ele>309.244</ele>
        <time>2019-07-04T13:27:22Z</time>
      </trkpt>
      <trkpt lat="46.11729" lon="3.42825">
        <ele>309.263</ele>
        <time>2019-07-04T13:27:27Z</time>
      </trkpt>
      <trkpt lat="46.11728" lon="3.42831">
        <ele>309.275</ele>
        <time>2019-07-04T13:27:31Z</time>
      </trkpt>
      <trkpt lat="46.11729" lon="3.42839">
        <ele>309.278</ele>
        <time>2019-07-04T13:27:32Z</time>
      </trkpt>
      <trkpt lat="46.1173" lon="3.42849">
        <ele>309.284</ele>
        <time>2019-07-04T13:27:35Z</time>
      </trkpt>
      <trkpt lat="46.11727" lon="3.42856">
        <ele>309.285</ele>
        <time>2019-07-04T13:27:36Z</time>
      </trkpt>
      <trkpt lat="46.11727" lon="3.42864">
        <ele>309.283</ele>
        <time>2019-07-04T13:27:37Z</time>
      </trkpt>
      <trkpt lat="46.11728" lon="3.42871">
        <ele>309.279</ele>
        <time>2019-07-04T13:27:39Z</time>
      </trkpt>
      <trkpt lat="46.1173" lon="3.42879">
        <ele>309.269</ele>
        <time>2019-07-04T13:27:41Z</time>
      </trkpt>
      <trkpt lat="46.11728" lon="3.42885">
        <ele>309.213</ele>
        <time>2019-07-04T13:27:48Z</time>
      </trkpt>
      <trkpt lat="46.11727" lon="3.42892">
        <ele>309.17</ele>
        <time>2019-07-04T13:27:53Z</time>
      </trkpt>
      <trkpt lat="46.11727" lon="3.42899">
        <ele>309.036</ele>
        <time>2019-07-04T13:28:11Z</time>
      </trkpt>
      <trkpt lat="46.1173" lon="3.42905">
        <ele>309.005</ele>
        <time>2019-07-04T13:28:16Z</time>
      </trkpt>
      <trkpt lat="46.11729" lon="3.42914">
        <ele>308.993</ele>
        <time>2019-07-04T13:28:18Z</time>
      </trkpt>
      <trkpt lat="46.11729" lon="3.42923">
        <ele>308.971</ele>
        <time>2019-07-04T13:28:22Z</time>
      </trkpt>
      <trkpt lat="46.11728" lon="3.4293">
        <ele>308.96</ele>
        <time>2019-07-04T13:28:24Z</time>
      </trkpt>
      <trkpt lat="46.11724" lon="3.42934">
        <ele>308.934</ele>
        <time>2019-07-04T13:28:29Z</time>
      </trkpt>
      <trkpt lat="46.11724" lon="3.42934">
        <ele>252.7</ele>
        <time>2019-07-04T13:28:34Z</time>
      </trkpt>
      <trkpt lat="46.11724" lon="3.42934">
        <ele>252.7</ele>
        <time>2019-07-04T13:28:38Z</time>
      </trkpt>
      <trkpt lat="46.11719" lon="3.42945">
        <ele>308.893</ele>
        <time>2019-07-04T13:28:38Z</time>
      </trkpt>
      <trkpt lat="46.11716" lon="3.42952">
        <ele>308.881</ele>
        <time>2019-07-04T13:28:41Z</time>
      </trkpt>
      <trkpt lat="46.11716" lon="3.42961">
        <ele>308.866</ele>
        <time>2019-07-04T13:28:45Z</time>
      </trkpt>
      <trkpt lat="46.11718" lon="3.42966">
        <ele>308.85</ele>
        <time>2019-07-04T13:28:50Z</time>
      </trkpt>
      <trkpt lat="46.11718" lon="3.42966">
        <ele>252.9</ele>
        <time>2019-07-04T13:28:57Z</time>
      </trkpt>
      <trkpt lat="46.11718" lon="3.42966">
        <ele>252.9</ele>
        <time>2019-07-04T13:29:00Z</time>
      </trkpt>
      <trkpt lat="46.11713" lon="3.42979">
        <ele>308.8</ele>
        <time>2019-07-04T13:29:00Z</time>
      </trkpt>
      <trkpt lat="46.11707" lon="3.4298">
        <ele>308.794</ele>
        <time>2019-07-04T13:29:03Z</time>
      </trkpt>
      <trkpt lat="46.11703" lon="3.42985">
        <ele>308.787</ele>
        <time>2019-07-04T13:29:07Z</time>
      </trkpt>
      <trkpt lat="46.11704" lon="3.42994">
        <ele>308.781</ele>
        <time>2019-07-04T13:29:11Z</time>
      </trkpt>
      <trkpt lat="46.11705" lon="3.43005">
        <ele>308.715</ele>
        <time>2019-07-04T13:29:22Z</time>
      </trkpt>
      <trkpt lat="46.11709" lon="3.4301">
        <ele>308.702</ele>
        <time>2019-07-04T13:29:28Z</time>
      </trkpt>
      <trkpt lat="46.11712" lon="3.43027">
        <ele>308.699</ele>
        <time>2019-07-04T13:29:32Z</time>
      </trkpt>
      <trkpt lat="46.11713" lon="3.43041">
        <ele>308.699</ele>
        <time>2019-07-04T13:29:36Z</time>
      </trkpt>
      <trkpt lat="46.11711" lon="3.43048">
        <ele>308.699</ele>
        <time>2019-07-04T13:29:38Z</time>
      </trkpt>
      <trkpt lat="46.11714" lon="3.4306">
        <ele>308.701</ele>
        <time>2019-07-04T13:29:40Z</time>
      </trkpt>
      <trkpt lat="46.11715" lon="3.43066">
        <ele>308.701</ele>
        <time>2019-07-04T13:29:41Z</time>
      </trkpt>
      <trkpt lat="46.11704" lon="3.43057">
        <ele>308.702</ele>
        <time>2019-07-04T13:29:46Z</time>
      </trkpt>
      <trkpt lat="46.11699" lon="3.43055">
        <ele>308.704</ele>
        <time>2019-07-04T13:29:48Z</time>
      </trkpt>
      <trkpt lat="46.11698" lon="3.43073">
        <ele>308.704</ele>
        <time>2019-07-04T13:29:52Z</time>
      </trkpt>
      <trkpt lat="46.11697" lon="3.43078">
        <ele>308.705</ele>
        <time>2019-07-04T13:29:54Z</time>
      </trkpt>
      <trkpt lat="46.11697" lon="3.43078">
        <ele>252.1</ele>
        <time>2019-07-04T13:30:00Z</time>
      </trkpt>
      <trkpt lat="46.11697" lon="3.43078">
        <ele>252.1</ele>
        <time>2019-07-04T13:30:15Z</time>
      </trkpt>
      <trkpt lat="46.11699" lon="3.43095">
        <ele>308.683</ele>
        <time>2019-07-04T13:30:15Z</time>
      </trkpt>
      <trkpt lat="46.11698" lon="3.43099">
        <ele>308.677</ele>
        <time>2019-07-04T13:30:20Z</time>
      </trkpt>
      <trkpt lat="46.11696" lon="3.43103">
        <ele>308.675</ele>
        <time>2019-07-04T13:30:21Z</time>
      </trkpt>
      <trkpt lat="46.11695" lon="3.43106">
        <ele>308.673</ele>
        <time>2019-07-04T13:30:23Z</time>
      </trkpt>
      <trkpt lat="46.11695" lon="3.43113">
        <ele>308.672</ele>
        <time>2019-07-04T13:30:27Z</time>
      </trkpt>
      <trkpt lat="46.11697" lon="3.4312">
        <ele>308.675</ele>
        <time>2019-07-04T13:30:33Z</time>
      </trkpt>
      <trkpt lat="46.11696" lon="3.43127">
        <ele>308.678</ele>
        <time>2019-07-04T13:30:38Z</time>
      </trkpt>
      <trkpt lat="46.11693" lon="3.43134">
        <ele>308.68</ele>
        <time>2019-07-04T13:30:42Z</time>
      </trkpt>
      <trkpt lat="46.11692" lon="3.43137">
        <ele>308.682</ele>
        <time>2019-07-04T13:30:45Z</time>
      </trkpt>
      <trkpt lat="46.11691" lon="3.43144">
        <ele>308.692</ele>
        <time>2019-07-04T13:30:52Z</time>
      </trkpt>
      <trkpt lat="46.11689" lon="3.43151">
        <ele>308.698</ele>
        <time>2019-07-04T13:30:56Z</time>
      </trkpt>
      <trkpt lat="46.11687" lon="3.43158">
        <ele>308.701</ele>
        <time>2019-07-04T13:30:59Z</time>
      </trkpt>
      <trkpt lat="46.11686" lon="3.43163">
        <ele>308.703</ele>
        <time>2019-07-04T13:31:01Z</time>
      </trkpt>
      <trkpt lat="46.11685" lon="3.43168">
        <ele>308.705</ele>
        <time>2019-07-04T13:31:03Z</time>
      </trkpt>
      <trkpt lat="46.11685" lon="3.43168">
        <ele>252.7</ele>
        <time>2019-07-04T13:31:08Z</time>
      </trkpt>
      <trkpt lat="46.11685" lon="3.43168">
        <ele>252.7</ele>
        <time>2019-07-04T13:31:14Z</time>
      </trkpt>
      <trkpt lat="46.11682" lon="3.43179">
        <ele>308.716</ele>
        <time>2019-07-04T13:31:14Z</time>
      </trkpt>
      <trkpt lat="46.1168" lon="3.43186">
        <ele>308.722</ele>
        <time>2019-07-04T13:31:19Z</time>
      </trkpt>
      <trkpt lat="46.1168" lon="3.43192">
        <ele>308.727</ele>
        <time>2019-07-04T13:31:23Z</time>
      </trkpt>
      <trkpt lat="46.11678" lon="3.43198">
        <ele>308.733</ele>
        <time>2019-07-04T13:31:28Z</time>
      </trkpt>
      <trkpt lat="46.11675" lon="3.43204">
        <ele>308.738</ele>
        <time>2019-07-04T13:31:33Z</time>
      </trkpt>
      <trkpt lat="46.11673" lon="3.43209">
        <ele>308.74</ele>
        <time>2019-07-04T13:31:37Z</time>
      </trkpt>
      <trkpt lat="46.11671" lon="3.43216">
        <ele>308.74</ele>
        <time>2019-07-04T13:31:42Z</time>
      </trkpt>
      <trkpt lat="46.11668" lon="3.43221">
        <ele>308.74</ele>
        <time>2019-07-04T13:31:47Z</time>
      </trkpt>
      <trkpt lat="46.11667" lon="3.43228">
        <ele>308.742</ele>
        <time>2019-07-04T13:31:51Z</time>
      </trkpt>
      <trkpt lat="46.11666" lon="3.43235">
        <ele>308.743</ele>
        <time>2019-07-04T13:31:55Z</time>
      </trkpt>
      <trkpt lat="46.11666" lon="3.43242">
        <ele>308.742</ele>
        <time>2019-07-04T13:32:00Z</time>
      </trkpt>
      <trkpt lat="46.11666" lon="3.43246">
        <ele>308.742</ele>
        <time>2019-07-04T13:32:03Z</time>
      </trkpt>
      <trkpt lat="46.11664" lon="3.43255">
        <ele>308.74</ele>
        <time>2019-07-04T13:32:09Z</time>
      </trkpt>
      <trkpt lat="46.11663" lon="3.4326">
        <ele>308.739</ele>
        <time>2019-07-04T13:32:12Z</time>
      </trkpt>
      <trkpt lat="46.11659" lon="3.43267">
        <ele>308.735</ele>
        <time>2019-07-04T13:32:18Z</time>
      </trkpt>
      <trkpt lat="46.11657" lon="3.4327">
        <ele>308.732</ele>
        <time>2019-07-04T13:32:21Z</time>
      </trkpt>
      <trkpt lat="46.11656" lon="3.43273">
        <ele>308.73</ele>
        <time>2019-07-04T13:32:23Z</time>
      </trkpt>
      <trkpt lat="46.11653" lon="3.43283">
        <ele>308.723</ele>
        <time>2019-07-04T13:32:29Z</time>
      </trkpt>
      <trkpt lat="46.11652" lon="3.43288">
        <ele>308.721</ele>
        <time>2019-07-04T13:32:31Z</time>
      </trkpt>
      <trkpt lat="46.11652" lon="3.43291">
        <ele>308.718</ele>
        <time>2019-07-04T13:32:33Z</time>
      </trkpt>
      <trkpt lat="46.1165" lon="3.433">
        <ele>308.712</ele>
        <time>2019-07-04T13:32:37Z</time>
      </trkpt>
      <trkpt lat="46.1165" lon="3.43308">
        <ele>308.702</ele>
        <time>2019-07-04T13:32:41Z</time>
      </trkpt>
      <trkpt lat="46.1165" lon="3.43314">
        <ele>308.692</ele>
        <time>2019-07-04T13:32:45Z</time>
      </trkpt>
      <trkpt lat="46.11652" lon="3.43321">
        <ele>308.676</ele>
        <time>2019-07-04T13:32:51Z</time>
      </trkpt>
      <trkpt lat="46.11652" lon="3.43328">
        <ele>308.666</ele>
        <time>2019-07-04T13:32:56Z</time>
      </trkpt>
      <trkpt lat="46.11656" lon="3.43332">
        <ele>308.653</ele>
        <time>2019-07-04T13:33:01Z</time>
      </trkpt>
      <trkpt lat="46.11659" lon="3.43342">
        <ele>308.637</ele>
        <time>2019-07-04T13:33:07Z</time>
      </trkpt>
      <trkpt lat="46.11663" lon="3.43345">
        <ele>308.617</ele>
        <time>2019-07-04T13:33:13Z</time>
      </trkpt>
      <trkpt lat="46.11669" lon="3.43342">
        <ele>308.6</ele>
        <time>2019-07-04T13:33:18Z</time>
      </trkpt>
      <trkpt lat="46.11673" lon="3.43338">
        <ele>308.578</ele>
        <time>2019-07-04T13:33:25Z</time>
      </trkpt>
      <trkpt lat="46.11679" lon="3.43343">
        <ele>308.179</ele>
        <time>2019-07-04T13:34:14Z</time>
      </trkpt>
      <trkpt lat="46.11686" lon="3.43332">
        <ele>308.169</ele>
        <time>2019-07-04T13:34:18Z</time>
      </trkpt>
      <trkpt lat="46.11688" lon="3.43329">
        <ele>308.156</ele>
        <time>2019-07-04T13:34:23Z</time>
      </trkpt>
      <trkpt lat="46.1169" lon="3.43325">
        <ele>308.156</ele>
        <time>2019-07-04T13:34:25Z</time>
      </trkpt>
      <trkpt lat="46.11693" lon="3.4332">
        <ele>308.156</ele>
        <time>2019-07-04T13:34:28Z</time>
      </trkpt>
      <trkpt lat="46.11697" lon="3.43316">
        <ele>308.156</ele>
        <time>2019-07-04T13:34:31Z</time>
      </trkpt>
      <trkpt lat="46.11702" lon="3.4331">
        <ele>308.157</ele>
        <time>2019-07-04T13:34:34Z</time>
      </trkpt>
      <trkpt lat="46.11707" lon="3.43307">
        <ele>308.157</ele>
        <time>2019-07-04T13:34:36Z</time>
      </trkpt>
      <trkpt lat="46.11711" lon="3.43304">
        <ele>308.154</ele>
        <time>2019-07-04T13:34:39Z</time>
      </trkpt>
      <trkpt lat="46.11713" lon="3.43302">
        <ele>308.154</ele>
        <time>2019-07-04T13:34:41Z</time>
      </trkpt>
      <trkpt lat="46.11713" lon="3.43302">
        <ele>255.5</ele>
        <time>2019-07-04T13:34:49Z</time>
      </trkpt>
      <trkpt lat="46.11713" lon="3.43302">
        <ele>255.5</ele>
        <time>2019-07-04T13:34:58Z</time>
      </trkpt>
      <trkpt lat="46.11718" lon="3.43302">
        <ele>308.12</ele>
        <time>2019-07-04T13:34:58Z</time>
      </trkpt>
      <trkpt lat="46.11721" lon="3.43302">
        <ele>308.119</ele>
        <time>2019-07-04T13:35:00Z</time>
      </trkpt>
      <trkpt lat="46.11722" lon="3.43292">
        <ele>308.118</ele>
        <time>2019-07-04T13:35:04Z</time>
      </trkpt>
      <trkpt lat="46.11728" lon="3.43286">
        <ele>308.118</ele>
        <time>2019-07-04T13:35:06Z</time>
      </trkpt>
      <trkpt lat="46.11747" lon="3.43259">
        <ele>308.116</ele>
        <time>2019-07-04T13:35:08Z</time>
      </trkpt>
      <trkpt lat="46.11761" lon="3.4323">
        <ele>308.111</ele>
        <time>2019-07-04T13:35:11Z</time>
      </trkpt>
      <trkpt lat="46.11761" lon="3.4323">
        <ele>255.6</ele>
        <time>2019-07-04T13:35:18Z</time>
      </trkpt>
      <trkpt lat="46.11761" lon="3.4323">
        <ele>255.6</ele>
        <time>2019-07-04T13:35:20Z</time>
      </trkpt>
      <trkpt lat="46.11762" lon="3.43223">
        <ele>308.115</ele>
        <time>2019-07-04T13:35:20Z</time>
      </trkpt>
      <trkpt lat="46.11759" lon="3.43214">
        <ele>308.196</ele>
        <time>2019-07-04T13:35:52Z</time>
      </trkpt>
      <trkpt lat="46.11763" lon="3.43208">
        <ele>308.201</ele>
        <time>2019-07-04T13:35:54Z</time>
      </trkpt>
      <trkpt lat="46.11765" lon="3.43205">
        <ele>308.208</ele>
        <time>2019-07-04T13:35:57Z</time>
      </trkpt>
      <trkpt lat="46.1177" lon="3.43202">
        <ele>308.222</ele>
        <time>2019-07-04T13:36:02Z</time>
      </trkpt>
      <trkpt lat="46.11773" lon="3.43188">
        <ele>308.261</ele>
        <time>2019-07-04T13:36:08Z</time>
      </trkpt>
      <trkpt lat="46.11778" lon="3.43182">
        <ele>308.265</ele>
        <time>2019-07-04T13:36:11Z</time>
      </trkpt>
      <trkpt lat="46.1178" lon="3.43176">
        <ele>308.269</ele>
        <time>2019-07-04T13:36:15Z</time>
      </trkpt>
      <trkpt lat="46.11779" lon="3.43169">
        <ele>308.274</ele>
        <time>2019-07-04T13:36:20Z</time>
      </trkpt>
      <trkpt lat="46.1178" lon="3.43162">
        <ele>308.282</ele>
        <time>2019-07-04T13:36:28Z</time>
      </trkpt>
      <trkpt lat="46.11781" lon="3.43155">
        <ele>308.287</ele>
        <time>2019-07-04T13:36:35Z</time>
      </trkpt>
      <trkpt lat="46.11787" lon="3.43148">
        <ele>308.288</ele>
        <time>2019-07-04T13:36:37Z</time>
      </trkpt>
      <trkpt lat="46.11791" lon="3.43139">
        <ele>308.289</ele>
        <time>2019-07-04T13:36:40Z</time>
      </trkpt>
      <trkpt lat="46.11796" lon="3.43138">
        <ele>308.294</ele>
        <time>2019-07-04T13:36:47Z</time>
      </trkpt>
      <trkpt lat="46.11798" lon="3.4313">
        <ele>308.298</ele>
        <time>2019-07-04T13:36:53Z</time>
      </trkpt>
      <trkpt lat="46.11804" lon="3.43117">
        <ele>308.3</ele>
        <time>2019-07-04T13:37:02Z</time>
      </trkpt>
      <trkpt lat="46.11802" lon="3.43107">
        <ele>308.296</ele>
        <time>2019-07-04T13:37:06Z</time>
      </trkpt>
      <trkpt lat="46.11807" lon="3.43102">
        <ele>308.291</ele>
        <time>2019-07-04T13:37:11Z</time>
      </trkpt>
      <trkpt lat="46.1181" lon="3.43098">
        <ele>308.287</ele>
        <time>2019-07-04T13:37:15Z</time>
      </trkpt>
      <trkpt lat="46.1181" lon="3.43089">
        <ele>308.284</ele>
        <time>2019-07-04T13:37:19Z</time>
      </trkpt>
      <trkpt lat="46.1181" lon="3.43082">
        <ele>308.281</ele>
        <time>2019-07-04T13:37:22Z</time>
      </trkpt>
      <trkpt lat="46.1181" lon="3.43073">
        <ele>308.279</ele>
        <time>2019-07-04T13:37:23Z</time>
      </trkpt>
      <trkpt lat="46.11801" lon="3.43045">
        <ele>308.188</ele>
        <time>2019-07-04T13:37:33Z</time>
      </trkpt>
      <trkpt lat="46.118" lon="3.43041">
        <ele>308.188</ele>
        <time>2019-07-04T13:37:34Z</time>
      </trkpt>
      <trkpt lat="46.11796" lon="3.4303">
        <ele>308.183</ele>
        <time>2019-07-04T13:37:38Z</time>
      </trkpt>
      <trkpt lat="46.1179" lon="3.43026">
        <ele>308.178</ele>
        <time>2019-07-04T13:37:49Z</time>
      </trkpt>
      <trkpt lat="46.11802" lon="3.43016">
        <ele>308.135</ele>
        <time>2019-07-04T13:38:00Z</time>
      </trkpt>
      <trkpt lat="46.11805" lon="3.43011">
        <ele>308.134</ele>
        <time>2019-07-04T13:38:08Z</time>
      </trkpt>
      <trkpt lat="46.11807" lon="3.43005">
        <ele>308.123</ele>
        <time>2019-07-04T13:38:15Z</time>
      </trkpt>
      <trkpt lat="46.11812" lon="3.42995">
        <ele>308.078</ele>
        <time>2019-07-04T13:38:28Z</time>
      </trkpt>
      <trkpt lat="46.11813" lon="3.42984">
        <ele>308.058</ele>
        <time>2019-07-04T13:38:34Z</time>
      </trkpt>
      <trkpt lat="46.11813" lon="3.42975">
        <ele>308.054</ele>
        <time>2019-07-04T13:38:35Z</time>
      </trkpt>
      <trkpt lat="46.11814" lon="3.42967">
        <ele>308.054</ele>
        <time>2019-07-04T13:38:36Z</time>
      </trkpt>
      <trkpt lat="46.11814" lon="3.42967">
        <ele>254.5</ele>
        <time>2019-07-04T13:38:41Z</time>
      </trkpt>
      <trkpt lat="46.11814" lon="3.42967">
        <ele>254.5</ele>
        <time>2019-07-04T13:39:22Z</time>
      </trkpt>
      <trkpt lat="46.11822" lon="3.42937">
        <ele>307.822</ele>
        <time>2019-07-04T13:39:22Z</time>
      </trkpt>
      <trkpt lat="46.11823" lon="3.4293">
        <ele>307.798</ele>
        <time>2019-07-04T13:39:25Z</time>
      </trkpt>
      <trkpt lat="46.11826" lon="3.42925">
        <ele>307.764</ele>
        <time>2019-07-04T13:39:29Z</time>
      </trkpt>
      <trkpt lat="46.11831" lon="3.42921">
        <ele>307.746</ele>
        <time>2019-07-04T13:39:31Z</time>
      </trkpt>
      <trkpt lat="46.11837" lon="3.42914">
        <ele>307.718</ele>
        <time>2019-07-04T13:39:34Z</time>
      </trkpt>
      <trkpt lat="46.11839" lon="3.42907">
        <ele>307.669</ele>
        <time>2019-07-04T13:39:39Z</time>
      </trkpt>
      <trkpt lat="46.11837" lon="3.42901">
        <ele>307.641</ele>
        <time>2019-07-04T13:39:42Z</time>
      </trkpt>
      <trkpt lat="46.11837" lon="3.42892">
        <ele>307.614</ele>
        <time>2019-07-04T13:39:45Z</time>
      </trkpt>
      <trkpt lat="46.11836" lon="3.42884">
        <ele>307.578</ele>
        <time>2019-07-04T13:39:49Z</time>
      </trkpt>
      <trkpt lat="46.11836" lon="3.42877">
        <ele>307.545</ele>
        <time>2019-07-04T13:39:53Z</time>
      </trkpt>
      <trkpt lat="46.11835" lon="3.4287">
        <ele>307.512</ele>
        <time>2019-07-04T13:39:57Z</time>
      </trkpt>
      <trkpt lat="46.11834" lon="3.42863">
        <ele>307.488</ele>
        <time>2019-07-04T13:40:00Z</time>
      </trkpt>
      <trkpt lat="46.11834" lon="3.42859">
        <ele>307.461</ele>
        <time>2019-07-04T13:40:03Z</time>
      </trkpt>
      <trkpt lat="46.11834" lon="3.42853">
        <ele>307.432</ele>
        <time>2019-07-04T13:40:06Z</time>
      </trkpt>
      <trkpt lat="46.11834" lon="3.42848">
        <ele>307.405</ele>
        <time>2019-07-04T13:40:09Z</time>
      </trkpt>
      <trkpt lat="46.11834" lon="3.42841">
        <ele>307.381</ele>
        <time>2019-07-04T13:40:12Z</time>
      </trkpt>
      <trkpt lat="46.11835" lon="3.42833">
        <ele>307.347</ele>
        <time>2019-07-04T13:40:17Z</time>
      </trkpt>
      <trkpt lat="46.11835" lon="3.4283">
        <ele>307.321</ele>
        <time>2019-07-04T13:40:21Z</time>
      </trkpt>
      <trkpt lat="46.11835" lon="3.42826">
        <ele>307.301</ele>
        <time>2019-07-04T13:40:24Z</time>
      </trkpt>
      <trkpt lat="46.11836" lon="3.42818">
        <ele>307.266</ele>
        <time>2019-07-04T13:40:29Z</time>
      </trkpt>
      <trkpt lat="46.11837" lon="3.42814">
        <ele>307.243</ele>
        <time>2019-07-04T13:40:32Z</time>
      </trkpt>
      <trkpt lat="46.11838" lon="3.42807">
        <ele>307.211</ele>
        <time>2019-07-04T13:40:36Z</time>
      </trkpt>
      <trkpt lat="46.11838" lon="3.42801">
        <ele>307.189</ele>
        <time>2019-07-04T13:40:39Z</time>
      </trkpt>
      <trkpt lat="46.11838" lon="3.42797">
        <ele>307.173</ele>
        <time>2019-07-04T13:40:41Z</time>
      </trkpt>
      <trkpt lat="46.11839" lon="3.4279">
        <ele>307.142</ele>
        <time>2019-07-04T13:40:45Z</time>
      </trkpt>
      <trkpt lat="46.11838" lon="3.42783">
        <ele>307.106</ele>
        <time>2019-07-04T13:40:50Z</time>
      </trkpt>
      <trkpt lat="46.11837" lon="3.42778">
        <ele>307.084</ele>
        <time>2019-07-04T13:40:53Z</time>
      </trkpt>
      <trkpt lat="46.11838" lon="3.4277">
        <ele>307.043</ele>
        <time>2019-07-04T13:40:59Z</time>
      </trkpt>
      <trkpt lat="46.11836" lon="3.42763">
        <ele>306.942</ele>
        <time>2019-07-04T13:41:05Z</time>
      </trkpt>
      <trkpt lat="46.11834" lon="3.42758">
        <ele>306.919</ele>
        <time>2019-07-04T13:41:09Z</time>
      </trkpt>
      <trkpt lat="46.11834" lon="3.42758">
        <ele>256</ele>
        <time>2019-07-04T13:41:16Z</time>
      </trkpt>
      <trkpt lat="46.11834" lon="3.42758">
        <ele>256</ele>
        <time>2019-07-04T13:42:35Z</time>
      </trkpt>
      <trkpt lat="46.11838" lon="3.42738">
        <ele>307.436</ele>
        <time>2019-07-04T13:42:36Z</time>
      </trkpt>
      <trkpt lat="46.11839" lon="3.42733">
        <ele>307.538</ele>
        <time>2019-07-04T13:42:40Z</time>
      </trkpt>
      <trkpt lat="46.11842" lon="3.42727">
        <ele>307.724</ele>
        <time>2019-07-04T13:42:49Z</time>
      </trkpt>
      <trkpt lat="46.11842" lon="3.4272">
        <ele>307.781</ele>
        <time>2019-07-04T13:42:53Z</time>
      </trkpt>
      <trkpt lat="46.11844" lon="3.42712">
        <ele>307.825</ele>
        <time>2019-07-04T13:42:59Z</time>
      </trkpt>
      <trkpt lat="46.11844" lon="3.42708">
        <ele>307.814</ele>
        <time>2019-07-04T13:43:02Z</time>
      </trkpt>
      <trkpt lat="46.11844" lon="3.42708">
        <ele>256.2</ele>
        <time>2019-07-04T13:43:09Z</time>
      </trkpt>
      <trkpt lat="46.11844" lon="3.42708">
        <ele>256.2</ele>
        <time>2019-07-04T13:43:15Z</time>
      </trkpt>
      <trkpt lat="46.11842" lon="3.42694">
        <ele>307.416</ele>
        <time>2019-07-04T13:43:15Z</time>
      </trkpt>
      <trkpt lat="46.11837" lon="3.42689">
        <ele>307.293</ele>
        <time>2019-07-04T13:43:19Z</time>
      </trkpt>
      <trkpt lat="46.11834" lon="3.42683">
        <ele>307.218</ele>
        <time>2019-07-04T13:43:23Z</time>
      </trkpt>
      <trkpt lat="46.11831" lon="3.42676">
        <ele>307.154</ele>
        <time>2019-07-04T13:43:28Z</time>
      </trkpt>
      <trkpt lat="46.11829" lon="3.42671">
        <ele>307.121</ele>
        <time>2019-07-04T13:43:31Z</time>
      </trkpt>
      <trkpt lat="46.11829" lon="3.42671">
        <ele>255.8</ele>
        <time>2019-07-04T13:43:38Z</time>
      </trkpt>
      <trkpt lat="46.11829" lon="3.42671">
        <ele>255.8</ele>
        <time>2019-07-04T13:43:43Z</time>
      </trkpt>
      <trkpt lat="46.11831" lon="3.42656">
        <ele>306.893</ele>
        <time>2019-07-04T13:43:43Z</time>
      </trkpt>
      <trkpt lat="46.11827" lon="3.42652">
        <ele>306.703</ele>
        <time>2019-07-04T13:43:49Z</time>
      </trkpt>
      <trkpt lat="46.11822" lon="3.42651">
        <ele>306.521</ele>
        <time>2019-07-04T13:43:54Z</time>
      </trkpt>
      <trkpt lat="46.11822" lon="3.42651">
        <ele>306.521</ele>
        <time>2019-07-04T13:44:03Z</time>
      </trkpt>
      <trkpt lat="46.11822" lon="3.42651">
        <ele>255.6</ele>
        <time>2019-07-04T13:44:03Z</time>
      </trkpt>
      <trkpt lat="46.11822" lon="3.42651">
        <ele>255.6</ele>
        <time>2019-07-04T13:45:07Z</time>
      </trkpt>
      <trkpt lat="46.1183" lon="3.42628">
        <ele>305.083</ele>
        <time>2019-07-04T13:45:07Z</time>
      </trkpt>
      <trkpt lat="46.11835" lon="3.42626">
        <ele>305.04</ele>
        <time>2019-07-04T13:45:10Z</time>
      </trkpt>
      <trkpt lat="46.11839" lon="3.42623">
        <ele>304.955</ele>
        <time>2019-07-04T13:45:14Z</time>
      </trkpt>
      <trkpt lat="46.11842" lon="3.42616">
        <ele>304.806</ele>
        <time>2019-07-04T13:45:19Z</time>
      </trkpt>
      <trkpt lat="46.11842" lon="3.42609">
        <ele>304.674</ele>
        <time>2019-07-04T13:45:23Z</time>
      </trkpt>
      <trkpt lat="46.11845" lon="3.42602">
        <ele>304.508</ele>
        <time>2019-07-04T13:45:28Z</time>
      </trkpt>
      <trkpt lat="46.11846" lon="3.42598">
        <ele>304.436</ele>
        <time>2019-07-04T13:45:30Z</time>
      </trkpt>
      <trkpt lat="46.11847" lon="3.42595">
        <ele>304.399</ele>
        <time>2019-07-04T13:45:31Z</time>
      </trkpt>
      <trkpt lat="46.1185" lon="3.42588">
        <ele>304.286</ele>
        <time>2019-07-04T13:45:34Z</time>
      </trkpt>
      <trkpt lat="46.11853" lon="3.42581">
        <ele>304.174</ele>
        <time>2019-07-04T13:45:37Z</time>
      </trkpt>
      <trkpt lat="46.11856" lon="3.42576">
        <ele>304.061</ele>
        <time>2019-07-04T13:45:40Z</time>
      </trkpt>
      <trkpt lat="46.1186" lon="3.42573">
        <ele>303.892</ele>
        <time>2019-07-04T13:45:44Z</time>
      </trkpt>
      <trkpt lat="46.11862" lon="3.42565">
        <ele>303.672</ele>
        <time>2019-07-04T13:45:49Z</time>
      </trkpt>
      <trkpt lat="46.11865" lon="3.42557">
        <ele>303.548</ele>
        <time>2019-07-04T13:45:52Z</time>
      </trkpt>
      <trkpt lat="46.11867" lon="3.42553">
        <ele>303.47</ele>
        <time>2019-07-04T13:45:54Z</time>
      </trkpt>
      <trkpt lat="46.11868" lon="3.42546">
        <ele>303.321</ele>
        <time>2019-07-04T13:45:58Z</time>
      </trkpt>
      <trkpt lat="46.11867" lon="3.42539">
        <ele>303.11</ele>
        <time>2019-07-04T13:46:04Z</time>
      </trkpt>
      <trkpt lat="46.11867" lon="3.42533">
        <ele>303.02</ele>
        <time>2019-07-04T13:46:07Z</time>
      </trkpt>
      <trkpt lat="46.11867" lon="3.42529">
        <ele>302.894</ele>
        <time>2019-07-04T13:46:11Z</time>
      </trkpt>
      <trkpt lat="46.1187" lon="3.42524">
        <ele>302.654</ele>
        <time>2019-07-04T13:46:17Z</time>
      </trkpt>
      <trkpt lat="46.11872" lon="3.42515">
        <ele>302.391</ele>
        <time>2019-07-04T13:46:23Z</time>
      </trkpt>
      <trkpt lat="46.11871" lon="3.42506">
        <ele>302.26</ele>
        <time>2019-07-04T13:46:26Z</time>
      </trkpt>
      <trkpt lat="46.11871" lon="3.42499">
        <ele>302.176</ele>
        <time>2019-07-04T13:46:28Z</time>
      </trkpt>
      <trkpt lat="46.11873" lon="3.42493">
        <ele>301.988</ele>
        <time>2019-07-04T13:46:33Z</time>
      </trkpt>
      <trkpt lat="46.11874" lon="3.42489">
        <ele>301.919</ele>
        <time>2019-07-04T13:46:35Z</time>
      </trkpt>
      <trkpt lat="46.11878" lon="3.42483">
        <ele>301.786</ele>
        <time>2019-07-04T13:46:39Z</time>
      </trkpt>
      <trkpt lat="46.11879" lon="3.4248">
        <ele>301.689</ele>
        <time>2019-07-04T13:46:42Z</time>
      </trkpt>
      <trkpt lat="46.11883" lon="3.42479">
        <ele>301.504</ele>
        <time>2019-07-04T13:46:48Z</time>
      </trkpt>
      <trkpt lat="46.11887" lon="3.42478">
        <ele>301.41</ele>
        <time>2019-07-04T13:46:51Z</time>
      </trkpt>
      <trkpt lat="46.1189" lon="3.42478">
        <ele>301.344</ele>
        <time>2019-07-04T13:46:53Z</time>
      </trkpt>
      <trkpt lat="46.11893" lon="3.42477">
        <ele>301.242</ele>
        <time>2019-07-04T13:46:56Z</time>
      </trkpt>
      <trkpt lat="46.11898" lon="3.42476">
        <ele>301.139</ele>
        <time>2019-07-04T13:46:59Z</time>
      </trkpt>
      <trkpt lat="46.11903" lon="3.42474">
        <ele>301.032</ele>
        <time>2019-07-04T13:47:02Z</time>
      </trkpt>
      <trkpt lat="46.11908" lon="3.42472">
        <ele>300.896</ele>
        <time>2019-07-04T13:47:06Z</time>
      </trkpt>
      <trkpt lat="46.11908" lon="3.42472">
        <ele>256</ele>
        <time>2019-07-04T13:47:13Z</time>
      </trkpt>
      <trkpt lat="46.11908" lon="3.42472">
        <ele>256</ele>
        <time>2019-07-04T13:47:18Z</time>
      </trkpt>
      <trkpt lat="46.11912" lon="3.42469">
        <ele>300.552</ele>
        <time>2019-07-04T13:47:18Z</time>
      </trkpt>
      <trkpt lat="46.11916" lon="3.42466">
        <ele>300.261</ele>
        <time>2019-07-04T13:47:31Z</time>
      </trkpt>
      <trkpt lat="46.11917" lon="3.42458">
        <ele>300.035</ele>
        <time>2019-07-04T13:47:41Z</time>
      </trkpt>
      <trkpt lat="46.11918" lon="3.42451">
        <ele>299.854</ele>
        <time>2019-07-04T13:47:48Z</time>
      </trkpt>
      <trkpt lat="46.11919" lon="3.42447">
        <ele>299.78</ele>
        <time>2019-07-04T13:47:51Z</time>
      </trkpt>
      <trkpt lat="46.11923" lon="3.42444">
        <ele>299.687</ele>
        <time>2019-07-04T13:47:55Z</time>
      </trkpt>
      <trkpt lat="46.11926" lon="3.42442">
        <ele>299.62</ele>
        <time>2019-07-04T13:47:58Z</time>
      </trkpt>
      <trkpt lat="46.11931" lon="3.42441">
        <ele>299.495</ele>
        <time>2019-07-04T13:48:04Z</time>
      </trkpt>
      <trkpt lat="46.11936" lon="3.42439">
        <ele>299.417</ele>
        <time>2019-07-04T13:48:08Z</time>
      </trkpt>
      <trkpt lat="46.1194" lon="3.42434">
        <ele>299.308</ele>
        <time>2019-07-04T13:48:14Z</time>
      </trkpt>
      <trkpt lat="46.1194" lon="3.42427">
        <ele>299.22</ele>
        <time>2019-07-04T13:48:19Z</time>
      </trkpt>
      <trkpt lat="46.11939" lon="3.42423">
        <ele>299.185</ele>
        <time>2019-07-04T13:48:21Z</time>
      </trkpt>
      <trkpt lat="46.11939" lon="3.42423">
        <ele>299.185</ele>
        <time>2019-07-04T13:48:29Z</time>
      </trkpt>
      <trkpt lat="46.11939" lon="3.42423">
        <ele>258.1</ele>
        <time>2019-07-04T13:48:29Z</time>
      </trkpt>
      <trkpt lat="46.11939" lon="3.42423">
        <ele>258.1</ele>
        <time>2019-07-04T13:49:22Z</time>
      </trkpt>
      <trkpt lat="46.11933" lon="3.42395">
        <ele>298.532</ele>
        <time>2019-07-04T13:49:22Z</time>
      </trkpt>
      <trkpt lat="46.11933" lon="3.42388">
        <ele>298.483</ele>
        <time>2019-07-04T13:49:28Z</time>
      </trkpt>
      <trkpt lat="46.11933" lon="3.42381">
        <ele>298.453</ele>
        <time>2019-07-04T13:49:31Z</time>
      </trkpt>
      <trkpt lat="46.11939" lon="3.42376">
        <ele>298.366</ele>
        <time>2019-07-04T13:49:40Z</time>
      </trkpt>
      <trkpt lat="46.11944" lon="3.42373">
        <ele>298.343</ele>
        <time>2019-07-04T13:49:43Z</time>
      </trkpt>
      <trkpt lat="46.11946" lon="3.42372">
        <ele>298.329</ele>
        <time>2019-07-04T13:49:45Z</time>
      </trkpt>
      <trkpt lat="46.11951" lon="3.42367">
        <ele>298.291</ele>
        <time>2019-07-04T13:49:51Z</time>
      </trkpt>
      <trkpt lat="46.11954" lon="3.42361">
        <ele>298.262</ele>
        <time>2019-07-04T13:49:55Z</time>
      </trkpt>
      <trkpt lat="46.1196" lon="3.42358">
        <ele>298.237</ele>
        <time>2019-07-04T13:50:01Z</time>
      </trkpt>
      <trkpt lat="46.11964" lon="3.42362">
        <ele>298.219</ele>
        <time>2019-07-04T13:50:07Z</time>
      </trkpt>
      <trkpt lat="46.11964" lon="3.42362">
        <ele>298.219</ele>
        <time>2019-07-04T13:50:14Z</time>
      </trkpt>
      <trkpt lat="46.11964" lon="3.42362">
        <ele>258.4</ele>
        <time>2019-07-04T13:50:14Z</time>
      </trkpt>
      <trkpt lat="46.11964" lon="3.42362">
        <ele>258.4</ele>
        <time>2019-07-04T13:55:51Z</time>
      </trkpt>
      <trkpt lat="46.11967" lon="3.4234">
        <ele>299.864</ele>
        <time>2019-07-04T13:55:51Z</time>
      </trkpt>
      <trkpt lat="46.11971" lon="3.42334">
        <ele>299.894</ele>
        <time>2019-07-04T13:55:56Z</time>
      </trkpt>
      <trkpt lat="46.11971" lon="3.42334">
        <ele>256</ele>
        <time>2019-07-04T13:56:01Z</time>
      </trkpt>
      <trkpt lat="46.11971" lon="3.42334">
        <ele>256</ele>
        <time>2019-07-04T13:57:36Z</time>
      </trkpt>
      <trkpt lat="46.11982" lon="3.42371">
        <ele>299.996</ele>
        <time>2019-07-04T13:57:36Z</time>
      </trkpt>
      <trkpt lat="46.11986" lon="3.42375">
        <ele>300.042</ele>
        <time>2019-07-04T13:57:40Z</time>
      </trkpt>
      <trkpt lat="46.1199" lon="3.42378">
        <ele>300.204</ele>
        <time>2019-07-04T13:57:47Z</time>
      </trkpt>
      <trkpt lat="46.11995" lon="3.42383">
        <ele>300.302</ele>
        <time>2019-07-04T13:57:51Z</time>
      </trkpt>
      <trkpt lat="46.11997" lon="3.42385">
        <ele>300.344</ele>
        <time>2019-07-04T13:57:53Z</time>
      </trkpt>
      <trkpt lat="46.12001" lon="3.42389">
        <ele>300.406</ele>
        <time>2019-07-04T13:57:57Z</time>
      </trkpt>
      <trkpt lat="46.12006" lon="3.42392">
        <ele>300.484</ele>
        <time>2019-07-04T13:58:02Z</time>
      </trkpt>
      <trkpt lat="46.12011" lon="3.42397">
        <ele>300.544</ele>
        <time>2019-07-04T13:58:05Z</time>
      </trkpt>
      <trkpt lat="46.12013" lon="3.42399">
        <ele>300.58</ele>
        <time>2019-07-04T13:58:07Z</time>
      </trkpt>
      <trkpt lat="46.12016" lon="3.42404">
        <ele>300.659</ele>
        <time>2019-07-04T13:58:12Z</time>
      </trkpt>
      <trkpt lat="46.12016" lon="3.42404">
        <ele>300.659</ele>
        <time>2019-07-04T13:58:19Z</time>
      </trkpt>
      <trkpt lat="46.12016" lon="3.42404">
        <ele>262</ele>
        <time>2019-07-04T13:58:19Z</time>
      </trkpt>
      <trkpt lat="46.12016" lon="3.42404">
        <ele>262</ele>
        <time>2019-07-04T13:58:29Z</time>
      </trkpt>
      <trkpt lat="46.12022" lon="3.42423">
        <ele>300.958</ele>
        <time>2019-07-04T13:58:29Z</time>
      </trkpt>
      <trkpt lat="46.12025" lon="3.42428">
        <ele>300.984</ele>
        <time>2019-07-04T13:58:31Z</time>
      </trkpt>
      <trkpt lat="46.1203" lon="3.42432">
        <ele>301.021</ele>
        <time>2019-07-04T13:58:34Z</time>
      </trkpt>
      <trkpt lat="46.12033" lon="3.42437">
        <ele>301.069</ele>
        <time>2019-07-04T13:58:38Z</time>
      </trkpt>
      <trkpt lat="46.12033" lon="3.42437">
        <ele>301.069</ele>
        <time>2019-07-04T13:58:46Z</time>
      </trkpt>
      <trkpt lat="46.12033" lon="3.42437">
        <ele>262</ele>
        <time>2019-07-04T13:58:46Z</time>
      </trkpt>
      <trkpt lat="46.12033" lon="3.42437">
        <ele>262</ele>
        <time>2019-07-04T14:00:13Z</time>
      </trkpt>
      <trkpt lat="46.12036" lon="3.42398">
        <ele>301.007</ele>
        <time>2019-07-04T14:00:13Z</time>
      </trkpt>
      <trkpt lat="46.12036" lon="3.42391">
        <ele>301.024</ele>
        <time>2019-07-04T14:00:17Z</time>
      </trkpt>
      <trkpt lat="46.12036" lon="3.42391">
        <ele>261.7</ele>
        <time>2019-07-04T14:00:24Z</time>
      </trkpt>
      <trkpt lat="46.12036" lon="3.42391">
        <ele>261.7</ele>
        <time>2019-07-04T14:01:10Z</time>
      </trkpt>
      <trkpt lat="46.12066" lon="3.42389">
        <ele>301.685</ele>
        <time>2019-07-04T14:01:10Z</time>
      </trkpt>
      <trkpt lat="46.1207" lon="3.42394">
        <ele>301.734</ele>
        <time>2019-07-04T14:01:12Z</time>
      </trkpt>
      <trkpt lat="46.12074" lon="3.42399">
        <ele>301.788</ele>
        <time>2019-07-04T14:01:14Z</time>
      </trkpt>
      <trkpt lat="46.12079" lon="3.42404">
        <ele>301.887</ele>
        <time>2019-07-04T14:01:17Z</time>
      </trkpt>
      <trkpt lat="46.12083" lon="3.42407">
        <ele>302.036</ele>
        <time>2019-07-04T14:01:21Z</time>
      </trkpt>
      <trkpt lat="46.12087" lon="3.42409">
        <ele>302.192</ele>
        <time>2019-07-04T14:01:25Z</time>
      </trkpt>
      <trkpt lat="46.12087" lon="3.42409">
        <ele>302.192</ele>
        <time>2019-07-04T14:01:33Z</time>
      </trkpt>
      <trkpt lat="46.12087" lon="3.42409">
        <ele>260.4</ele>
        <time>2019-07-04T14:01:33Z</time>
      </trkpt>
      <trkpt lat="46.12087" lon="3.42409">
        <ele>260.4</ele>
        <time>2019-07-04T14:01:52Z</time>
      </trkpt>
      <trkpt lat="46.12103" lon="3.42405">
        <ele>303.311</ele>
        <time>2019-07-04T14:01:52Z</time>
      </trkpt>
      <trkpt lat="46.12108" lon="3.42406">
        <ele>303.516</ele>
        <time>2019-07-04T14:01:56Z</time>
      </trkpt>
      <trkpt lat="46.12113" lon="3.42405">
        <ele>303.707</ele>
        <time>2019-07-04T14:02:00Z</time>
      </trkpt>
      <trkpt lat="46.12117" lon="3.42405">
        <ele>303.843</ele>
        <time>2019-07-04T14:02:03Z</time>
      </trkpt>
      <trkpt lat="46.12122" lon="3.42407">
        <ele>304.079</ele>
        <time>2019-07-04T14:02:09Z</time>
      </trkpt>
      <trkpt lat="46.12127" lon="3.42402">
        <ele>304.298</ele>
        <time>2019-07-04T14:02:14Z</time>
      </trkpt>
      <trkpt lat="46.12131" lon="3.42399">
        <ele>304.48</ele>
        <time>2019-07-04T14:02:17Z</time>
      </trkpt>
      <trkpt lat="46.12134" lon="3.42396">
        <ele>304.765</ele>
        <time>2019-07-04T14:02:21Z</time>
      </trkpt>
      <trkpt lat="46.12134" lon="3.42396">
        <ele>260.2</ele>
        <time>2019-07-04T14:02:28Z</time>
      </trkpt>
      <trkpt lat="46.12134" lon="3.42396">
        <ele>260.2</ele>
        <time>2019-07-04T14:02:37Z</time>
      </trkpt>
      <trkpt lat="46.12141" lon="3.42391">
        <ele>305.945</ele>
        <time>2019-07-04T14:02:37Z</time>
      </trkpt>
      <trkpt lat="46.12145" lon="3.42389">
        <ele>307.21</ele>
        <time>2019-07-04T14:03:16Z</time>
      </trkpt>
      <trkpt lat="46.12147" lon="3.42382">
        <ele>307.834</ele>
        <time>2019-07-04T14:03:30Z</time>
      </trkpt>
      <trkpt lat="46.12143" lon="3.42377">
        <ele>308.092</ele>
        <time>2019-07-04T14:03:38Z</time>
      </trkpt>
      <trkpt lat="46.12142" lon="3.4237">
        <ele>308.265</ele>
        <time>2019-07-04T14:03:44Z</time>
      </trkpt>
      <trkpt lat="46.12143" lon="3.42362">
        <ele>308.357</ele>
        <time>2019-07-04T14:03:48Z</time>
      </trkpt>
      <trkpt lat="46.12142" lon="3.42355">
        <ele>308.428</ele>
        <time>2019-07-04T14:03:51Z</time>
      </trkpt>
      <trkpt lat="46.12141" lon="3.42351">
        <ele>308.492</ele>
        <time>2019-07-04T14:03:54Z</time>
      </trkpt>
      <trkpt lat="46.12142" lon="3.42343">
        <ele>308.57</ele>
        <time>2019-07-04T14:04:03Z</time>
      </trkpt>
      <trkpt lat="46.12142" lon="3.42337">
        <ele>308.602</ele>
        <time>2019-07-04T14:04:07Z</time>
      </trkpt>
      <trkpt lat="46.12142" lon="3.42331">
        <ele>308.629</ele>
        <time>2019-07-04T14:04:10Z</time>
      </trkpt>
      <trkpt lat="46.12141" lon="3.42326">
        <ele>308.65</ele>
        <time>2019-07-04T14:04:13Z</time>
      </trkpt>
      <trkpt lat="46.12141" lon="3.42326">
        <ele>308.65</ele>
        <time>2019-07-04T14:04:20Z</time>
      </trkpt>
      <trkpt lat="46.12141" lon="3.42326">
        <ele>260</ele>
        <time>2019-07-04T14:04:20Z</time>
      </trkpt>
      <trkpt lat="46.12141" lon="3.42326">
        <ele>260</ele>
        <time>2019-07-04T14:05:51Z</time>
      </trkpt>
      <trkpt lat="46.1217" lon="3.42335">
        <ele>308.342</ele>
        <time>2019-07-04T14:05:51Z</time>
      </trkpt>
      <trkpt lat="46.12174" lon="3.42337">
        <ele>308.372</ele>
        <time>2019-07-04T14:05:55Z</time>
      </trkpt>
      <trkpt lat="46.12177" lon="3.42339">
        <ele>308.389</ele>
        <time>2019-07-04T14:05:57Z</time>
      </trkpt>
      <trkpt lat="46.12183" lon="3.4234">
        <ele>308.406</ele>
        <time>2019-07-04T14:06:00Z</time>
      </trkpt>
      <trkpt lat="46.1219" lon="3.4234">
        <ele>308.439</ele>
        <time>2019-07-04T14:06:05Z</time>
      </trkpt>
      <trkpt lat="46.12195" lon="3.42337">
        <ele>308.465</ele>
        <time>2019-07-04T14:06:08Z</time>
      </trkpt>
      <trkpt lat="46.12199" lon="3.42334">
        <ele>308.527</ele>
        <time>2019-07-04T14:06:15Z</time>
      </trkpt>
      <trkpt lat="46.12199" lon="3.42334">
        <ele>259</ele>
        <time>2019-07-04T14:06:22Z</time>
      </trkpt>
      <trkpt lat="46.12199" lon="3.42334">
        <ele>259</ele>
        <time>2019-07-04T14:07:21Z</time>
      </trkpt>
      <trkpt lat="46.12228" lon="3.42321">
        <ele>310.495</ele>
        <time>2019-07-04T14:07:21Z</time>
      </trkpt>
      <trkpt lat="46.12233" lon="3.42318">
        <ele>310.773</ele>
        <time>2019-07-04T14:07:26Z</time>
      </trkpt>
      <trkpt lat="46.12237" lon="3.42315">
        <ele>310.934</ele>
        <time>2019-07-04T14:07:29Z</time>
      </trkpt>
      <trkpt lat="46.1224" lon="3.4231">
        <ele>311.24</ele>
        <time>2019-07-04T14:07:35Z</time>
      </trkpt>
      <trkpt lat="46.12245" lon="3.4231">
        <ele>311.428</ele>
        <time>2019-07-04T14:07:39Z</time>
      </trkpt>
      <trkpt lat="46.12251" lon="3.42305">
        <ele>311.659</ele>
        <time>2019-07-04T14:07:44Z</time>
      </trkpt>
      <trkpt lat="46.12251" lon="3.42305">
        <ele>259</ele>
        <time>2019-07-04T14:07:52Z</time>
      </trkpt>
      <trkpt lat="46.12251" lon="3.42305">
        <ele>259</ele>
        <time>2019-07-04T14:08:22Z</time>
      </trkpt>
      <trkpt lat="46.12269" lon="3.42299">
        <ele>313.486</ele>
        <time>2019-07-04T14:08:22Z</time>
      </trkpt>
      <trkpt lat="46.12274" lon="3.42297">
        <ele>313.638</ele>
        <time>2019-07-04T14:08:25Z</time>
      </trkpt>
      <trkpt lat="46.12277" lon="3.42294">
        <ele>313.887</ele>
        <time>2019-07-04T14:08:30Z</time>
      </trkpt>
      <trkpt lat="46.12282" lon="3.4229">
        <ele>314.124</ele>
        <time>2019-07-04T14:08:35Z</time>
      </trkpt>
      <trkpt lat="46.12286" lon="3.42286">
        <ele>314.304</ele>
        <time>2019-07-04T14:08:39Z</time>
      </trkpt>
      <trkpt lat="46.1229" lon="3.42282">
        <ele>314.476</ele>
        <time>2019-07-04T14:08:43Z</time>
      </trkpt>
      <trkpt lat="46.12293" lon="3.42279">
        <ele>314.634</ele>
        <time>2019-07-04T14:08:47Z</time>
      </trkpt>
      <trkpt lat="46.12298" lon="3.42277">
        <ele>314.816</ele>
        <time>2019-07-04T14:08:52Z</time>
      </trkpt>
      <trkpt lat="46.12301" lon="3.42269">
        <ele>314.943</ele>
        <time>2019-07-04T14:08:57Z</time>
      </trkpt>
      <trkpt lat="46.12301" lon="3.42257">
        <ele>314.977</ele>
        <time>2019-07-04T14:09:00Z</time>
      </trkpt>
      <trkpt lat="46.12306" lon="3.42252">
        <ele>314.996</ele>
        <time>2019-07-04T14:09:02Z</time>
      </trkpt>
      <trkpt lat="46.12311" lon="3.42246">
        <ele>315.063</ele>
        <time>2019-07-04T14:09:09Z</time>
      </trkpt>
      <trkpt lat="46.12316" lon="3.42246">
        <ele>315.111</ele>
        <time>2019-07-04T14:09:13Z</time>
      </trkpt>
      <trkpt lat="46.12321" lon="3.42244">
        <ele>315.159</ele>
        <time>2019-07-04T14:09:16Z</time>
      </trkpt>
      <trkpt lat="46.12326" lon="3.42242">
        <ele>315.318</ele>
        <time>2019-07-04T14:09:24Z</time>
      </trkpt>
      <trkpt lat="46.12326" lon="3.42242">
        <ele>258</ele>
        <time>2019-07-04T14:09:31Z</time>
      </trkpt>
      <trkpt lat="46.12326" lon="3.42242">
        <ele>258</ele>
        <time>2019-07-04T14:10:15Z</time>
      </trkpt>
      <trkpt lat="46.12324" lon="3.42233">
        <ele>315.992</ele>
        <time>2019-07-04T14:11:28Z</time>
      </trkpt>
      <trkpt lat="46.1233" lon="3.42227">
        <ele>316.114</ele>
        <time>2019-07-04T14:11:35Z</time>
      </trkpt>
      <trkpt lat="46.12337" lon="3.42223">
        <ele>316.228</ele>
        <time>2019-07-04T14:11:46Z</time>
      </trkpt>
      <trkpt lat="46.12337" lon="3.42223">
        <ele>316.228</ele>
        <time>2019-07-04T14:14:14Z</time>
      </trkpt>
      <trkpt lat="46.1234" lon="3.4223">
        <ele>312.885</ele>
        <time>2019-07-04T14:26:29Z</time>
      </trkpt>
      <trkpt lat="46.12348" lon="3.42222">
        <ele>312.839</ele>
        <time>2019-07-04T14:26:35Z</time>
      </trkpt>
      <trkpt lat="46.12353" lon="3.4222">
        <ele>312.82</ele>
        <time>2019-07-04T14:26:38Z</time>
      </trkpt>
      <trkpt lat="46.12353" lon="3.4222">
        <ele>312.82</ele>
        <time>2019-07-04T14:26:45Z</time>
      </trkpt>
      <trkpt lat="46.12353" lon="3.4222">
        <ele>257.3</ele>
        <time>2019-07-04T14:26:45Z</time>
      </trkpt>
      <trkpt lat="46.12353" lon="3.4222">
        <ele>257.3</ele>
        <time>2019-07-04T14:27:00Z</time>
      </trkpt>
      <trkpt lat="46.12338" lon="3.42236">
        <ele>312.508</ele>
        <time>2019-07-04T14:27:00Z</time>
      </trkpt>
      <trkpt lat="46.12354" lon="3.42232">
        <ele>315.099</ele>
        <time>2019-07-04T14:27:42Z</time>
      </trkpt>
      <trkpt lat="46.12357" lon="3.42235">
        <ele>315.923</ele>
        <time>2019-07-04T14:27:48Z</time>
      </trkpt>
      <trkpt lat="46.12361" lon="3.4224">
        <ele>317.062</ele>
        <time>2019-07-04T14:27:55Z</time>
      </trkpt>
      <trkpt lat="46.12365" lon="3.42243">
        <ele>317.365</ele>
        <time>2019-07-04T14:27:57Z</time>
      </trkpt>
      <trkpt lat="46.12369" lon="3.42248">
        <ele>317.674</ele>
        <time>2019-07-04T14:28:00Z</time>
      </trkpt>
      <trkpt lat="46.12369" lon="3.42248">
        <ele>257</ele>
        <time>2019-07-04T14:28:06Z</time>
      </trkpt>
      <trkpt lat="46.12369" lon="3.42248">
        <ele>257</ele>
        <time>2019-07-04T14:28:13Z</time>
      </trkpt>
      <trkpt lat="46.12373" lon="3.42253">
        <ele>318.356</ele>
        <time>2019-07-04T14:28:13Z</time>
      </trkpt>
      <trkpt lat="46.12378" lon="3.42254">
        <ele>318.623</ele>
        <time>2019-07-04T14:28:17Z</time>
      </trkpt>
      <trkpt lat="46.12384" lon="3.42252">
        <ele>318.929</ele>
        <time>2019-07-04T14:28:22Z</time>
      </trkpt>
      <trkpt lat="46.12388" lon="3.42251">
        <ele>319.184</ele>
        <time>2019-07-04T14:28:27Z</time>
      </trkpt>
      <trkpt lat="46.12388" lon="3.42251">
        <ele>319.184</ele>
        <time>2019-07-04T14:28:35Z</time>
      </trkpt>
      <trkpt lat="46.12388" lon="3.42251">
        <ele>257</ele>
        <time>2019-07-04T14:28:35Z</time>
      </trkpt>
      <trkpt lat="46.12388" lon="3.42251">
        <ele>257</ele>
        <time>2019-07-04T14:29:04Z</time>
      </trkpt>
      <trkpt lat="46.12388" lon="3.42229">
        <ele>319.817</ele>
        <time>2019-07-04T14:29:04Z</time>
      </trkpt>
      <trkpt lat="46.12391" lon="3.42223">
        <ele>319.783</ele>
        <time>2019-07-04T14:29:09Z</time>
      </trkpt>
      <trkpt lat="46.12391" lon="3.42223">
        <ele>256.9</ele>
        <time>2019-07-04T14:29:17Z</time>
      </trkpt>
      <trkpt lat="46.12391" lon="3.42223">
        <ele>256.9</ele>
        <time>2019-07-04T14:29:24Z</time>
      </trkpt>
      <trkpt lat="46.12392" lon="3.42209">
        <ele>319.671</ele>
        <time>2019-07-04T14:29:24Z</time>
      </trkpt>
      <trkpt lat="46.12392" lon="3.42203">
        <ele>319.551</ele>
        <time>2019-07-04T14:29:37Z</time>
      </trkpt>
      <trkpt lat="46.12394" lon="3.42197">
        <ele>319.513</ele>
        <time>2019-07-04T14:29:39Z</time>
      </trkpt>
      <trkpt lat="46.12396" lon="3.4219">
        <ele>319.488</ele>
        <time>2019-07-04T14:29:41Z</time>
      </trkpt>
      <trkpt lat="46.12398" lon="3.42183">
        <ele>319.385</ele>
        <time>2019-07-04T14:29:45Z</time>
      </trkpt>
      <trkpt lat="46.12395" lon="3.42178">
        <ele>319.203</ele>
        <time>2019-07-04T14:29:53Z</time>
      </trkpt>
      <trkpt lat="46.12395" lon="3.42178">
        <ele>256</ele>
        <time>2019-07-04T14:30:00Z</time>
      </trkpt>
      <trkpt lat="46.12395" lon="3.42178">
        <ele>256</ele>
        <time>2019-07-04T14:30:09Z</time>
      </trkpt>
      <trkpt lat="46.12388" lon="3.42168">
        <ele>318.884</ele>
        <time>2019-07-04T14:30:09Z</time>
      </trkpt>
      <trkpt lat="46.12388" lon="3.42168">
        <ele>318.884</ele>
        <time>2019-07-04T14:30:16Z</time>
      </trkpt>
      <trkpt lat="46.12388" lon="3.42168">
        <ele>256</ele>
        <time>2019-07-04T14:30:16Z</time>
      </trkpt>
      <trkpt lat="46.12388" lon="3.42168">
        <ele>256</ele>
        <time>2019-07-04T14:30:39Z</time>
      </trkpt>
      <trkpt lat="46.12406" lon="3.4217">
        <ele>318.323</ele>
        <time>2019-07-04T14:30:39Z</time>
      </trkpt>
      <trkpt lat="46.12406" lon="3.4217">
        <ele>318.323</ele>
        <time>2019-07-04T14:30:44Z</time>
      </trkpt>
      <trkpt lat="46.12406" lon="3.4217">
        <ele>256</ele>
        <time>2019-07-04T14:30:44Z</time>
      </trkpt>
      <trkpt lat="46.12406" lon="3.4217">
        <ele>256</ele>
        <time>2019-07-04T14:32:11Z</time>
      </trkpt>
      <trkpt lat="46.12379" lon="3.42154">
        <ele>318.694</ele>
        <time>2019-07-04T14:32:11Z</time>
      </trkpt>
      <trkpt lat="46.12374" lon="3.42148">
        <ele>319.728</ele>
        <time>2019-07-04T14:33:30Z</time>
      </trkpt>
      <trkpt lat="46.12362" lon="3.42163">
        <ele>320.082</ele>
        <time>2019-07-04T14:33:50Z</time>
      </trkpt>
      <trkpt lat="46.12359" lon="3.4217">
        <ele>320.09</ele>
        <time>2019-07-04T14:33:55Z</time>
      </trkpt>
      <trkpt lat="46.12353" lon="3.4217">
        <ele>320.089</ele>
        <time>2019-07-04T14:33:58Z</time>
      </trkpt>
      <trkpt lat="46.12353" lon="3.4217">
        <ele>320.089</ele>
        <time>2019-07-04T14:34:13Z</time>
      </trkpt>
      <trkpt lat="46.12353" lon="3.4217">
        <ele>257</ele>
        <time>2019-07-04T14:34:13Z</time>
      </trkpt>
      <trkpt lat="46.12353" lon="3.4217">
        <ele>257</ele>
        <time>2019-07-04T14:34:20Z</time>
      </trkpt>
      <trkpt lat="46.12372" lon="3.42181">
        <ele>320.087</ele>
        <time>2019-07-04T14:34:20Z</time>
      </trkpt>
      <trkpt lat="46.12373" lon="3.42185">
        <ele>320.088</ele>
        <time>2019-07-04T14:34:25Z</time>
      </trkpt>
      <trkpt lat="46.12366" lon="3.4219">
        <ele>320.09</ele>
        <time>2019-07-04T14:34:28Z</time>
      </trkpt>
      <trkpt lat="46.12366" lon="3.4219">
        <ele>256.8</ele>
        <time>2019-07-04T14:34:38Z</time>
      </trkpt>
      <trkpt lat="46.12366" lon="3.4219">
        <ele>256.8</ele>
        <time>2019-07-04T14:34:43Z</time>
      </trkpt>
      <trkpt lat="46.12385" lon="3.42175">
        <ele>319.962</ele>
        <time>2019-07-04T14:35:10Z</time>
      </trkpt>
      <trkpt lat="46.12389" lon="3.42192">
        <ele>319.859</ele>
        <time>2019-07-04T14:35:21Z</time>
      </trkpt>
      <trkpt lat="46.12396" lon="3.4219">
        <ele>319.553</ele>
        <time>2019-07-04T14:35:32Z</time>
      </trkpt>
      <trkpt lat="46.12399" lon="3.42183">
        <ele>319.399</ele>
        <time>2019-07-04T14:35:49Z</time>
      </trkpt>
      <trkpt lat="46.12398" lon="3.42172">
        <ele>319.273</ele>
        <time>2019-07-04T14:36:03Z</time>
      </trkpt>
      <trkpt lat="46.12403" lon="3.42158">
        <ele>319.265</ele>
        <time>2019-07-04T14:36:04Z</time>
      </trkpt>
      <trkpt lat="46.12405" lon="3.42151">
        <ele>319.256</ele>
        <time>2019-07-04T14:36:05Z</time>
      </trkpt>
      <trkpt lat="46.12394" lon="3.42174">
        <ele>319.184</ele>
        <time>2019-07-04T14:36:12Z</time>
      </trkpt>
      <trkpt lat="46.12386" lon="3.4217">
        <ele>319.128</ele>
        <time>2019-07-04T14:36:17Z</time>
      </trkpt>
      <trkpt lat="46.12382" lon="3.42169">
        <ele>319.101</ele>
        <time>2019-07-04T14:36:22Z</time>
      </trkpt>
      <trkpt lat="46.12384" lon="3.42154">
        <ele>319.037</ele>
        <time>2019-07-04T14:36:25Z</time>
      </trkpt>
      <trkpt lat="46.12384" lon="3.42154">
        <ele>256.2</ele>
        <time>2019-07-04T14:36:33Z</time>
      </trkpt>
      <trkpt lat="46.12384" lon="3.42154">
        <ele>256.2</ele>
        <time>2019-07-04T14:36:57Z</time>
      </trkpt>
      <trkpt lat="46.12388" lon="3.42144">
        <ele>318.707</ele>
        <time>2019-07-04T14:36:57Z</time>
      </trkpt>
      <trkpt lat="46.12387" lon="3.42166">
        <ele>318.686</ele>
        <time>2019-07-04T14:37:32Z</time>
      </trkpt>
      <trkpt lat="46.12392" lon="3.42171">
        <ele>318.696</ele>
        <time>2019-07-04T14:37:50Z</time>
      </trkpt>
      <trkpt lat="46.12387" lon="3.4218">
        <ele>318.704</ele>
        <time>2019-07-04T14:37:54Z</time>
      </trkpt>
      <trkpt lat="46.12382" lon="3.42186">
        <ele>318.699</ele>
        <time>2019-07-04T14:37:57Z</time>
      </trkpt>
      <trkpt lat="46.12382" lon="3.42186">
        <ele>318.699</ele>
        <time>2019-07-04T14:38:03Z</time>
      </trkpt>
      <trkpt lat="46.12382" lon="3.42186">
        <ele>256.2</ele>
        <time>2019-07-04T14:38:03Z</time>
      </trkpt>
      <trkpt lat="46.12382" lon="3.42186">
        <ele>256.2</ele>
        <time>2019-07-04T14:38:50Z</time>
      </trkpt>
      <trkpt lat="46.12394" lon="3.42167">
        <ele>318.397</ele>
        <time>2019-07-04T14:38:50Z</time>
      </trkpt>
      <trkpt lat="46.12394" lon="3.42167">
        <ele>318.397</ele>
        <time>2019-07-04T14:38:55Z</time>
      </trkpt>
      <trkpt lat="46.12394" lon="3.42167">
        <ele>256</ele>
        <time>2019-07-04T14:38:55Z</time>
      </trkpt>
      <trkpt lat="46.12394" lon="3.42167">
        <ele>256</ele>
        <time>2019-07-04T14:39:12Z</time>
      </trkpt>
      <trkpt lat="46.12391" lon="3.42139">
        <ele>318.3</ele>
        <time>2019-07-04T14:39:12Z</time>
      </trkpt>
      <trkpt lat="46.12393" lon="3.42135">
        <ele>318.288</ele>
        <time>2019-07-04T14:39:13Z</time>
      </trkpt>
      <trkpt lat="46.12393" lon="3.42135">
        <ele>256</ele>
        <time>2019-07-04T14:39:18Z</time>
      </trkpt>
      <trkpt lat="46.12393" lon="3.42135">
        <ele>256</ele>
        <time>2019-07-04T14:40:50Z</time>
      </trkpt>
      <trkpt lat="46.12391" lon="3.42186">
        <ele>317.781</ele>
        <time>2019-07-04T14:40:50Z</time>
      </trkpt>
      <trkpt lat="46.12391" lon="3.42189">
        <ele>317.781</ele>
        <time>2019-07-04T14:40:51Z</time>
      </trkpt>
      <trkpt lat="46.12391" lon="3.42189">
        <ele>256</ele>
        <time>2019-07-04T14:40:57Z</time>
      </trkpt>
      <trkpt lat="46.12391" lon="3.42189">
        <ele>256</ele>
        <time>2019-07-04T14:41:11Z</time>
      </trkpt>
      <trkpt lat="46.1238" lon="3.42172">
        <ele>317.741</ele>
        <time>2019-07-04T14:41:11Z</time>
      </trkpt>
      <trkpt lat="46.12373" lon="3.42182">
        <ele>317.746</ele>
        <time>2019-07-04T14:41:15Z</time>
      </trkpt>
      <trkpt lat="46.12373" lon="3.42182">
        <ele>256.6</ele>
        <time>2019-07-04T14:41:21Z</time>
      </trkpt>
      <trkpt lat="46.12373" lon="3.42182">
        <ele>256.6</ele>
        <time>2019-07-04T14:41:31Z</time>
      </trkpt>
      <trkpt lat="46.1237" lon="3.42143">
        <ele>317.701</ele>
        <time>2019-07-04T14:41:31Z</time>
      </trkpt>
      <trkpt lat="46.1237" lon="3.42143">
        <ele>317.701</ele>
        <time>2019-07-04T14:41:38Z</time>
      </trkpt>
      <trkpt lat="46.1237" lon="3.42143">
        <ele>256.7</ele>
        <time>2019-07-04T14:41:38Z</time>
      </trkpt>
      <trkpt lat="46.1237" lon="3.42143">
        <ele>256.7</ele>
        <time>2019-07-04T14:43:20Z</time>
      </trkpt>
      <trkpt lat="46.1237" lon="3.42143">
        <ele>317.701</ele>
        <time>2019-07-04T14:45:23Z</time>
      </trkpt>
      <trkpt lat="46.12379" lon="3.42136">
        <ele>317.354</ele>
        <time>2019-07-04T14:45:43Z</time>
      </trkpt>
      <trkpt lat="46.12384" lon="3.42148">
        <ele>317.29</ele>
        <time>2019-07-04T14:45:48Z</time>
      </trkpt>
      <trkpt lat="46.1239" lon="3.42162">
        <ele>317.227</ele>
        <time>2019-07-04T14:45:55Z</time>
      </trkpt>
      <trkpt lat="46.12392" lon="3.42166">
        <ele>317.218</ele>
        <time>2019-07-04T14:45:56Z</time>
      </trkpt>
      <trkpt lat="46.12395" lon="3.42172">
        <ele>317.19</ele>
        <time>2019-07-04T14:45:58Z</time>
      </trkpt>
      <trkpt lat="46.12399" lon="3.42179">
        <ele>317.166</ele>
        <time>2019-07-04T14:46:00Z</time>
      </trkpt>
      <trkpt lat="46.12399" lon="3.42179">
        <ele>256</ele>
        <time>2019-07-04T14:46:12Z</time>
      </trkpt>
      <trkpt lat="46.12399" lon="3.42179">
        <ele>256</ele>
        <time>2019-07-04T14:46:59Z</time>
      </trkpt>
      <trkpt lat="46.12402" lon="3.42152">
        <ele>318.212</ele>
        <time>2019-07-04T14:46:59Z</time>
      </trkpt>
      <trkpt lat="46.12406" lon="3.42148">
        <ele>318.385</ele>
        <time>2019-07-04T14:47:03Z</time>
      </trkpt>
      <trkpt lat="46.1241" lon="3.42146">
        <ele>318.573</ele>
        <time>2019-07-04T14:47:08Z</time>
      </trkpt>
      <trkpt lat="46.12413" lon="3.42155">
        <ele>318.866</ele>
        <time>2019-07-04T14:47:18Z</time>
      </trkpt>
      <trkpt lat="46.12415" lon="3.42161">
        <ele>318.976</ele>
        <time>2019-07-04T14:47:23Z</time>
      </trkpt>
      <trkpt lat="46.12416" lon="3.42166">
        <ele>318.978</ele>
        <time>2019-07-04T14:47:24Z</time>
      </trkpt>
      <trkpt lat="46.12417" lon="3.42171">
        <ele>319.013</ele>
        <time>2019-07-04T14:47:26Z</time>
      </trkpt>
      <trkpt lat="46.12417" lon="3.42171">
        <ele>256</ele>
        <time>2019-07-04T14:47:31Z</time>
      </trkpt>
      <trkpt lat="46.12417" lon="3.42171">
        <ele>256</ele>
        <time>2019-07-04T14:48:26Z</time>
      </trkpt>
      <trkpt lat="46.12421" lon="3.42131">
        <ele>318.998</ele>
        <time>2019-07-04T14:48:26Z</time>
      </trkpt>
      <trkpt lat="46.12425" lon="3.42125">
        <ele>319.052</ele>
        <time>2019-07-04T14:48:30Z</time>
      </trkpt>
      <trkpt lat="46.1243" lon="3.42124">
        <ele>319.133</ele>
        <time>2019-07-04T14:48:34Z</time>
      </trkpt>
      <trkpt lat="46.12434" lon="3.42127">
        <ele>319.214</ele>
        <time>2019-07-04T14:48:37Z</time>
      </trkpt>
      <trkpt lat="46.12439" lon="3.42125">
        <ele>319.296</ele>
        <time>2019-07-04T14:48:40Z</time>
      </trkpt>
      <trkpt lat="46.12444" lon="3.42126">
        <ele>319.463</ele>
        <time>2019-07-04T14:48:46Z</time>
      </trkpt>
      <trkpt lat="46.12446" lon="3.42127">
        <ele>319.538</ele>
        <time>2019-07-04T14:48:49Z</time>
      </trkpt>
      <trkpt lat="46.12451" lon="3.42127">
        <ele>319.672</ele>
        <time>2019-07-04T14:48:56Z</time>
      </trkpt>
      <trkpt lat="46.12455" lon="3.42124">
        <ele>319.721</ele>
        <time>2019-07-04T14:48:59Z</time>
      </trkpt>
      <trkpt lat="46.1246" lon="3.42122">
        <ele>319.762</ele>
        <time>2019-07-04T14:49:02Z</time>
      </trkpt>
      <trkpt lat="46.12463" lon="3.42121">
        <ele>319.776</ele>
        <time>2019-07-04T14:49:03Z</time>
      </trkpt>
      <trkpt lat="46.12469" lon="3.42121">
        <ele>319.807</ele>
        <time>2019-07-04T14:49:06Z</time>
      </trkpt>
      <trkpt lat="46.12474" lon="3.42124">
        <ele>319.855</ele>
        <time>2019-07-04T14:49:12Z</time>
      </trkpt>
      <trkpt lat="46.12479" lon="3.42122">
        <ele>319.914</ele>
        <time>2019-07-04T14:49:19Z</time>
      </trkpt>
      <trkpt lat="46.12485" lon="3.42118">
        <ele>319.949</ele>
        <time>2019-07-04T14:49:23Z</time>
      </trkpt>
      <trkpt lat="46.12488" lon="3.42112">
        <ele>319.959</ele>
        <time>2019-07-04T14:49:25Z</time>
      </trkpt>
      <trkpt lat="46.12489" lon="3.42109">
        <ele>319.965</ele>
        <time>2019-07-04T14:49:27Z</time>
      </trkpt>
      <trkpt lat="46.12491" lon="3.42103">
        <ele>319.969</ele>
        <time>2019-07-04T14:49:32Z</time>
      </trkpt>
      <trkpt lat="46.12491" lon="3.42103">
        <ele>319.969</ele>
        <time>2019-07-04T14:49:40Z</time>
      </trkpt>
      <trkpt lat="46.12491" lon="3.42103">
        <ele>255</ele>
        <time>2019-07-04T14:49:40Z</time>
      </trkpt>
      <trkpt lat="46.12491" lon="3.42103">
        <ele>255</ele>
        <time>2019-07-04T14:50:35Z</time>
      </trkpt>
      <trkpt lat="46.12495" lon="3.42127">
        <ele>321.112</ele>
        <time>2019-07-04T14:50:40Z</time>
      </trkpt>
      <trkpt lat="46.12498" lon="3.42136">
        <ele>322.802</ele>
        <time>2019-07-04T14:50:42Z</time>
      </trkpt>
      <trkpt lat="46.12502" lon="3.42141">
        <ele>323.024</ele>
        <time>2019-07-04T14:50:44Z</time>
      </trkpt>
      <trkpt lat="46.12502" lon="3.42141">
        <ele>323.024</ele>
        <time>2019-07-04T14:50:50Z</time>
      </trkpt>
      <trkpt lat="46.12502" lon="3.42141">
        <ele>255</ele>
        <time>2019-07-04T14:50:50Z</time>
      </trkpt>
      <trkpt lat="46.12502" lon="3.42141">
        <ele>255</ele>
        <time>2019-07-04T14:50:53Z</time>
      </trkpt>
      <trkpt lat="46.12501" lon="3.42153">
        <ele>324.173</ele>
        <time>2019-07-04T14:50:53Z</time>
      </trkpt>
      <trkpt lat="46.12502" lon="3.42158">
        <ele>325.029</ele>
        <time>2019-07-04T14:51:01Z</time>
      </trkpt>
      <trkpt lat="46.12499" lon="3.42168">
        <ele>325.462</ele>
        <time>2019-07-04T14:51:05Z</time>
      </trkpt>
      <trkpt lat="46.12502" lon="3.42181">
        <ele>325.847</ele>
        <time>2019-07-04T14:51:09Z</time>
      </trkpt>
      <trkpt lat="46.12506" lon="3.42186">
        <ele>326.283</ele>
        <time>2019-07-04T14:51:14Z</time>
      </trkpt>
      <trkpt lat="46.1251" lon="3.42191">
        <ele>326.589</ele>
        <time>2019-07-04T14:51:18Z</time>
      </trkpt>
      <trkpt lat="46.12514" lon="3.42194">
        <ele>326.663</ele>
        <time>2019-07-04T14:51:19Z</time>
      </trkpt>
      <trkpt lat="46.12518" lon="3.42198">
        <ele>326.716</ele>
        <time>2019-07-04T14:51:20Z</time>
      </trkpt>
      <trkpt lat="46.1252" lon="3.42204">
        <ele>327.083</ele>
        <time>2019-07-04T14:51:27Z</time>
      </trkpt>
      <trkpt lat="46.1252" lon="3.42211">
        <ele>327.22</ele>
        <time>2019-07-04T14:51:30Z</time>
      </trkpt>
      <trkpt lat="46.12519" lon="3.42217">
        <ele>327.368</ele>
        <time>2019-07-04T14:51:37Z</time>
      </trkpt>
      <trkpt lat="46.12519" lon="3.42225">
        <ele>327.346</ele>
        <time>2019-07-04T14:51:40Z</time>
      </trkpt>
      <trkpt lat="46.12522" lon="3.4223">
        <ele>326.643</ele>
        <time>2019-07-04T14:51:54Z</time>
      </trkpt>
      <trkpt lat="46.12524" lon="3.42233">
        <ele>326.48</ele>
        <time>2019-07-04T14:51:56Z</time>
      </trkpt>
      <trkpt lat="46.12528" lon="3.42242">
        <ele>325.901</ele>
        <time>2019-07-04T14:52:03Z</time>
      </trkpt>
      <trkpt lat="46.1253" lon="3.42246">
        <ele>325.724</ele>
        <time>2019-07-04T14:52:05Z</time>
      </trkpt>
      <trkpt lat="46.12533" lon="3.42251">
        <ele>325.416</ele>
        <time>2019-07-04T14:52:08Z</time>
      </trkpt>
      <trkpt lat="46.12533" lon="3.42251">
        <ele>325.416</ele>
        <time>2019-07-04T14:52:13Z</time>
      </trkpt>
      <trkpt lat="46.12533" lon="3.42251">
        <ele>256</ele>
        <time>2019-07-04T14:52:13Z</time>
      </trkpt>
      <trkpt lat="46.12533" lon="3.42251">
        <ele>256</ele>
        <time>2019-07-04T14:53:16Z</time>
      </trkpt>
      <trkpt lat="46.12537" lon="3.42277">
        <ele>323.831</ele>
        <time>2019-07-04T14:53:16Z</time>
      </trkpt>
      <trkpt lat="46.12538" lon="3.42284">
        <ele>323.812</ele>
        <time>2019-07-04T14:53:20Z</time>
      </trkpt>
      <trkpt lat="46.12539" lon="3.42288">
        <ele>323.77</ele>
        <time>2019-07-04T14:53:24Z</time>
      </trkpt>
      <trkpt lat="46.12537" lon="3.42298">
        <ele>323.678</ele>
        <time>2019-07-04T14:53:32Z</time>
      </trkpt>
      <trkpt lat="46.12527" lon="3.42298">
        <ele>323.548</ele>
        <time>2019-07-04T14:53:41Z</time>
      </trkpt>
      <trkpt lat="46.12522" lon="3.42302">
        <ele>323.548</ele>
        <time>2019-07-04T14:53:42Z</time>
      </trkpt>
      <trkpt lat="46.12512" lon="3.42308">
        <ele>323.55</ele>
        <time>2019-07-04T14:53:43Z</time>
      </trkpt>
      <trkpt lat="46.12507" lon="3.42314">
        <ele>323.553</ele>
        <time>2019-07-04T14:53:45Z</time>
      </trkpt>
      <trkpt lat="46.12505" lon="3.42317">
        <ele>323.557</ele>
        <time>2019-07-04T14:53:46Z</time>
      </trkpt>
      <trkpt lat="46.12505" lon="3.42317">
        <ele>323.557</ele>
        <time>2019-07-04T14:53:52Z</time>
      </trkpt>
      <trkpt lat="46.12505" lon="3.42317">
        <ele>256</ele>
        <time>2019-07-04T14:53:52Z</time>
      </trkpt>
      <trkpt lat="46.12505" lon="3.42317">
        <ele>256</ele>
        <time>2019-07-04T14:54:40Z</time>
      </trkpt>
      <trkpt lat="46.12521" lon="3.42348">
        <ele>323.988</ele>
        <time>2019-07-04T14:54:40Z</time>
      </trkpt>
      <trkpt lat="46.12516" lon="3.42365">
        <ele>324.005</ele>
        <time>2019-07-04T14:54:43Z</time>
      </trkpt>
      <trkpt lat="46.12516" lon="3.42365">
        <ele>256</ele>
        <time>2019-07-04T14:54:48Z</time>
      </trkpt>
      <trkpt lat="46.12516" lon="3.42365">
        <ele>256</ele>
        <time>2019-07-04T14:55:12Z</time>
      </trkpt>
      <trkpt lat="46.12527" lon="3.42309">
        <ele>324.016</ele>
        <time>2019-07-04T14:55:12Z</time>
      </trkpt>
      <trkpt lat="46.12527" lon="3.42309">
        <ele>324.016</ele>
        <time>2019-07-04T14:55:19Z</time>
      </trkpt>
      <trkpt lat="46.12527" lon="3.42309">
        <ele>256</ele>
        <time>2019-07-04T14:55:19Z</time>
      </trkpt>
      <trkpt lat="46.12527" lon="3.42309">
        <ele>256</ele>
        <time>2019-07-04T14:55:23Z</time>
      </trkpt>
      <trkpt lat="46.12537" lon="3.4229">
        <ele>324.026</ele>
        <time>2019-07-04T14:55:27Z</time>
      </trkpt>
      <trkpt lat="46.12535" lon="3.42301">
        <ele>324.046</ele>
        <time>2019-07-04T14:55:35Z</time>
      </trkpt>
      <trkpt lat="46.12532" lon="3.42307">
        <ele>324.046</ele>
        <time>2019-07-04T14:55:37Z</time>
      </trkpt>
      <trkpt lat="46.12531" lon="3.42316">
        <ele>324.033</ele>
        <time>2019-07-04T14:55:42Z</time>
      </trkpt>
      <trkpt lat="46.12529" lon="3.42322">
        <ele>324.023</ele>
        <time>2019-07-04T14:55:46Z</time>
      </trkpt>
      <trkpt lat="46.12528" lon="3.42329">
        <ele>324.007</ele>
        <time>2019-07-04T14:55:51Z</time>
      </trkpt>
      <trkpt lat="46.12526" lon="3.42336">
        <ele>323.971</ele>
        <time>2019-07-04T14:55:58Z</time>
      </trkpt>
      <trkpt lat="46.12525" lon="3.42343">
        <ele>323.893</ele>
        <time>2019-07-04T14:56:10Z</time>
      </trkpt>
      <trkpt lat="46.12525" lon="3.42346">
        <ele>323.682</ele>
        <time>2019-07-04T14:56:24Z</time>
      </trkpt>
      <trkpt lat="46.12525" lon="3.42353">
        <ele>323.596</ele>
        <time>2019-07-04T14:56:29Z</time>
      </trkpt>
      <trkpt lat="46.12525" lon="3.4236">
        <ele>323.505</ele>
        <time>2019-07-04T14:56:34Z</time>
      </trkpt>
      <trkpt lat="46.12524" lon="3.42368">
        <ele>323.384</ele>
        <time>2019-07-04T14:56:40Z</time>
      </trkpt>
      <trkpt lat="46.12523" lon="3.42372">
        <ele>323.269</ele>
        <time>2019-07-04T14:56:44Z</time>
      </trkpt>
      <trkpt lat="46.12525" lon="3.42377">
        <ele>323.14</ele>
        <time>2019-07-04T14:56:50Z</time>
      </trkpt>
      <trkpt lat="46.12525" lon="3.42377">
        <ele>323.14</ele>
        <time>2019-07-04T14:56:57Z</time>
      </trkpt>
      <trkpt lat="46.12525" lon="3.42377">
        <ele>256</ele>
        <time>2019-07-04T14:56:57Z</time>
      </trkpt>
      <trkpt lat="46.12525" lon="3.42377">
        <ele>256</ele>
        <time>2019-07-04T14:57:46Z</time>
      </trkpt>
      <trkpt lat="46.12514" lon="3.42384">
        <ele>322.333</ele>
        <time>2019-07-04T15:00:47Z</time>
      </trkpt>
      <trkpt lat="46.12515" lon="3.4239">
        <ele>322.303</ele>
        <time>2019-07-04T15:00:57Z</time>
      </trkpt>
      <trkpt lat="46.12512" lon="3.42397">
        <ele>322.285</ele>
        <time>2019-07-04T15:00:59Z</time>
      </trkpt>
      <trkpt lat="46.12512" lon="3.42397">
        <ele>322.285</ele>
        <time>2019-07-04T15:01:05Z</time>
      </trkpt>
      <trkpt lat="46.12512" lon="3.42397">
        <ele>256.2</ele>
        <time>2019-07-04T15:01:05Z</time>
      </trkpt>
      <trkpt lat="46.12512" lon="3.42397">
        <ele>256.2</ele>
        <time>2019-07-04T15:02:33Z</time>
      </trkpt>
      <trkpt lat="46.12521" lon="3.42416">
        <ele>322.5</ele>
        <time>2019-07-04T15:03:27Z</time>
      </trkpt>
      <trkpt lat="46.12521" lon="3.42422">
        <ele>322.508</ele>
        <time>2019-07-04T15:03:32Z</time>
      </trkpt>
      <trkpt lat="46.1252" lon="3.4243">
        <ele>322.539</ele>
        <time>2019-07-04T15:03:37Z</time>
      </trkpt>
      <trkpt lat="46.12519" lon="3.42437">
        <ele>322.632</ele>
        <time>2019-07-04T15:03:42Z</time>
      </trkpt>
      <trkpt lat="46.12518" lon="3.42445">
        <ele>322.599</ele>
        <time>2019-07-04T15:03:46Z</time>
      </trkpt>
      <trkpt lat="46.12518" lon="3.42445">
        <ele>256</ele>
        <time>2019-07-04T15:03:53Z</time>
      </trkpt>
      <trkpt lat="46.12518" lon="3.42445">
        <ele>256</ele>
        <time>2019-07-04T15:05:08Z</time>
      </trkpt>
      <trkpt lat="46.1249" lon="3.42473">
        <ele>321.242</ele>
        <time>2019-07-04T15:05:10Z</time>
      </trkpt>
      <trkpt lat="46.12488" lon="3.42473">
        <ele>321.33</ele>
        <time>2019-07-04T15:05:12Z</time>
      </trkpt>
      <trkpt lat="46.12488" lon="3.42473">
        <ele>256</ele>
        <time>2019-07-04T15:05:20Z</time>
      </trkpt>
      <trkpt lat="46.12488" lon="3.42473">
        <ele>256</ele>
        <time>2019-07-04T15:05:26Z</time>
      </trkpt>
      <trkpt lat="46.12482" lon="3.42464">
        <ele>322.142</ele>
        <time>2019-07-04T15:05:26Z</time>
      </trkpt>
      <trkpt lat="46.12477" lon="3.42463">
        <ele>322.514</ele>
        <time>2019-07-04T15:05:32Z</time>
      </trkpt>
      <trkpt lat="46.12474" lon="3.42463">
        <ele>322.712</ele>
        <time>2019-07-04T15:05:36Z</time>
      </trkpt>
      <trkpt lat="46.12468" lon="3.42463">
        <ele>322.899</ele>
        <time>2019-07-04T15:05:40Z</time>
      </trkpt>
      <trkpt lat="46.12464" lon="3.4246">
        <ele>323.048</ele>
        <time>2019-07-04T15:05:44Z</time>
      </trkpt>
      <trkpt lat="46.12461" lon="3.42459">
        <ele>323.109</ele>
        <time>2019-07-04T15:05:46Z</time>
      </trkpt>
      <trkpt lat="46.12457" lon="3.42456">
        <ele>323.188</ele>
        <time>2019-07-04T15:05:49Z</time>
      </trkpt>
      <trkpt lat="46.12454" lon="3.42454">
        <ele>323.235</ele>
        <time>2019-07-04T15:05:51Z</time>
      </trkpt>
      <trkpt lat="46.12449" lon="3.42451">
        <ele>323.369</ele>
        <time>2019-07-04T15:05:57Z</time>
      </trkpt>
      <trkpt lat="46.12444" lon="3.4245">
        <ele>323.452</ele>
        <time>2019-07-04T15:06:01Z</time>
      </trkpt>
      <trkpt lat="46.1244" lon="3.42451">
        <ele>323.511</ele>
        <time>2019-07-04T15:06:04Z</time>
      </trkpt>
      <trkpt lat="46.12435" lon="3.4245">
        <ele>323.617</ele>
        <time>2019-07-04T15:06:10Z</time>
      </trkpt>
      <trkpt lat="46.12432" lon="3.42443">
        <ele>323.68</ele>
        <time>2019-07-04T15:06:14Z</time>
      </trkpt>
      <trkpt lat="46.12427" lon="3.4244">
        <ele>323.758</ele>
        <time>2019-07-04T15:06:19Z</time>
      </trkpt>
      <trkpt lat="46.12424" lon="3.42438">
        <ele>323.818</ele>
        <time>2019-07-04T15:06:24Z</time>
      </trkpt>
      <trkpt lat="46.1242" lon="3.4244">
        <ele>323.959</ele>
        <time>2019-07-04T15:06:39Z</time>
      </trkpt>
      <trkpt lat="46.12416" lon="3.42434">
        <ele>324.003</ele>
        <time>2019-07-04T15:06:43Z</time>
      </trkpt>
      <trkpt lat="46.12414" lon="3.42426">
        <ele>324.057</ele>
        <time>2019-07-04T15:06:51Z</time>
      </trkpt>
      <trkpt lat="46.12412" lon="3.42421">
        <ele>324.083</ele>
        <time>2019-07-04T15:06:57Z</time>
      </trkpt>
      <trkpt lat="46.12412" lon="3.42414">
        <ele>324.083</ele>
        <time>2019-07-04T15:07:01Z</time>
      </trkpt>
      <trkpt lat="46.12412" lon="3.4241">
        <ele>324.074</ele>
        <time>2019-07-04T15:07:05Z</time>
      </trkpt>
      <trkpt lat="46.12413" lon="3.42406">
        <ele>324.058</ele>
        <time>2019-07-04T15:07:08Z</time>
      </trkpt>
      <trkpt lat="46.12411" lon="3.42399">
        <ele>324.009</ele>
        <time>2019-07-04T15:07:15Z</time>
      </trkpt>
      <trkpt lat="46.1241" lon="3.4239">
        <ele>323.947</ele>
        <time>2019-07-04T15:07:20Z</time>
      </trkpt>
      <trkpt lat="46.1241" lon="3.42385">
        <ele>323.905</ele>
        <time>2019-07-04T15:07:23Z</time>
      </trkpt>
      <trkpt lat="46.12409" lon="3.42378">
        <ele>323.857</ele>
        <time>2019-07-04T15:07:26Z</time>
      </trkpt>
      <trkpt lat="46.12409" lon="3.42371">
        <ele>323.81</ele>
        <time>2019-07-04T15:07:29Z</time>
      </trkpt>
      <trkpt lat="46.12408" lon="3.42364">
        <ele>323.74</ele>
        <time>2019-07-04T15:07:33Z</time>
      </trkpt>
      <trkpt lat="46.1241" lon="3.42357">
        <ele>323.653</ele>
        <time>2019-07-04T15:07:37Z</time>
      </trkpt>
      <trkpt lat="46.12411" lon="3.4235">
        <ele>323.544</ele>
        <time>2019-07-04T15:07:41Z</time>
      </trkpt>
      <trkpt lat="46.12411" lon="3.42342">
        <ele>323.429</ele>
        <time>2019-07-04T15:07:45Z</time>
      </trkpt>
      <trkpt lat="46.1241" lon="3.42338">
        <ele>323.373</ele>
        <time>2019-07-04T15:07:47Z</time>
      </trkpt>
      <trkpt lat="46.12411" lon="3.4233">
        <ele>323.229</ele>
        <time>2019-07-04T15:07:52Z</time>
      </trkpt>
      <trkpt lat="46.12411" lon="3.42326">
        <ele>323.139</ele>
        <time>2019-07-04T15:07:55Z</time>
      </trkpt>
      <trkpt lat="46.12412" lon="3.42319">
        <ele>323.015</ele>
        <time>2019-07-04T15:07:59Z</time>
      </trkpt>
      <trkpt lat="46.12411" lon="3.42313">
        <ele>322.851</ele>
        <time>2019-07-04T15:08:04Z</time>
      </trkpt>
      <trkpt lat="46.12409" lon="3.42307">
        <ele>322.653</ele>
        <time>2019-07-04T15:08:10Z</time>
      </trkpt>
      <trkpt lat="46.1241" lon="3.423">
        <ele>322.477</ele>
        <time>2019-07-04T15:08:16Z</time>
      </trkpt>
      <trkpt lat="46.1241" lon="3.42297">
        <ele>322.39</ele>
        <time>2019-07-04T15:08:19Z</time>
      </trkpt>
      <trkpt lat="46.1241" lon="3.42293">
        <ele>322.303</ele>
        <time>2019-07-04T15:08:22Z</time>
      </trkpt>
      <trkpt lat="46.12412" lon="3.42285">
        <ele>322.128</ele>
        <time>2019-07-04T15:08:28Z</time>
      </trkpt>
      <trkpt lat="46.12412" lon="3.42277">
        <ele>322.015</ele>
        <time>2019-07-04T15:08:32Z</time>
      </trkpt>
      <trkpt lat="46.12412" lon="3.4227">
        <ele>321.875</ele>
        <time>2019-07-04T15:08:37Z</time>
      </trkpt>
      <trkpt lat="46.12411" lon="3.42263">
        <ele>321.733</ele>
        <time>2019-07-04T15:08:42Z</time>
      </trkpt>
      <trkpt lat="46.12414" lon="3.42256">
        <ele>321.591</ele>
        <time>2019-07-04T15:08:47Z</time>
      </trkpt>
      <trkpt lat="46.12418" lon="3.42251">
        <ele>321.447</ele>
        <time>2019-07-04T15:08:53Z</time>
      </trkpt>
      <trkpt lat="46.12422" lon="3.42249">
        <ele>321.353</ele>
        <time>2019-07-04T15:08:59Z</time>
      </trkpt>
      <trkpt lat="46.12424" lon="3.42248">
        <ele>321.263</ele>
        <time>2019-07-04T15:09:05Z</time>
      </trkpt>
      <trkpt lat="46.12434" lon="3.42249">
        <ele>321.151</ele>
        <time>2019-07-04T15:09:14Z</time>
      </trkpt>
      <trkpt lat="46.12438" lon="3.42251">
        <ele>321.097</ele>
        <time>2019-07-04T15:09:19Z</time>
      </trkpt>
      <trkpt lat="46.12443" lon="3.42252">
        <ele>321.042</ele>
        <time>2019-07-04T15:09:26Z</time>
      </trkpt>
      <trkpt lat="46.12448" lon="3.42249">
        <ele>321.001</ele>
        <time>2019-07-04T15:09:36Z</time>
      </trkpt>
      <trkpt lat="46.12467" lon="3.42236">
        <ele>320.777</ele>
        <time>2019-07-04T15:13:50Z</time>
      </trkpt>
      <trkpt lat="46.12467" lon="3.42236">
        <ele>320.777</ele>
        <time>2019-07-04T15:16:19Z</time>
      </trkpt>
      <trkpt lat="46.1249" lon="3.42268">
        <ele>328.171</ele>
        <time>2019-07-04T15:16:20Z</time>
      </trkpt>
      <trkpt lat="46.12492" lon="3.42273">
        <ele>328.198</ele>
        <time>2019-07-04T15:16:22Z</time>
      </trkpt>
      <trkpt lat="46.12492" lon="3.42273">
        <ele>328.198</ele>
        <time>2019-07-04T15:16:30Z</time>
      </trkpt>
      <trkpt lat="46.12492" lon="3.42273">
        <ele>256</ele>
        <time>2019-07-04T15:16:30Z</time>
      </trkpt>
      <trkpt lat="46.12492" lon="3.42273">
        <ele>256</ele>
        <time>2019-07-04T15:16:39Z</time>
      </trkpt>
      <trkpt lat="46.12504" lon="3.42254">
        <ele>328.673</ele>
        <time>2019-07-04T15:16:39Z</time>
      </trkpt>
      <trkpt lat="46.12504" lon="3.42254">
        <ele>328.673</ele>
        <time>2019-07-04T15:16:44Z</time>
      </trkpt>
      <trkpt lat="46.12504" lon="3.42254">
        <ele>256</ele>
        <time>2019-07-04T15:16:44Z</time>
      </trkpt>
      <trkpt lat="46.12504" lon="3.42254">
        <ele>256</ele>
        <time>2019-07-04T15:16:50Z</time>
      </trkpt>
      <trkpt lat="46.12501" lon="3.42241">
        <ele>328.643</ele>
        <time>2019-07-04T15:16:50Z</time>
      </trkpt>
      <trkpt lat="46.12499" lon="3.42237">
        <ele>328.609</ele>
        <time>2019-07-04T15:16:52Z</time>
      </trkpt>
      <trkpt lat="46.12498" lon="3.42229">
        <ele>328.501</ele>
        <time>2019-07-04T15:16:56Z</time>
      </trkpt>
      <trkpt lat="46.12497" lon="3.42226">
        <ele>328.439</ele>
        <time>2019-07-04T15:16:58Z</time>
      </trkpt>
      <trkpt lat="46.12497" lon="3.42219">
        <ele>328.276</ele>
        <time>2019-07-04T15:17:02Z</time>
      </trkpt>
      <trkpt lat="46.12496" lon="3.42213">
        <ele>328.054</ele>
        <time>2019-07-04T15:17:08Z</time>
      </trkpt>
      <trkpt lat="46.12496" lon="3.42213">
        <ele>328.054</ele>
        <time>2019-07-04T15:19:09Z</time>
      </trkpt>
      <trkpt lat="46.12495" lon="3.42203">
        <ele>323.785</ele>
        <time>2019-07-04T15:20:13Z</time>
      </trkpt>
      <trkpt lat="46.12498" lon="3.42197">
        <ele>323.999</ele>
        <time>2019-07-04T15:20:20Z</time>
      </trkpt>
      <trkpt lat="46.12498" lon="3.42189">
        <ele>324.238</ele>
        <time>2019-07-04T15:20:24Z</time>
      </trkpt>
      <trkpt lat="46.12493" lon="3.42185">
        <ele>324.444</ele>
        <time>2019-07-04T15:20:28Z</time>
      </trkpt>
      <trkpt lat="46.12484" lon="3.42176">
        <ele>324.685</ele>
        <time>2019-07-04T15:20:33Z</time>
      </trkpt>
      <trkpt lat="46.1248" lon="3.4217">
        <ele>324.743</ele>
        <time>2019-07-04T15:20:35Z</time>
      </trkpt>
      <trkpt lat="46.12478" lon="3.42163">
        <ele>324.812</ele>
        <time>2019-07-04T15:20:40Z</time>
      </trkpt>
      <trkpt lat="46.12477" lon="3.42158">
        <ele>324.822</ele>
        <time>2019-07-04T15:20:42Z</time>
      </trkpt>
      <trkpt lat="46.12474" lon="3.42152">
        <ele>324.729</ele>
        <time>2019-07-04T15:20:47Z</time>
      </trkpt>
      <trkpt lat="46.12474" lon="3.42152">
        <ele>254.6</ele>
        <time>2019-07-04T15:20:54Z</time>
      </trkpt>
      <trkpt lat="46.12474" lon="3.42152">
        <ele>254.6</ele>
        <time>2019-07-04T15:21:01Z</time>
      </trkpt>
      <trkpt lat="46.12475" lon="3.4214">
        <ele>324.477</ele>
        <time>2019-07-04T15:21:01Z</time>
      </trkpt>
      <trkpt lat="46.12474" lon="3.42133">
        <ele>324.258</ele>
        <time>2019-07-04T15:21:07Z</time>
      </trkpt>
      <trkpt lat="46.12475" lon="3.42126">
        <ele>324.011</ele>
        <time>2019-07-04T15:21:12Z</time>
      </trkpt>
      <trkpt lat="46.1248" lon="3.42121">
        <ele>323.775</ele>
        <time>2019-07-04T15:21:17Z</time>
      </trkpt>
      <trkpt lat="46.12484" lon="3.42117">
        <ele>323.616</ele>
        <time>2019-07-04T15:21:21Z</time>
      </trkpt>
      <trkpt lat="46.12484" lon="3.42117">
        <ele>255</ele>
        <time>2019-07-04T15:21:28Z</time>
      </trkpt>
      <trkpt lat="46.12484" lon="3.42117">
        <ele>255</ele>
        <time>2019-07-04T15:21:44Z</time>
      </trkpt>
      <trkpt lat="46.12468" lon="3.4212">
        <ele>323.103</ele>
        <time>2019-07-04T15:21:44Z</time>
      </trkpt>
      <trkpt lat="46.12464" lon="3.42125">
        <ele>322.945</ele>
        <time>2019-07-04T15:21:49Z</time>
      </trkpt>
      <trkpt lat="46.1246" lon="3.42127">
        <ele>322.837</ele>
        <time>2019-07-04T15:21:52Z</time>
      </trkpt>
      <trkpt lat="46.12457" lon="3.42128">
        <ele>322.734</ele>
        <time>2019-07-04T15:21:55Z</time>
      </trkpt>
      <trkpt lat="46.12454" lon="3.42129">
        <ele>322.601</ele>
        <time>2019-07-04T15:22:00Z</time>
      </trkpt>
      <trkpt lat="46.12449" lon="3.42131">
        <ele>322.454</ele>
        <time>2019-07-04T15:22:05Z</time>
      </trkpt>
      <trkpt lat="46.12443" lon="3.42133">
        <ele>322.35</ele>
        <time>2019-07-04T15:22:09Z</time>
      </trkpt>
      <trkpt lat="46.12439" lon="3.42133">
        <ele>322.304</ele>
        <time>2019-07-04T15:22:11Z</time>
      </trkpt>
      <trkpt lat="46.12435" lon="3.42135">
        <ele>322.234</ele>
        <time>2019-07-04T15:22:15Z</time>
      </trkpt>
      <trkpt lat="46.12429" lon="3.42136">
        <ele>322.184</ele>
        <time>2019-07-04T15:22:20Z</time>
      </trkpt>
      <trkpt lat="46.12425" lon="3.42139">
        <ele>322.171</ele>
        <time>2019-07-04T15:22:23Z</time>
      </trkpt>
      <trkpt lat="46.1242" lon="3.42138">
        <ele>322.169</ele>
        <time>2019-07-04T15:22:27Z</time>
      </trkpt>
      <trkpt lat="46.12416" lon="3.42141">
        <ele>322.189</ele>
        <time>2019-07-04T15:22:32Z</time>
      </trkpt>
      <trkpt lat="46.12413" lon="3.42144">
        <ele>322.231</ele>
        <time>2019-07-04T15:22:39Z</time>
      </trkpt>
      <trkpt lat="46.12413" lon="3.42144">
        <ele>256</ele>
        <time>2019-07-04T15:22:46Z</time>
      </trkpt>
      <trkpt lat="46.12413" lon="3.42144">
        <ele>256</ele>
        <time>2019-07-04T15:23:19Z</time>
      </trkpt>
      <trkpt lat="46.12405" lon="3.42162">
        <ele>321.48</ele>
        <time>2019-07-04T15:25:28Z</time>
      </trkpt>
      <trkpt lat="46.12404" lon="3.4217">
        <ele>321.307</ele>
        <time>2019-07-04T15:25:34Z</time>
      </trkpt>
      <trkpt lat="46.12404" lon="3.42174">
        <ele>321.141</ele>
        <time>2019-07-04T15:25:38Z</time>
      </trkpt>
      <trkpt lat="46.12404" lon="3.42174">
        <ele>321.141</ele>
        <time>2019-07-04T15:25:45Z</time>
      </trkpt>
      <trkpt lat="46.12404" lon="3.42174">
        <ele>256</ele>
        <time>2019-07-04T15:25:45Z</time>
      </trkpt>
      <trkpt lat="46.12404" lon="3.42174">
        <ele>256</ele>
        <time>2019-07-04T15:26:27Z</time>
      </trkpt>
      <trkpt lat="46.12393" lon="3.42186">
        <ele>319.758</ele>
        <time>2019-07-04T15:29:24Z</time>
      </trkpt>
      <trkpt lat="46.12398" lon="3.42196">
        <ele>319.742</ele>
        <time>2019-07-04T15:29:28Z</time>
      </trkpt>
      <trkpt lat="46.12403" lon="3.42198">
        <ele>319.772</ele>
        <time>2019-07-04T15:29:30Z</time>
      </trkpt>
      <trkpt lat="46.12408" lon="3.42201">
        <ele>320.537</ele>
        <time>2019-07-04T15:29:38Z</time>
      </trkpt>
      <trkpt lat="46.12405" lon="3.42214">
        <ele>322.464</ele>
        <time>2019-07-04T15:29:48Z</time>
      </trkpt>
      <trkpt lat="46.12402" lon="3.42221">
        <ele>323.479</ele>
        <time>2019-07-04T15:29:53Z</time>
      </trkpt>
      <trkpt lat="46.12397" lon="3.42227">
        <ele>324.052</ele>
        <time>2019-07-04T15:29:56Z</time>
      </trkpt>
      <trkpt lat="46.12401" lon="3.42239">
        <ele>324.572</ele>
        <time>2019-07-04T15:29:59Z</time>
      </trkpt>
      <trkpt lat="46.12404" lon="3.42246">
        <ele>325.167</ele>
        <time>2019-07-04T15:30:02Z</time>
      </trkpt>
      <trkpt lat="46.12403" lon="3.42253">
        <ele>326.287</ele>
        <time>2019-07-04T15:30:08Z</time>
      </trkpt>
      <trkpt lat="46.12402" lon="3.42259">
        <ele>326.723</ele>
        <time>2019-07-04T15:30:11Z</time>
      </trkpt>
      <trkpt lat="46.12403" lon="3.42266">
        <ele>327.183</ele>
        <time>2019-07-04T15:30:15Z</time>
      </trkpt>
      <trkpt lat="46.12403" lon="3.42271">
        <ele>327.368</ele>
        <time>2019-07-04T15:30:17Z</time>
      </trkpt>
      <trkpt lat="46.12403" lon="3.42277">
        <ele>327.535</ele>
        <time>2019-07-04T15:30:19Z</time>
      </trkpt>
      <trkpt lat="46.12403" lon="3.42283">
        <ele>327.762</ele>
        <time>2019-07-04T15:30:22Z</time>
      </trkpt>
      <trkpt lat="46.12404" lon="3.42292">
        <ele>327.941</ele>
        <time>2019-07-04T15:30:25Z</time>
      </trkpt>
      <trkpt lat="46.12405" lon="3.42296">
        <ele>328.018</ele>
        <time>2019-07-04T15:30:27Z</time>
      </trkpt>
      <trkpt lat="46.12405" lon="3.423">
        <ele>328.065</ele>
        <time>2019-07-04T15:30:29Z</time>
      </trkpt>
      <trkpt lat="46.12405" lon="3.42307">
        <ele>328.121</ele>
        <time>2019-07-04T15:30:33Z</time>
      </trkpt>
      <trkpt lat="46.12405" lon="3.42314">
        <ele>328.118</ele>
        <time>2019-07-04T15:30:36Z</time>
      </trkpt>
      <trkpt lat="46.12405" lon="3.42318">
        <ele>328.094</ele>
        <time>2019-07-04T15:30:38Z</time>
      </trkpt>
      <trkpt lat="46.12405" lon="3.42325">
        <ele>327.99</ele>
        <time>2019-07-04T15:30:42Z</time>
      </trkpt>
      <trkpt lat="46.12403" lon="3.42332">
        <ele>327.764</ele>
        <time>2019-07-04T15:30:48Z</time>
      </trkpt>
      <trkpt lat="46.12403" lon="3.42339">
        <ele>327.61</ele>
        <time>2019-07-04T15:30:52Z</time>
      </trkpt>
      <trkpt lat="46.12403" lon="3.42347">
        <ele>327.414</ele>
        <time>2019-07-04T15:30:58Z</time>
      </trkpt>
      <trkpt lat="46.12402" lon="3.42355">
        <ele>327.27</ele>
        <time>2019-07-04T15:31:04Z</time>
      </trkpt>
      <trkpt lat="46.12402" lon="3.42359">
        <ele>327.209</ele>
        <time>2019-07-04T15:31:07Z</time>
      </trkpt>
      <trkpt lat="46.12402" lon="3.42366">
        <ele>327.134</ele>
        <time>2019-07-04T15:31:10Z</time>
      </trkpt>
      <trkpt lat="46.12402" lon="3.42373">
        <ele>327.027</ele>
        <time>2019-07-04T15:31:14Z</time>
      </trkpt>
      <trkpt lat="46.12402" lon="3.4238">
        <ele>326.918</ele>
        <time>2019-07-04T15:31:18Z</time>
      </trkpt>
      <trkpt lat="46.12404" lon="3.42387">
        <ele>326.839</ele>
        <time>2019-07-04T15:31:21Z</time>
      </trkpt>
      <trkpt lat="46.12404" lon="3.42395">
        <ele>326.727</ele>
        <time>2019-07-04T15:31:26Z</time>
      </trkpt>
      <trkpt lat="46.12405" lon="3.424">
        <ele>326.666</ele>
        <time>2019-07-04T15:31:29Z</time>
      </trkpt>
      <trkpt lat="46.12407" lon="3.42406">
        <ele>326.57</ele>
        <time>2019-07-04T15:31:34Z</time>
      </trkpt>
      <trkpt lat="46.1241" lon="3.42412">
        <ele>326.469</ele>
        <time>2019-07-04T15:31:39Z</time>
      </trkpt>
      <trkpt lat="46.12414" lon="3.42417">
        <ele>326.378</ele>
        <time>2019-07-04T15:31:43Z</time>
      </trkpt>
      <trkpt lat="46.12418" lon="3.42423">
        <ele>326.252</ele>
        <time>2019-07-04T15:31:48Z</time>
      </trkpt>
      <trkpt lat="46.12419" lon="3.4243">
        <ele>326.133</ele>
        <time>2019-07-04T15:31:52Z</time>
      </trkpt>
      <trkpt lat="46.12421" lon="3.42436">
        <ele>326.048</ele>
        <time>2019-07-04T15:31:55Z</time>
      </trkpt>
      <trkpt lat="46.12423" lon="3.42443">
        <ele>325.96</ele>
        <time>2019-07-04T15:31:58Z</time>
      </trkpt>
      <trkpt lat="46.12428" lon="3.42449">
        <ele>325.803</ele>
        <time>2019-07-04T15:32:04Z</time>
      </trkpt>
      <trkpt lat="46.1243" lon="3.42455">
        <ele>325.693</ele>
        <time>2019-07-04T15:32:08Z</time>
      </trkpt>
      <trkpt lat="46.12432" lon="3.42461">
        <ele>325.532</ele>
        <time>2019-07-04T15:32:13Z</time>
      </trkpt>
      <trkpt lat="46.12436" lon="3.42466">
        <ele>325.438</ele>
        <time>2019-07-04T15:32:16Z</time>
      </trkpt>
      <trkpt lat="46.1244" lon="3.4247">
        <ele>325.328</ele>
        <time>2019-07-04T15:32:20Z</time>
      </trkpt>
      <trkpt lat="46.12445" lon="3.42472">
        <ele>325.213</ele>
        <time>2019-07-04T15:32:25Z</time>
      </trkpt>
      <trkpt lat="46.12448" lon="3.42476">
        <ele>325.144</ele>
        <time>2019-07-04T15:32:28Z</time>
      </trkpt>
      <trkpt lat="46.12452" lon="3.42481">
        <ele>325.066</ele>
        <time>2019-07-04T15:32:31Z</time>
      </trkpt>
      <trkpt lat="46.12455" lon="3.42484">
        <ele>325.016</ele>
        <time>2019-07-04T15:32:33Z</time>
      </trkpt>
      <trkpt lat="46.12456" lon="3.42491">
        <ele>324.893</ele>
        <time>2019-07-04T15:32:37Z</time>
      </trkpt>
      <trkpt lat="46.12459" lon="3.42497">
        <ele>324.794</ele>
        <time>2019-07-04T15:32:40Z</time>
      </trkpt>
      <trkpt lat="46.12461" lon="3.42506">
        <ele>324.687</ele>
        <time>2019-07-04T15:32:43Z</time>
      </trkpt>
      <trkpt lat="46.12462" lon="3.42515">
        <ele>324.537</ele>
        <time>2019-07-04T15:32:47Z</time>
      </trkpt>
      <trkpt lat="46.12461" lon="3.42521">
        <ele>324.395</ele>
        <time>2019-07-04T15:32:51Z</time>
      </trkpt>
      <trkpt lat="46.12458" lon="3.42527">
        <ele>324.248</ele>
        <time>2019-07-04T15:32:55Z</time>
      </trkpt>
      <trkpt lat="46.12457" lon="3.42533">
        <ele>324.116</ele>
        <time>2019-07-04T15:32:59Z</time>
      </trkpt>
      <trkpt lat="46.12456" lon="3.42539">
        <ele>324</ele>
        <time>2019-07-04T15:33:04Z</time>
      </trkpt>
      <trkpt lat="46.12456" lon="3.42546">
        <ele>323.742</ele>
        <time>2019-07-04T15:33:13Z</time>
      </trkpt>
      <trkpt lat="46.12453" lon="3.42554">
        <ele>323.658</ele>
        <time>2019-07-04T15:33:16Z</time>
      </trkpt>
      <trkpt lat="46.12452" lon="3.42558">
        <ele>323.629</ele>
        <time>2019-07-04T15:33:17Z</time>
      </trkpt>
      <trkpt lat="46.12451" lon="3.42562">
        <ele>323.57</ele>
        <time>2019-07-04T15:33:19Z</time>
      </trkpt>
      <trkpt lat="46.12451" lon="3.42569">
        <ele>323.486</ele>
        <time>2019-07-04T15:33:22Z</time>
      </trkpt>
      <trkpt lat="46.12455" lon="3.42577">
        <ele>323.409</ele>
        <time>2019-07-04T15:33:25Z</time>
      </trkpt>
      <trkpt lat="46.1246" lon="3.42583">
        <ele>323.336</ele>
        <time>2019-07-04T15:33:28Z</time>
      </trkpt>
      <trkpt lat="46.12463" lon="3.42589">
        <ele>323.251</ele>
        <time>2019-07-04T15:33:31Z</time>
      </trkpt>
      <trkpt lat="46.12465" lon="3.42595">
        <ele>323.164</ele>
        <time>2019-07-04T15:33:34Z</time>
      </trkpt>
      <trkpt lat="46.12468" lon="3.426">
        <ele>323.051</ele>
        <time>2019-07-04T15:33:38Z</time>
      </trkpt>
      <trkpt lat="46.1247" lon="3.42607">
        <ele>322.946</ele>
        <time>2019-07-04T15:33:42Z</time>
      </trkpt>
      <trkpt lat="46.12472" lon="3.42614">
        <ele>322.841</ele>
        <time>2019-07-04T15:33:46Z</time>
      </trkpt>
      <trkpt lat="46.12475" lon="3.42619">
        <ele>322.719</ele>
        <time>2019-07-04T15:33:51Z</time>
      </trkpt>
      <trkpt lat="46.12477" lon="3.42625">
        <ele>322.646</ele>
        <time>2019-07-04T15:33:54Z</time>
      </trkpt>
      <trkpt lat="46.12479" lon="3.42628">
        <ele>322.599</ele>
        <time>2019-07-04T15:33:56Z</time>
      </trkpt>
      <trkpt lat="46.12481" lon="3.42634">
        <ele>322.531</ele>
        <time>2019-07-04T15:33:59Z</time>
      </trkpt>
      <trkpt lat="46.12484" lon="3.4264">
        <ele>322.464</ele>
        <time>2019-07-04T15:34:02Z</time>
      </trkpt>
      <trkpt lat="46.12487" lon="3.42646">
        <ele>322.399</ele>
        <time>2019-07-04T15:34:05Z</time>
      </trkpt>
      <trkpt lat="46.12491" lon="3.42651">
        <ele>322.309</ele>
        <time>2019-07-04T15:34:09Z</time>
      </trkpt>
      <trkpt lat="46.12493" lon="3.42658">
        <ele>322.188</ele>
        <time>2019-07-04T15:34:15Z</time>
      </trkpt>
      <trkpt lat="46.12495" lon="3.42663">
        <ele>322.153</ele>
        <time>2019-07-04T15:34:17Z</time>
      </trkpt>
      <trkpt lat="46.12497" lon="3.42668">
        <ele>322.087</ele>
        <time>2019-07-04T15:34:21Z</time>
      </trkpt>
      <trkpt lat="46.12501" lon="3.42674">
        <ele>322.004</ele>
        <time>2019-07-04T15:34:26Z</time>
      </trkpt>
      <trkpt lat="46.12505" lon="3.42679">
        <ele>321.931</ele>
        <time>2019-07-04T15:34:30Z</time>
      </trkpt>
      <trkpt lat="46.12508" lon="3.42683">
        <ele>321.896</ele>
        <time>2019-07-04T15:34:32Z</time>
      </trkpt>
      <trkpt lat="46.12512" lon="3.42687">
        <ele>321.866</ele>
        <time>2019-07-04T15:34:34Z</time>
      </trkpt>
      <trkpt lat="46.12517" lon="3.42689">
        <ele>321.816</ele>
        <time>2019-07-04T15:34:38Z</time>
      </trkpt>
      <trkpt lat="46.12521" lon="3.42693">
        <ele>321.787</ele>
        <time>2019-07-04T15:34:41Z</time>
      </trkpt>
      <trkpt lat="46.12524" lon="3.42698">
        <ele>321.753</ele>
        <time>2019-07-04T15:34:45Z</time>
      </trkpt>
      <trkpt lat="46.1253" lon="3.42704">
        <ele>321.719</ele>
        <time>2019-07-04T15:34:50Z</time>
      </trkpt>
      <trkpt lat="46.12537" lon="3.42708">
        <ele>321.702</ele>
        <time>2019-07-04T15:34:54Z</time>
      </trkpt>
      <trkpt lat="46.12542" lon="3.42709">
        <ele>321.685</ele>
        <time>2019-07-04T15:34:58Z</time>
      </trkpt>
      <trkpt lat="46.12546" lon="3.42713">
        <ele>321.668</ele>
        <time>2019-07-04T15:35:02Z</time>
      </trkpt>
      <trkpt lat="46.12549" lon="3.42719">
        <ele>321.619</ele>
        <time>2019-07-04T15:35:08Z</time>
      </trkpt>
      <trkpt lat="46.1255" lon="3.42728">
        <ele>321.541</ele>
        <time>2019-07-04T15:35:14Z</time>
      </trkpt>
      <trkpt lat="46.12553" lon="3.42733">
        <ele>321.465</ele>
        <time>2019-07-04T15:35:19Z</time>
      </trkpt>
      <trkpt lat="46.12555" lon="3.42738">
        <ele>321.385</ele>
        <time>2019-07-04T15:35:24Z</time>
      </trkpt>
      <trkpt lat="46.12556" lon="3.42742">
        <ele>321.352</ele>
        <time>2019-07-04T15:35:26Z</time>
      </trkpt>
      <trkpt lat="46.12558" lon="3.42748">
        <ele>321.298</ele>
        <time>2019-07-04T15:35:29Z</time>
      </trkpt>
      <trkpt lat="46.12561" lon="3.42754">
        <ele>321.223</ele>
        <time>2019-07-04T15:35:33Z</time>
      </trkpt>
      <trkpt lat="46.12562" lon="3.42757">
        <ele>321.143</ele>
        <time>2019-07-04T15:35:37Z</time>
      </trkpt>
      <trkpt lat="46.12565" lon="3.42763">
        <ele>321.086</ele>
        <time>2019-07-04T15:35:40Z</time>
      </trkpt>
      <trkpt lat="46.12566" lon="3.42766">
        <ele>321.049</ele>
        <time>2019-07-04T15:35:42Z</time>
      </trkpt>
      <trkpt lat="46.12568" lon="3.42769">
        <ele>321.012</ele>
        <time>2019-07-04T15:35:44Z</time>
      </trkpt>
      <trkpt lat="46.1257" lon="3.42772">
        <ele>320.975</ele>
        <time>2019-07-04T15:35:46Z</time>
      </trkpt>
      <trkpt lat="46.12573" lon="3.42777">
        <ele>320.899</ele>
        <time>2019-07-04T15:35:50Z</time>
      </trkpt>
      <trkpt lat="46.12577" lon="3.42783">
        <ele>320.827</ele>
        <time>2019-07-04T15:35:54Z</time>
      </trkpt>
      <trkpt lat="46.12581" lon="3.4279">
        <ele>320.776</ele>
        <time>2019-07-04T15:35:57Z</time>
      </trkpt>
      <trkpt lat="46.12584" lon="3.42795">
        <ele>320.72</ele>
        <time>2019-07-04T15:36:00Z</time>
      </trkpt>
      <trkpt lat="46.12589" lon="3.42799">
        <ele>320.624</ele>
        <time>2019-07-04T15:36:05Z</time>
      </trkpt>
      <trkpt lat="46.12591" lon="3.42805">
        <ele>320.541</ele>
        <time>2019-07-04T15:36:09Z</time>
      </trkpt>
      <trkpt lat="46.12593" lon="3.42811">
        <ele>320.478</ele>
        <time>2019-07-04T15:36:12Z</time>
      </trkpt>
      <trkpt lat="46.12594" lon="3.42814">
        <ele>320.437</ele>
        <time>2019-07-04T15:36:14Z</time>
      </trkpt>
      <trkpt lat="46.12597" lon="3.42821">
        <ele>320.345</ele>
        <time>2019-07-04T15:36:18Z</time>
      </trkpt>
      <trkpt lat="46.12598" lon="3.42828">
        <ele>320.239</ele>
        <time>2019-07-04T15:36:22Z</time>
      </trkpt>
      <trkpt lat="46.126" lon="3.42835">
        <ele>320.127</ele>
        <time>2019-07-04T15:36:26Z</time>
      </trkpt>
      <trkpt lat="46.12603" lon="3.4284">
        <ele>320.009</ele>
        <time>2019-07-04T15:36:30Z</time>
      </trkpt>
      <trkpt lat="46.12605" lon="3.42843">
        <ele>319.92</ele>
        <time>2019-07-04T15:36:33Z</time>
      </trkpt>
      <trkpt lat="46.1261" lon="3.42847">
        <ele>319.78</ele>
        <time>2019-07-04T15:36:38Z</time>
      </trkpt>
      <trkpt lat="46.12612" lon="3.42849">
        <ele>319.728</ele>
        <time>2019-07-04T15:36:40Z</time>
      </trkpt>
      <trkpt lat="46.12615" lon="3.42856">
        <ele>319.626</ele>
        <time>2019-07-04T15:36:44Z</time>
      </trkpt>
      <trkpt lat="46.12618" lon="3.42863">
        <ele>319.493</ele>
        <time>2019-07-04T15:36:49Z</time>
      </trkpt>
      <trkpt lat="46.12622" lon="3.42869">
        <ele>319.353</ele>
        <time>2019-07-04T15:36:54Z</time>
      </trkpt>
      <trkpt lat="46.12624" lon="3.42877">
        <ele>319.223</ele>
        <time>2019-07-04T15:36:58Z</time>
      </trkpt>
      <trkpt lat="46.12626" lon="3.42882">
        <ele>319.082</ele>
        <time>2019-07-04T15:37:02Z</time>
      </trkpt>
      <trkpt lat="46.12627" lon="3.42886">
        <ele>318.975</ele>
        <time>2019-07-04T15:37:05Z</time>
      </trkpt>
      <trkpt lat="46.12632" lon="3.42891">
        <ele>318.807</ele>
        <time>2019-07-04T15:37:10Z</time>
      </trkpt>
      <trkpt lat="46.12635" lon="3.42898">
        <ele>318.648</ele>
        <time>2019-07-04T15:37:15Z</time>
      </trkpt>
      <trkpt lat="46.12638" lon="3.42902">
        <ele>318.558</ele>
        <time>2019-07-04T15:37:18Z</time>
      </trkpt>
      <trkpt lat="46.12641" lon="3.42907">
        <ele>318.462</ele>
        <time>2019-07-04T15:37:21Z</time>
      </trkpt>
      <trkpt lat="46.12643" lon="3.42911">
        <ele>318.396</ele>
        <time>2019-07-04T15:37:23Z</time>
      </trkpt>
      <trkpt lat="46.12645" lon="3.42918">
        <ele>318.265</ele>
        <time>2019-07-04T15:37:27Z</time>
      </trkpt>
      <trkpt lat="46.12647" lon="3.42923">
        <ele>318.135</ele>
        <time>2019-07-04T15:37:31Z</time>
      </trkpt>
      <trkpt lat="46.12648" lon="3.42927">
        <ele>318.042</ele>
        <time>2019-07-04T15:37:34Z</time>
      </trkpt>
      <trkpt lat="46.1265" lon="3.42931">
        <ele>317.98</ele>
        <time>2019-07-04T15:37:36Z</time>
      </trkpt>
      <trkpt lat="46.12653" lon="3.42937">
        <ele>317.862</ele>
        <time>2019-07-04T15:37:40Z</time>
      </trkpt>
      <trkpt lat="46.12657" lon="3.42941">
        <ele>317.715</ele>
        <time>2019-07-04T15:37:45Z</time>
      </trkpt>
      <trkpt lat="46.1266" lon="3.42948">
        <ele>317.547</ele>
        <time>2019-07-04T15:37:51Z</time>
      </trkpt>
      <trkpt lat="46.12664" lon="3.42953">
        <ele>317.468</ele>
        <time>2019-07-04T15:37:54Z</time>
      </trkpt>
      <trkpt lat="46.12668" lon="3.42956">
        <ele>317.391</ele>
        <time>2019-07-04T15:37:57Z</time>
      </trkpt>
      <trkpt lat="46.12668" lon="3.42963">
        <ele>317.284</ele>
        <time>2019-07-04T15:38:01Z</time>
      </trkpt>
      <trkpt lat="46.12667" lon="3.42969">
        <ele>317.2</ele>
        <time>2019-07-04T15:38:04Z</time>
      </trkpt>
      <trkpt lat="46.12667" lon="3.42974">
        <ele>317.117</ele>
        <time>2019-07-04T15:38:07Z</time>
      </trkpt>
      <trkpt lat="46.12664" lon="3.42982">
        <ele>316.968</ele>
        <time>2019-07-04T15:38:13Z</time>
      </trkpt>
      <trkpt lat="46.12664" lon="3.42989">
        <ele>316.897</ele>
        <time>2019-07-04T15:38:16Z</time>
      </trkpt>
      <trkpt lat="46.12661" lon="3.42995">
        <ele>316.813</ele>
        <time>2019-07-04T15:38:20Z</time>
      </trkpt>
      <trkpt lat="46.12659" lon="3.42999">
        <ele>316.733</ele>
        <time>2019-07-04T15:38:24Z</time>
      </trkpt>
      <trkpt lat="46.12655" lon="3.43002">
        <ele>316.629</ele>
        <time>2019-07-04T15:38:30Z</time>
      </trkpt>
      <trkpt lat="46.12649" lon="3.43003">
        <ele>316.533</ele>
        <time>2019-07-04T15:38:36Z</time>
      </trkpt>
      <trkpt lat="46.12644" lon="3.43006">
        <ele>316.486</ele>
        <time>2019-07-04T15:38:39Z</time>
      </trkpt>
      <trkpt lat="46.12641" lon="3.43013">
        <ele>316.427</ele>
        <time>2019-07-04T15:38:43Z</time>
      </trkpt>
      <trkpt lat="46.1264" lon="3.4302">
        <ele>316.384</ele>
        <time>2019-07-04T15:38:46Z</time>
      </trkpt>
      <trkpt lat="46.12641" lon="3.43027">
        <ele>316.335</ele>
        <time>2019-07-04T15:38:50Z</time>
      </trkpt>
      <trkpt lat="46.12642" lon="3.43035">
        <ele>316.28</ele>
        <time>2019-07-04T15:38:55Z</time>
      </trkpt>
      <trkpt lat="46.12644" lon="3.43041">
        <ele>316.226</ele>
        <time>2019-07-04T15:39:01Z</time>
      </trkpt>
      <trkpt lat="46.12644" lon="3.43049">
        <ele>316.145</ele>
        <time>2019-07-04T15:39:10Z</time>
      </trkpt>
      <trkpt lat="46.12641" lon="3.43054">
        <ele>316.12</ele>
        <time>2019-07-04T15:39:13Z</time>
      </trkpt>
      <trkpt lat="46.12641" lon="3.43061">
        <ele>316.104</ele>
        <time>2019-07-04T15:39:16Z</time>
      </trkpt>
      <trkpt lat="46.12643" lon="3.43068">
        <ele>316.069</ele>
        <time>2019-07-04T15:39:21Z</time>
      </trkpt>
      <trkpt lat="46.12643" lon="3.43068">
        <ele>262.6</ele>
        <time>2019-07-04T15:39:26Z</time>
      </trkpt>
      <trkpt lat="46.12643" lon="3.43068">
        <ele>262.6</ele>
        <time>2019-07-04T15:39:31Z</time>
      </trkpt>
      <trkpt lat="46.12647" lon="3.43074">
        <ele>316.014</ele>
        <time>2019-07-04T15:39:31Z</time>
      </trkpt>
      <trkpt lat="46.12647" lon="3.43074">
        <ele>316.014</ele>
        <time>2019-07-04T15:41:34Z</time>
      </trkpt>
      <trkpt lat="46.1264" lon="3.43083">
        <ele>317.158</ele>
        <time>2019-07-04T15:42:53Z</time>
      </trkpt>
      <trkpt lat="46.12637" lon="3.43084">
        <ele>317.176</ele>
        <time>2019-07-04T15:42:55Z</time>
      </trkpt>
      <trkpt lat="46.12634" lon="3.43085">
        <ele>317.185</ele>
        <time>2019-07-04T15:42:56Z</time>
      </trkpt>
      <trkpt lat="46.12631" lon="3.43086">
        <ele>317.212</ele>
        <time>2019-07-04T15:42:59Z</time>
      </trkpt>
      <trkpt lat="46.12626" lon="3.43088">
        <ele>317.254</ele>
        <time>2019-07-04T15:43:04Z</time>
      </trkpt>
      <trkpt lat="46.12624" lon="3.4309">
        <ele>317.272</ele>
        <time>2019-07-04T15:43:06Z</time>
      </trkpt>
      <trkpt lat="46.12619" lon="3.43091">
        <ele>317.317</ele>
        <time>2019-07-04T15:43:11Z</time>
      </trkpt>
      <trkpt lat="46.12616" lon="3.43091">
        <ele>317.334</ele>
        <time>2019-07-04T15:43:13Z</time>
      </trkpt>
      <trkpt lat="46.12611" lon="3.43093">
        <ele>317.373</ele>
        <time>2019-07-04T15:43:18Z</time>
      </trkpt>
      <trkpt lat="46.12609" lon="3.43094">
        <ele>317.388</ele>
        <time>2019-07-04T15:43:20Z</time>
      </trkpt>
      <trkpt lat="46.12604" lon="3.43095">
        <ele>317.404</ele>
        <time>2019-07-04T15:43:22Z</time>
      </trkpt>
      <trkpt lat="46.12604" lon="3.43095">
        <ele>262.6</ele>
        <time>2019-07-04T15:43:29Z</time>
      </trkpt>
      <trkpt lat="46.12604" lon="3.43095">
        <ele>262.6</ele>
        <time>2019-07-04T15:44:53Z</time>
      </trkpt>
      <trkpt lat="46.12591" lon="3.43096">
        <ele>317.529</ele>
        <time>2019-07-04T15:44:53Z</time>
      </trkpt>
      <trkpt lat="46.12591" lon="3.43096">
        <ele>317.529</ele>
        <time>2019-07-04T15:44:58Z</time>
      </trkpt>
      <trkpt lat="46.12591" lon="3.43096">
        <ele>262.5</ele>
        <time>2019-07-04T15:44:58Z</time>
      </trkpt>
      <trkpt lat="46.12591" lon="3.43096">
        <ele>262.5</ele>
        <time>2019-07-04T15:45:21Z</time>
      </trkpt>
      <trkpt lat="46.12591" lon="3.43096">
        <ele>262.5</ele>
        <time>2019-07-04T15:45:24Z</time>
      </trkpt>
      <trkpt lat="46.12591" lon="3.43096">
        <ele>262.5</ele>
        <time>2019-07-04T15:45:25Z</time>
      </trkpt>
    </trkseg>
  </trk>
</gpx>